     2              OBSERVATION DATA    GPS                 RINEX VERSION / TYPE
teqc 1997Jul24 19970814                                     PGM / RUN BY / DATE
                                                            COMMENT
Original Marker Name: PALO                                  COMMENT
Campaign Name: HPGN 1991                                    COMMENT
4-Character Station Name: PALO                              COMMENT
6-Character Antenna Code: TRMSST                            COMMENT
Vertical Measurement Point: BPA                             COMMENT
Vertical Offset to Rinex Ref. Point: 0.0000                 COMMENT
Radial Measurement Point: RRP                               COMMENT
Radial Offset to Rinex Ref. Point: 0.0000                   COMMENT
Antenna Height from Field Measurement: 2.2200 m             COMMENT
Original XYZ: -2525454.2991 -4670037.9104 3522891.8655      COMMENT
New XYZ position is based on association with SCEC monument COMMENT
E1C7V2S0+0011. Position of that monument is believed to be  COMMENT
valid to within 1 m horizontally; vertical accuracy         COMMENT
should be no worse than 3-times this value.                 COMMENT
                                                            COMMENT
Revised Rinex header created by UCSD GPS archive for        COMMENT
GSAC on 05-Apr-1999 (1999:095) 22:33:03 GMT                 COMMENT
For assistance contact dagnew@ucsd.edu or hjohnson@ucsd.edu COMMENT
                                                            COMMENT
PALOS VERDES AIRES 1976-1980                                MARKER NAME
unknown NATIONAL GEODETIC SURVEY                            OBSERVER / AGENCY
486 TRIMBLE 4000 SST NP 4.30 / SP 4.20                      REC # / TYPE / VERS
17 TR 4000SST L1/L2 GEO                                     ANT # / TYPE
 -2525453.0000 -4670035.0000  3522887.0000                  APPROX POSITION XYZ
        2.2200        0.0000        0.0000                  ANTENNA: DELTA H/E/N
     1     1     0                                          WAVELENGTH FACT L1/2
     3    C1    L1    L2                                    # / TYPES OF OBSERV
     0                                                      INTERVAL
  1991     4    23    19    53   45.000000                  TIME OF FIRST OBS
  1991     4    24     1    57   60.000000                  TIME OF LAST OBS
     0                                                      # OF SATELLITES
                                                            END OF HEADER
 91  4 23 19 53 45.0000000  0  4G18G 2G11G19
  20509272.4534         -0.36458        -0.38373
  23657564.8984         -0.06856        -0.47371
  23664010.6564         -0.80156        -0.11471
  20796339.6334         -0.23357        -0.28772
 91  4 23 19 54  0.0000000  0  4G18G 2G11G19
  20511251.8134      10410.68848      8112.09063
  23647540.2584     -52682.04246    -41051.19661
  23656957.6884     -37058.72546    -28876.26661
  20794691.7974      -8647.58747     -6738.48562
 91  4 23 19 54 15.0000000  0  4G18G 2G11G19
  20513251.7194      20920.10248     16301.20863
  23637524.977     -105330.375 6    -82075.71321
  23649921.781      -74036.404 6    -57689.90121
  20793055.3444     -17267.36747    -13455.19262
 91  4 23 19 54 30.0000000  0  4G18G 2G11G19
  20515272.5864      31531.58448     24569.86063
  23627512.336     -157941.275 6   -123071.04321
  23642900.961     -110929.790 6    -86437.85521
  20791417.1804     -25855.91547    -20147.56962
 91  4 23 19 54 45.0000000  0  4G18G 2G11G19
  20517310.2504      42243.01548     32916.39363
  23617508.039     -210516.399 6   -164038.50021
  23635897.0704    -147740.23546   -115121.16161
  20789789.8984     -34415.16747    -26817.11862
 91  4 23 19 55  0.0000000  0  4G18G 2G11G19
  20519367.3284      53056.26148     41342.26763
  23607510.6484    -263053.85646   -204976.61561
  23628904.6094    -184465.69246   -143738.25761
  20788165.5944     -42943.37447    -33462.46862
 91  4 23 19 55 15.0000000  0  4G18G 2G11G19
  20521444.4774      63973.50448     49849.17163
  23597518.023     -315551.092 6   -245883.39421
  23621932.367     -221103.556 6   -172287.10721
  20786551.5784     -51438.25547    -40081.85162
 91  4 23 19 55 30.0000000  0  4G18G 2G11G19
  20523542.6484      74994.32948     58436.79063
  23587536.3284    -368008.54146   -286759.15861
  23614979.117     -257654.024 6   -200767.85221
  20784940.0634     -59900.49347    -46675.80462
 91  4 23 19 55 45.0000000  0  4G18G 2G11G19
  20525660.2894      86117.31048     67104.00663
  23577560.578     -420427.120 6   -327604.63321
  23608040.313     -294117.848 6   -229181.08021
  20783337.1724     -68331.27947    -53245.24762
 91  4 23 19 56  0.0000000  0  4G18G 2G11G19
  20527795.641       97343.387 8     75851.55623
  23567593.7584    -472805.81646   -368419.05361
  23601120.6094    -330493.71946   -257525.77261
  20781736.1954     -76729.67347    -59789.45662
 91  4 23 19 56 15.0000000  0  4G18G 2G11G19
  20529951.9924     108671.94548     84678.96863
  23557634.7344    -525145.28946   -409202.90261
  23594210.445     -366782.189 6   -285802.35821
  20780146.7034     -85096.50447    -66309.06362
 91  4 23 19 56 30.0000000  0  4G18G 2G11G19
  20532125.6484     120102.12148     93585.56062
  23547680.5864    -577446.28946   -449956.78361
  23587324.1564    -402983.71346   -314011.21561
  20778559.9224     -93432.43047    -72804.58562
 91  4 23 19 56 45.0000000  0  4G18G 2G11G19
  20534320.8364     131637.80648    102574.36163
  23537736.4534    -629704.72646   -490677.49761
  23580452.9064    -439093.94646   -342148.93561
  20776981.2424    -101733.60647    -79273.03962
 91  4 23 19 57  0.0000000  0  4G18G 2G11G19
  20536536.0314     143273.34848    111640.97963
  23527800.719     -681926.099 6   -531369.30221
  23573593.508     -475118.131 6   -370219.59521
  20775403.9304    -110005.70347    -85718.83162
 91  4 23 19 57 15.0000000  0  4G18G 2G11G19
  20538769.2424     155010.71848    120786.94362
  23517870.414     -734107.857 6   -572030.26821
  23566757.6644    -511053.73346   -398221.24261
  20773836.9304    -118246.49447    -92140.22762
 91  4 23 19 57 30.0000000  0  4G18G 2G11G19
  20541021.219      166851.118 8    130013.18323
  23507948.8524    -786248.66746   -612659.31861
  23559937.8984    -546899.15146   -426152.61561
  20772273.9224    -126454.89847    -98536.39462
 91  4 23 19 57 45.0000000  0  4G18G 2G11G19
  20543294.5784     178793.44348    139318.84963
  23498032.7894    -838349.68746   -653257.38761
  23553132.1724    -582655.43446   -454014.54161
  20770719.8444    -134632.20747   -104908.31962
 91  4 23 19 58  0.0000000  0  4G18G 2G11G19
  20545587.914      190842.303 8    148707.53122
  23488127.6254    -890405.93446   -693820.55061
  23546344.313     -618317.368 6   -481802.92921
  20769171.4774    -142773.60547   -111252.27162
 91  4 23 19 58 15.0000000  0  4G18G 2G11G19
  20547899.461      202996.011 8    158177.90422
  23478230.305     -942418.863 6   -734349.96721
  23539579.7194    -653886.19346   -509518.77061
  20767629.5164    -150880.93447   -117569.66662
 91  4 23 19 58 30.0000000  0  4G18G 2G11G19
  20550234.0394     215255.88248    167731.01563
  23468338.3284    -994387.01146   -774844.48861
  23532828.2894    -689360.16346   -537160.69861
  20766090.5474    -158952.61247   -123859.28662
 91  4 23 19 58 45.0000000  0  4G18G 2G11G19
  20552586.641      227614.481 8    177361.04523
  23458457.2034   -1046317.83346   -815309.92261
  23526095.570     -724746.603 6   -564734.43521
  20764561.3524    -166996.22347   -130127.03962
 91  4 23 19 59  0.0000000  0  4G18G 2G11G19
  20554956.320      240075.361 8    187070.77123
  23448580.797    -1098207.523 6   -855743.30821
  23519377.422     -760041.497 6   -592236.82621
  20763036.1094    -175008.34947   -136370.25262
 91  4 23 19 59 15.0000000  0  4G18G 2G11G19
  20557348.227      252643.103 8    196863.77422
  23438716.094    -1150051.126 6   -896140.78221
  23512679.133     -795239.704 6   -619663.88821
  20761518.8914    -182984.23447   -142585.22662
 91  4 23 19 59 30.0000000  0  4G18G 2G11G19
  20559759.930      265311.910 8    206735.52922
  23428859.867    -1201854.611 6   -936507.01321
  23505997.406     -830347.073 6   -647020.15421
  20760006.2894    -190930.04047   -148776.76062
 91  4 23 19 59 45.0000000  0  4G18G 2G11G19
  20562189.039      278082.048 8    216686.24322
  23419008.109    -1253617.302 6   -976841.43821
  23499336.383     -865362.651 6   -674304.91321
  20758499.7734    -198845.30447   -154944.50362
 91  4 23 20  0  0.0000000  0  4G18G 2G11G19
  20564638.344      290949.828 8    226713.03822
  23409166.031    -1305342.449 6  -1017146.60921
  23492689.1804    -900289.69946   -701520.67561
  20756997.2034    -206733.62547   -161091.24462
 91  4 23 20  0 15.0000000  0  4G18G 2G11G19
  20567106.438      303924.617 8    236823.21522
  23399331.9144   -1357020.48146  -1057415.07461
  23486061.7584    -935118.37046   -728659.78361
  20755505.8674    -214585.48447   -167209.58362
 91  4 23 20  0 30.0000000  0  4G18G 2G11G19
  20569595.484      316997.472 8    247009.80822
  23389504.3594   -1408660.39846  -1097653.84761
  23479449.3674    -969857.42446   -755729.05561
  20754017.1174    -222409.82947   -173306.48062
 91  4 23 20  0 45.0000000  0  4G18G 2G11G19
  20572102.195      330173.932 8    257277.13022
  23379686.0944   -1460256.60546  -1137858.55661
  23472854.0394   -1004500.83146   -782723.78961
  20752534.3594    -230201.29347   -179377.74562
 91  4 23 20  0 59.9990000  0  4G18G 2G11G19
  20574628.948      343450.908 8    267622.78022
  23369877.9404   -1511807.53546  -1178027.99161
  23466282.7454   -1039048.24046   -809643.72161
  20751054.3864    -237961.43747   -185424.61662
 91  4 23 20  1 14.9990000  0  4G18G 2G11G19
  20577174.659      356824.634 8    278043.81222
  23360073.347    -1563325.333 6  -1218171.59221
  23459726.6834   -1073509.33246   -836496.40261
  20749583.1124    -245696.68047   -191452.07762
 91  4 23 20  1 29.9990000  0  4G18G 2G11G19
  20579737.386      370297.275 8    288541.92722
  23350278.019    -1614803.202 6  -1258284.07521
  23453183.9644   -1107878.27846   -863277.27061
  20748116.9804    -253403.30047   -197457.23462
 91  4 23 20  1 44.9990000  0  4G18G 2G11G19
  20582318.526      383867.375 8    299115.98422
  23340488.136    -1666242.641 6  -1298366.64221
  23446662.6984   -1142156.39046   -889987.36661
  20746657.2224    -261082.97047   -203441.40062
 91  4 23 20  1 59.9990000  0  4G18G 2G11G19
  20584918.831      397532.338 8    309763.96222
  23330704.4954   -1717645.98046  -1338421.06761
  23440156.9954   -1176345.79046   -916628.32361
  20745202.1054    -268738.29747   -209406.58862
 91  4 23 20  2 14.9990000  0  4G18G 2G11G19
  20587538.878      411290.874 8    320484.84922
  23320929.261    -1769014.216 6  -1378448.12621
  23433666.198    -1210447.240 6   -943200.77321
  20743747.3704    -276370.24747   -215353.57162
 91  4 23 20  2 29.9990000  0  4G18G 2G11G19
  20590175.003      425148.012 8    331282.57022
  23311163.612    -1820342.087 6  -1418443.73921
  23427194.7534   -1244455.35446   -969700.48661
  20742303.4874    -283973.76847   -221278.39762
 91  4 23 20  2 44.9990000  0  4G18G 2G11G19
  20592831.987      439109.881 8    342161.89922
  23301403.7844   -1871623.71846  -1458403.29061
  23420744.0504   -1278363.93446   -996122.62461
  20740860.3314    -291543.14547   -227176.61662
 91  4 23 20  2 59.9990000  0  4G18G 2G11G19
  20595506.230      453164.995 8    353113.88822
  23291652.7534   -1922870.05246  -1498335.36561
  23414307.1834   -1312183.74046  -1022475.60161
  20739423.9334    -299089.74847   -233057.09162
 91  4 23 20  3 14.9990000  0  4G18G 2G11G19
  20598200.003      467314.481 8    364139.41122
  23281906.8004   -1974079.58046  -1538238.77161
  23407887.4804   -1345913.34346  -1048758.29261
  20737994.3394    -306612.20047   -238918.74762
 91  4 23 20  3 29.9990000  0  4G18G 2G11G19
  20600910.448      481563.254 8    375242.30422
  23272171.190    -2025247.194 6  -1578109.51121
  23401486.8394   -1379547.45146  -1074966.56761
  20736569.8944    -314105.70847   -244757.84362
 91  4 23 20  3 44.9990000  0  4G18G 2G11G19
  20603641.0974     495914.37248    386424.95162
  23262444.097    -2076369.629 6  -1617945.04421
  23395105.050    -1413082.434 6  -1101097.59321
  20735148.4334    -321566.95047   -250571.80262
 91  4 23 20  3 59.9990000  0  4G18G 2G11G19
  20606390.495      510359.324 8    397680.71022
  23252721.722    -2127455.615 6  -1657752.18121
  23388741.050    -1446526.727 6  -1127157.97021
  20733734.5344    -329004.75547   -256367.49762
 91  4 23 20  4 14.9990000  0  4G18G 2G11G19
  20609158.901      524903.960 8    409014.14322
  23243007.105    -2178499.163 6  -1697526.25721
  23382394.597    -1479874.180 6  -1153142.89321
  20732322.2374    -336413.25447   -262140.35362
 91  4 23 20  4 29.9990000  0  4G18G 2G11G19
  20611944.198      539546.133 8    420423.58622
  23233301.605    -2229501.998 6  -1737268.59521
  23376066.3234   -1513126.37546  -1179053.57161
  20730915.8154    -343794.31347   -267891.83662
 91  4 23 20  4 44.9990000  0  4G18G 2G11G19
  20614751.253      554287.549 8    431910.35322
  23223605.284    -2280462.089 6  -1776977.61621
  23369757.8784   -1546281.30346  -1204888.46561
  20729517.9484    -351146.31747   -273620.67062
 91  4 23 20  4 59.9990000  0  4G18G 2G11G19
  20617574.503      569121.273 8    443469.05422
  23213915.534    -2331386.150 6  -1816658.56821
  23363466.300    -1579345.321 6  -1230652.52021
  20728123.2064    -358475.99347   -279332.10562
 91  4 23 20  5 14.9990000  0  4G18G 2G11G19
  20620414.706      584053.822 8    455104.75822
  23204232.2144   -2382267.53846  -1856306.25561
  23357193.4484   -1612311.70246  -1256340.48661
  20726736.9094    -365776.73147   -285020.99562
 91  4 23 20  5 29.9990000  0  4G18G 2G11G19
  20623275.183      599087.990 8    466819.65122
  23194557.5654   -2433103.37546  -1895918.44961
  23350937.9094   -1645177.19046  -1281949.84161
  20725348.9404    -373045.76947   -290685.18062
 91  4 23 20  5 44.9990000  0  4G18G 2G11G19
  20626155.519      614221.711 8    478612.11222
  23184892.253    -2483895.229 6  -1935496.37221
  23344703.1754   -1677943.37446  -1307481.81261
  20723974.6284    -380284.89747   -296326.06262
 91  4 23 20  5 59.9990000  0  4G18G 2G11G19
  20629054.081      629453.729 8    490481.17122
  23175235.4254   -2534644.09946  -1975040.82761
  23338486.4094   -1710611.00946  -1332936.99961
  20722600.1834    -387495.36447   -301944.61062
 91  4 23 20  6 14.9990000  0  4G18G 2G11G19
  20631971.573      644781.917 8    502425.16822
  23165583.769    -2585352.176 6  -2014553.48521
  23332287.9254   -1743182.11446  -1358316.96161
  20721236.5584    -394679.61947   -307542.73262
 91  4 23 20  6 29.9990000  0  4G18G 2G11G19
  20634906.956      660211.197 8    514447.93222
  23155944.370    -2636014.343 6  -2054030.36221
  23326110.925    -1775651.513 6  -1383617.66921
  20719873.4404    -401832.69347   -313116.55562
 91  4 23 20  6 44.9990000  0  4G18G 2G11G19
  20637861.651      675734.871 8    526544.25523
  23146310.1204   -2686636.66146  -2093476.19061
  23319949.105    -1808024.911 6  -1408843.58021
  20718517.1364    -408960.64047   -318670.80362
 91  4 23 20  6 59.9990000  0  4G18G 2G11G19
  20640833.409      691351.790 8    538713.23722
  23136685.1204   -2737220.58846  -2132892.11361
  23313806.7454   -1840303.54046  -1433995.63761
  20717163.6124    -416065.07147   -324206.71762
 91  4 23 20  7 14.9990000  0  4G18G 2G11G19
  20643824.112      707068.138 8    550959.69923
  23127070.105    -2787759.581 6  -2172273.00921
  23307682.589    -1872480.896 6  -1459068.78121
  20715820.1124    -423139.76347   -329719.46762
 91  4 23 20  7 29.9990000  0  4G18G 2G11G19
  20646831.190      722880.174 7    563280.71323
  23117463.183    -2838257.111 6  -2211621.59921
  23301578.675    -1904560.297 6  -1484065.58821
  20714477.2694    -430188.28647   -335211.82162
 91  4 23 20  7 44.9990000  0  4G18G 2G11G19
  20649860.355      738785.754 8    575674.62323
  23107858.355    -2888715.025 6  -2250939.30821
  23295492.9644   -1936543.26046  -1508987.25661
  20713140.7614    -437212.51647   -340685.24262
 91  4 23 20  7 59.9990000  0  4G18G 2G11G19
  20652905.620      754792.005 8    588146.97323
  23098266.4334   -2939126.24146  -2290220.64661
  23289427.370    -1968422.454 6  -1533828.06321
  20711808.4174    -444205.37747   -346134.22562
 91  4 23 20  8 14.9990000  0  4G18G 2G11G19
  20655969.034      770897.398 8    600696.57623
  23088679.659    -2989492.001 6  -2329466.57021
  23283379.9724   -2000199.07946  -1558588.94861
  20710484.8004    -451168.33647   -351559.90762
 91  4 23 20  8 29.9990000  0  4G18G 2G11G19
  20659055.214      787105.565 8    613326.27023
  23079102.120    -3039808.203 6  -2368673.86621
  23277352.7844   -2031869.01946  -1583266.69361
  20709164.2844    -458097.66947   -356959.38562
 91  4 23 20  8 44.9990000  0  4G18G 2G11G19
  20662157.511      803411.914 8    626032.46123
  23069539.901    -3090079.332 6  -2407846.04421
  23271345.839    -2063436.496 6  -1607864.62121
  20707853.1674    -464997.87947   -362336.17362
 91  4 23 20  8 59.9990000  0  4G18G 2G11G19
  20665279.573      819814.097 8    638813.33023
  23059979.2694   -3140307.59746  -2446984.81661
  23265358.9804   -2094903.43346  -1632384.19561
  20706546.4954    -471871.41747   -367692.17462
 91  4 23 20  9 14.9990000  0  4G18G 2G11G19
  20668418.964      836314.472 8    651670.71123
  23050429.245    -3190490.635 6  -2486088.35121
  23259390.6984   -2126267.19946  -1656823.37561
  20705244.0974    -478715.92147   -373025.55062
 91  4 23 20  9 29.9990000  0  4G18G 2G11G19
  20671577.651      852914.258 8    664605.55723
  23040891.511    -3240626.705 6  -2525155.28121
  23253439.3704   -2157525.96846  -1681180.74661
  20703946.0194    -485529.92647   -378335.16762
 91  4 23 20  9 44.9990000  0  4G18G 2G11G19
  20674756.964      869621.137 8    677623.85523
  23031361.3314   -3290707.92846  -2564179.48661
  23247515.722    -2188671.854 6  -1705450.15521
  20702657.3154    -492305.90647   -383615.14962
 91  4 23 20  9 59.9990000  0  4G18G 2G11G19
  20677955.1364     886424.82248    690717.57563
  23021841.519    -3340744.622 6  -2603168.98621
  23241608.558    -2219714.844 6  -1729639.38521
  20701372.8554    -499053.91847   -388873.34462
 91  4 23 20 10 14.9990000  0  4G18G 2G11G19
  20681169.386      903324.108 8    703885.79923
  23012324.0344   -3390737.69946  -2642124.49461
  23235719.2534   -2250655.84046  -1753749.14861
  20700092.3474    -505775.04347   -394110.58562
 91  4 23 20 10 29.9990000  0  4G18G 2G11G19
  20684404.136      920319.135 8    717128.62223
  23002819.206    -3440686.730 6  -2681045.69621
  23229851.1284   -2281494.19846  -1777778.91661
  20698820.1124    -512469.03547   -399326.67862
 91  4 23 20 10 44.9990000  0  4G18G 2G11G19
  20687659.2304     937415.69648    730450.55963
  22993323.9254   -3490585.52846  -2719927.74761
  23224002.511    -2312223.744 6  -1801723.91421
  20697552.9404    -519129.97447   -404517.02162
 91  4 23 20 10 59.9990000  0  4G18G 2G11G19
  20690929.550      954608.514 8    743847.50423
  22983837.9094   -3540439.20446  -2758774.64261
  23218174.1754   -2342849.21846  -1825587.81661
  20696290.5584    -525763.09447   -409685.68962
 91  4 23 20 11 14.9990000  0  5G18G 2G11G16G19
  20694220.745      971895.091 8    757317.51223
  22974357.042    -3590250.121 6  -2797588.20321
  23212365.308    -2373372.788 6  -1849372.31221
  24090883.073      -33796.516 5
  20695034.4954    -532371.00247   -414834.71062
 91  4 23 20 11 29.9990000  0  5G18G 2G11G16G19
  20697526.870      989275.166 8    770860.37223
  22964886.894    -3640018.549 6  -2836368.64921
  23206577.433    -2403794.402 6  -1873077.36221
  24084471.737      -67490.884 5
  20693779.3704    -538954.10447   -419964.40462
 91  4 23 20 11 44.9990000  0  5G18G 2G11G16G19
  20700853.5814    1006752.69248    784479.17063
  22955425.198    -3689740.035 6  -2875112.53021
  23200809.0584   -2434109.54246  -1896699.44561
  24078080.2534    -101079.26545
  20692533.5734    -545507.95347   -425071.30362
 91  4 23 20 11 59.9990000  0  5G18G 2G11G16G19
  20704197.7454    1024328.18248    798174.29763
  22945971.7614   -3739414.09546  -2913819.46561
  23195060.6514   -2464317.45546  -1920237.98461
  24071705.4724    -134560.82945
  20691292.9404    -552032.08247   -430155.04462
 91  4 23 20 12 14.9990000  0  5G18G 2G11G16G19
  20707562.5424    1042009.78948    811952.11763
  22936530.9094   -3789032.28946  -2952482.86461
  23189332.1444   -2494409.75146  -1943686.43161
  24065358.581     -167927.215 5        -0.13331
  20690057.3864    -558518.28147   -435209.23062
 91  4 23 20 12 29.9990000  0  5G18G 2G11G16G19
  20710947.3394    1059795.77848    825811.26663
  22927099.5264   -3838595.88846  -2991103.71761
  23183628.347    -2524387.557 6  -1967045.65321
  24059028.5424    -201179.78345    -25911.25561
  20688829.8864    -564967.98647   -440234.98162
 91  4 23 20 12 44.9990000  0  5G18G 2G11G16G19
  20714350.128     1077682.344 8    839748.79723
  22917680.019    -3888108.435 6  -3029684.79621
  23177941.511    -2554254.284 6  -1990318.33821
  24052728.5114    -234321.91745    -51736.30061
  20687609.2454    -571385.03047   -445235.28262
 91  4 23 20 12 59.9990000  0  5G18G 2G11G16G19
  20717772.5034    1095667.35148    853763.02663
  22908264.417    -3937572.012 6  -3068227.70721
  23172279.9014   -2584011.75446  -2013505.87461
  24046441.8554    -267355.59245    -77476.82661
  20686395.5734    -577771.41847   -450211.69562
 91  4 23 20 13 14.9990000  0  5G18G 2G11G16G19
  20721212.6674    1113750.56348    867853.78363
  22898860.8554   -3986986.75846  -3106732.57661
  23166642.300    -2613659.812 6  -2036608.15721
  24040173.862     -300280.857 5   -103132.88421
  20685184.2924    -584127.31447   -455164.34762
 91  4 23 20 13 29.9990000  0  5G18G 2G11G16G19
  20724673.987     1131931.903 8    882021.00623
  22889466.1284   -4036352.64046  -3145199.37561
  23161018.120    -2643198.315 6  -2059625.06621
  24033929.1594    -333097.69245   -128704.45561
  20683981.0344    -590452.87247   -460093.36362
 91  4 23 20 13 44.9990000  0  5G18G 2G11G16G19
  20728152.9174    1150210.37048    896263.90963
  22880082.159    -4085670.279 6  -3183628.59321
  23155417.6124   -2672627.77846  -2082557.02161
  24027703.183     -365807.009 5   -154192.24621
  20682783.0504    -596748.99147   -464999.43462
 91  4 23 20 13 59.9990000  0  5G18G 2G11G16G19
  20731649.644     1168585.172 8    910581.87823
  22870705.3234   -4134940.06646  -3222020.50961
  23149839.9174   -2701948.61746  -2105404.34561
  24021497.894     -398409.020 5   -179596.40121
  20681590.2064    -603016.16447   -469882.95662
 91  4 23 20 14 14.9990000  0  5G18G 2G11G16G19
  20735164.784     1187057.449 8    924975.80923
  22861340.1514   -4184160.47946  -3260373.94661
  23144281.2764   -2731159.18746  -2128165.73061
  24015315.8154    -430902.12645   -204915.70761
  20680402.6904    -609253.16147   -474742.96162
 91  4 23 20 14 29.9990000  0  5G18G 2G11G16G19
  20738698.995     1205633.756 8    939450.79723
  22851985.1674   -4233324.94946  -3298683.80261
  23138744.4644   -2760252.70646  -2150835.90461
  24009154.183     -463279.684 5   -230145.00121
  20679225.0814    -615453.60947   -479574.48462
 91  4 23 20 14 44.9990000  0  5G18G 2G11G16G19
  20742252.901     1224311.859 8    954005.10723
  22842637.7614   -4282435.68446  -3336951.78161
  23133228.894    -2789231.053 6  -2173416.34821
  24003015.9254    -495543.71845   -255285.82461
  20678050.7454    -621619.42547   -484379.02262
 91  4 23 20 14 59.9990000  0  5G18G 2G11G16G19
  20745825.2454    1243087.64548    968635.52963
  22833300.628    -4331496.723 6  -3375181.04421
  23127736.3784   -2818097.92046  -2195909.91361
  23996896.753     -527698.207 5   -280341.25521
  20676882.9014    -627754.63847   -489159.72162
 91  4 23 20 15 14.9990000  0  5G18G 2G11G16G19
  20749418.394     1261961.497 8    983342.37323
  22823974.2374   -4380507.04946  -3413370.79261
  23122264.7534   -2846852.41646  -2218315.91461
  23990799.5894    -559742.22345   -305310.63861
  20675721.8154    -633858.57747   -493916.04262
 91  4 23 20 15 29.9990000  0  5G18G 2G11G16G19
  20753028.0344    1280932.17248    998124.66163
  22814658.2534   -4429467.79346  -3451521.89561
  23116813.7374   -2875495.59046  -2240635.18461
  23984719.7224    -591676.96745   -330194.86461
  20674563.5894    -639932.71447   -498649.14462
 91  4 23 20 15 44.9990000  0  5G18G 2G11G16G19
  20756657.7374    1300009.34447   1012989.92763
  22805353.6364   -4478369.16846  -3489626.74461
  23111386.6054   -2904017.31546  -2262859.80861
  23978668.7144    -623492.41945   -354986.11861
  20673416.0814    -645967.21347   -503351.35862
 91  4 23 20 15 59.9990000  0  5G18G 2G11G16G19
  20760307.3864    1319186.88947   1027933.41063
  22796059.175    -4527216.992 6  -3527689.87521
  23105981.7144   -2932423.25246  -2284994.20961
  23972636.917     -655194.399 5   -379688.96021
  20672274.1204    -651967.87347   -508027.20562
 91  4 23 20 16 14.9990000  0  5G18G 2G11G16G19
  20763975.1904    1338463.89947   1042954.39863
  22786771.511    -4576012.022 6  -3565711.86521
  23100593.7064   -2960714.06946  -2307038.91361
  23966622.0734    -686783.49145   -404303.83561
  20671140.4334    -657935.54747   -512677.35262
 91  4 23 20 16 29.9990000  0  5G18G 2G11G16G19
  20767662.5344    1357833.33248   1058047.40363
  22777495.956    -4624761.014 6  -3603697.98521
  23095234.5584   -2988896.36446  -2328999.05761
  23960631.394     -718266.586 5   -428836.13221
  20670010.5894    -663877.31547   -517307.30162
 91  4 23 20 16 44.9990000  0  5G18G 2G11G16G19
  20771366.7374    1377300.91247   1073216.89063
  22768230.128    -4673457.915 6  -3641643.51521
  23089893.9404   -3016963.91346  -2350869.78661
  23954665.8394    -749637.46045   -453280.96761
  20668882.3784    -669787.30747   -521912.49362
 91  4 23 20 16 59.9990000  0  5G18G 2G11G16G19
  20775088.8004    1396865.21147   1088461.73763
  22758971.355    -4722104.046 6  -3679549.47921
  23084574.190    -3044917.920 6  -2372652.03021
  23948713.894     -780897.832 5   -477639.67121
  20667761.7454    -675666.95347   -526494.04162
 91  4 23 20 17 14.9990000  0  5G18G 2G11G16G19
  20778832.2534    1416533.07847   1103787.29263
  22749723.6284   -4770692.27746  -3717410.32161
  23079277.6514   -3072751.14446  -2394340.16261
  23942786.3314    -812040.34745   -501906.59061
  20666654.1594    -681509.25047   -531046.48762
 91  4 23 20 17 29.9990000  0  5G18G 2G11G16G19
  20782594.2924    1436303.79348   1119192.98063
  22740487.628    -4819223.094 6  -3755226.42721
  23074002.8004   -3100463.80346  -2415934.34861
  23936885.6284    -843065.20845   -526081.80061
  20665547.7454    -687314.55147   -535570.09862
 91  4 23 20 17 44.9990000  0  5G18G 2G11G16G19
  20786375.3554    1456170.31848   1134673.33063
  22731264.386    -4867703.332 6  -3793003.12621
  23068749.8704   -3128062.66646  -2437439.87561
  23931002.605     -873979.431 5   -550170.82021
  20664449.7534    -693090.04347   -540070.48562
 91  4 23 20 17 59.9990000  0  5G18G 2G11G16G19
  20790174.847     1476139.385 8   1150233.58423
  22722050.3394   -4916125.89846  -3830734.87561
  23063521.855    -3155540.407 6  -2458851.01621
  23925144.644     -904775.825 5   -574167.99721
  20663354.9564    -698828.60247   -544542.08862
 91  4 23 20 18 14.9990000  0  5G18G 2G11G16G19
  20793994.4254    1496210.45148   1165873.31363
  22712847.073    -4964491.472 6  -3868422.22021
  23058315.0974   -3182897.66046  -2480168.26161
  23919303.269     -935455.183 5   -598073.98421
  20662272.8554    -704530.98747   -548985.51062
 91  4 23 20 18 29.9990000  0  5G18G 2G11G16G19
  20797833.8474    1516382.55648   1181591.77663
  22703653.136    -5012800.342 6  -3906065.40021
  23053130.222    -3210134.541 6  -2501391.73621
  23913490.4724    -966017.71645   -621888.99061
  20661191.0504    -710197.76047   -553401.18262
 91  4 23 20 18 44.9990000  0  5G18G 2G11G16G19
  20801689.3554    1536642.81648   1197378.92963
  22694470.784    -5061065.191 6  -3943674.26721
  23047971.933    -3237263.718 6  -2522531.28021
  23907691.214     -996476.106 5   -645622.78921
  20660120.7454    -715841.70447   -557799.06162
 91  4 23 20 18 59.9990000  0  5G18G 2G11G16G19
  20805563.6594    1557001.52748   1213242.80063
  22685295.198    -5109275.614 6  -3981240.72321
  23042829.620    -3264274.858 6  -2543578.84221
  23901916.7534   -1026819.96345   -669267.36161
  20659050.1834    -721452.70547   -562171.27562
 91  4 23 20 19 14.9990000  0  5G18G 2G11G16G19
  20809456.5734    1577460.42848   1229184.74163
  22676132.433    -5157429.790 6  -4018763.35121
  23037713.370    -3291165.683 6  -2564532.65521
  23896163.8554   -1057047.15645   -692820.98461
  20657992.3944    -727028.82647   -566516.30362
 91  4 23 20 19 29.9990000  0  5G18G 2G11G16G19
  20813368.0114    1598015.66048   1245201.74263
  22666978.550    -5205531.226 6  -4056244.87421
  23032618.5264   -3317939.49946  -2585395.29261
  23890437.753    -1087161.325 5   -716286.58621
  20656933.0584    -732573.47347   -570836.81362
 91  4 23 20 19 44.9990000  0  5G18G 2G11G16G19
  20817296.1834    1618670.92648   1261296.68263
  22657834.6594   -5253576.07646  -4093682.30561
  23027544.6904   -3344592.28046  -2606163.61561
  23884724.4254   -1117158.57345   -739661.03861
  20655886.3944    -738083.15947   -575130.08062
 91  4 23 20 19 59.9990000  0  5G18G 2G11G16G19
  20821248.1834    1639428.83648   1277471.61963
  22648703.901    -5301561.501 6  -4131073.43921
  23022499.026    -3371121.106 6  -2626835.35521
  23879039.8394   -1147036.07545   -762942.20161
  20654844.8004    -743555.22347   -579394.02662
 91  4 23 20 20 14.9990000  0  5G18G 2G11G16G19
  20825216.3864    1660281.66348   1293720.51263
  22639581.7224   -5349494.70846  -4168423.87861
  23017476.050    -3397533.136 6  -2647416.07921
  23873377.839    -1176801.018 5   -786135.66621
  20653809.9014    -748997.04247   -583634.41262
 91  4 23 20 20 29.9990000  0  5G18G 2G11G16G19
  20829204.0734    1681231.52148   1310045.01063
  22630470.9334   -5397373.74146  -4205732.09861
  23012467.409    -3423826.159 6  -2667904.07321
  23867735.6284   -1206451.28245   -809239.78461
  20652779.9564    -754406.54847   -587849.61962
 91  4 23 20 20 44.9990000  0  5G18G 2G11G16G19
  20833209.2064    1702280.63048   1326446.85063
  22621371.6124   -5445195.80146  -4242995.93461
  23007488.9254   -3449997.26446  -2688297.08061
  23862113.0584   -1235984.13145   -832252.39661
  20651759.6124    -759781.10347   -592037.58962
 91  4 23 20 20 59.9990000  0  5G18G 2G11G16G19
  20837232.4404    1723426.72548   1342924.26563
  22612279.065    -5492963.053 6  -4280217.06321
  23002532.4484   -3476048.62246  -2708596.76261
  23856518.237    -1265401.727 5   -855175.19421
  20650739.698     -765123.092 7   -596200.18622
 91  4 23 20 21 14.9990000  0  5G18G 2G11G16G19
  20841275.5114    1744669.72348   1359477.18263
  22603202.097    -5540675.462 6  -4317395.44721
  22997599.2144   -3501979.95046  -2728802.92661
  23850940.605    -1294704.100 5   -878008.20921
  20649731.7534    -770432.41747   -600337.32662
 91  4 23 20 21 29.9990000  0  5G18G 2G11G16G19
  20845337.7064    1766011.47748   1376107.05863
  22594134.050    -5588330.851 6  -4354529.40521
  22992684.3474   -3527788.87046  -2748913.69961
  23845387.0344   -1323889.01845   -900749.70761
  20648728.378     -775706.961 7   -604447.36922
 91  4 23 20 21 44.9990000  0  5G18G 2G11G16G19
  20849417.4564    1787452.91648   1392814.60763
  22585075.815    -5635927.903 6  -4391617.90921
  22987796.980    -3553474.045 6  -2768928.04621
  23839856.1834   -1352954.91845   -923398.46061
  20647731.2144    -780945.62347   -608529.45462
 91  4 23 20 21 59.9990000  0  5G18G 2G11G16G19
  20853515.4254    1808989.72148   1409596.47263
  22576027.542    -5683470.723 6  -4428664.14221
  22982933.370    -3579039.499 6  -2788849.11021
  23834343.5194   -1381906.34945   -945958.01861
  20646738.0114    -786152.69447   -612586.91562
 91  4 23 20 22 14.9990000  0  5G18G 2G11G16G19
  20857633.1674    1830630.80948   1426459.58863
  22566992.8154   -5730950.44546  -4465661.23761
  22978092.464    -3604476.251 6  -2808669.87321
  23828858.7374   -1410734.20245   -968421.28261
  20645756.706     -791319.345 7   -616612.89422
 91  4 23 20 22 29.9990000  0  5G18G 2G11G16G19
  20861771.0654    1852367.27848   1443397.02563
  22557968.151    -5778375.515 6  -4502615.72421
  22973272.175    -3629792.549 6  -2828396.78321
  23823393.4724   -1439446.96345   -990794.85461
  20644779.401     -796454.206 7   -620614.09922
 91  4 23 20 22 44.9990000  0  5G18G 2G11G16G19
  20865926.6984    1874204.59648   1460413.05163
  22548954.425    -5825740.001 6  -4539523.00521
  22968480.9874   -3654982.32446  -2848025.11761
  23817954.8004   -1468038.61445  -1013074.07261
  20643810.667     -801551.433 7   -624585.97422
 91  4 23 20 22 59.9990000  0  5G18G 2G11G16G19
  20870099.5974    1896140.92148   1477506.22763
  22539952.823    -5873045.876 6  -4576384.61721
  22963711.065    -3680047.433 6  -2867556.29521
  23812539.3864   -1496511.00545  -1035260.35861
  20642846.206     -806612.888 7   -628529.98122
 91  4 23 20 23 14.9990000  0  5G18G 2G11G16G19
  20874292.0344    1918171.22648   1494672.62963
  22530960.440    -5920298.010 6  -4613204.35021
  22958965.5344   -3704992.41746  -2886993.87761
  23807147.417    -1524869.044 5  -1057357.53521
  20641890.401     -811643.509 7   -632449.95622
 91  4 23 20 23 29.9990000  0  5G18G 2G11G16G19
  20878502.9954    1940294.67748   1511911.60963
  22521980.2924   -5967496.71646  -4649982.46761
  22954237.339    -3729817.541 6  -2906338.06121
  23801767.901    -1553113.016 5  -1079365.86821
  20640937.698     -816643.753 7   -636346.27022
 91  4 23 20 23 44.9990000  0  5G18G 2G11G16G19
  20882731.6754    1962517.61548   1529228.12563
  22513008.347    -6014635.369 6  -4686713.77621
  22949542.065    -3754516.246 6  -2925583.72621
  23796412.331    -1581236.310 5  -1101280.12221
  20639992.839     -821607.200 7   -640213.90822
 91  4 23 20 23 59.9990000  0  6G18G 2G11G16G 6G19
  20886979.730     1984840.897 8   1546622.82023
  22504050.784    -6061713.157 6  -4723397.65421
  22944862.362    -3779087.327 6  -2944729.95421
  23791088.995    -1609238.113 5  -1123099.71021
  24170692.9564     -39947.20144
  20639054.565     -826532.890 7   -644052.12222
 91  4 23 20 24 14.9990000  0  6G18G 2G11G16G 6G19
  20891244.7534    2007259.33748   1564091.66463
  22495101.815    -6108734.957 6  -4760037.91121
  22940212.7844   -3803535.60546  -2963780.48861
  23785781.534    -1637123.416 5  -1144828.50221
  24163088.9404     -79890.00344
  20638126.690     -831425.974 7   -647864.93022
 91  4 23 20 24 29.9990000  0  6G18G 2G11G16G 6G19
  20895530.894     2029778.264 7   1581638.80123
  22486165.6514   -6155694.82746  -4796629.91961
  22935582.011    -3827855.217 6  -2982730.75421
  23780497.8624   -1664886.33945  -1166462.01061
  24155493.2534    -119824.02044
  20637202.0034    -836280.83047   -651647.94562
 91  4 23 20 24 44.9990000  0  6G18G 2G11G16G 6G19
  20899833.8624    2052392.31347   1599260.07363
  22477240.980    -6202598.486 6  -4833178.12321
  22930980.034    -3852051.542 6  -3001584.96021
  23775237.8944   -1692532.21145  -1188004.22161
  24147894.331     -159754.749 4
  20636284.800     -841102.775 7   -655405.31922
 91  4 23 20 24 59.9990000  0  6G18G 2G11G16G 6G19
  20904156.8784    2075107.13047   1616959.86663
  22468327.9404   -6249439.77646  -4869677.73061
  22926398.206    -3876118.406 6  -3020338.28321
  23769999.128    -1720054.831 5  -1209450.41921
  24140294.3554    -199676.50744        -0.31371
  20635370.190     -845885.917 7   -659132.46222
 91  4 23 20 25 14.9990000  0  6G18G 2G11G16G 6G19
  20908498.4014    2097922.16347   1634737.74763
  22459425.128    -6296219.037 6  -4906129.00021
  22921843.401    -3900056.001 6  -3038990.87621
  23764785.495    -1747454.662 5  -1230800.93921
  24132705.2694    -239589.83944    -31101.53661
  20634471.120     -850630.809 7   -662829.79622
 91  4 23 20 25 29.9990000  0  6G18G 2G11G16G 6G19
  20912856.519     2120828.067 7   1652586.42523
  22450534.097    -6342945.345 6  -4942539.01021
  22917312.503    -3923873.292 6  -3057549.73221
  23759593.1834   -1774740.89745  -1252062.97661
  24125102.636     -279503.771 4    -62203.22121
  20633575.284     -855346.503 7   -666504.38122
 91  4 23 20 25 44.9990000  0  6G18G 2G11G16G 6G19
  20917235.2614    2143828.62047   1670508.86663
  22441653.144    -6389614.783 6  -4978904.70721
  22912804.987    -3947566.170 6  -3076011.63521
  23754423.3554   -1801909.59145  -1273233.39261
  24117512.159     -319414.795 5    -93302.63921
  20632682.925     -860029.121 7   -670153.18922
 91  4 23 20 25 59.9990000  0  6G18G 2G11G16G 6G19
  20921629.940     2166933.517 7   1688512.61023
  22432784.3554   -6436217.03246  -5015218.04661
  22908319.878    -3971124.351 6  -3094368.59621
  23749275.4334   -1828950.79345  -1294304.43561
  24109916.8474    -359312.66944   -124391.80861
  20631796.417     -864668.516 7   -673768.30822
 91  4 23 20 26 14.9990000  0  6G18G 2G11G16G 6G19
  20926044.909     2190136.279 7   1706592.61323
  22423926.956    -6482758.628 6  -5051484.12121
  22903861.2694   -3994554.19446  -3112625.53761
  23744155.331    -1855870.468 5  -1315280.88821
  24102328.495     -399204.092 5   -155475.92421
  20630923.245     -869271.292 7   -677354.90422
 91  4 23 20 26 29.9990000  0  6G18G 2G11G16G 6G19
  20930477.3394    2213433.70947   1724746.38263
  22415082.8944   -6529242.49746  -5087705.21861
  22899426.815    -4017858.532 6  -3130784.69521
  23739055.073    -1882671.591 5  -1336164.84621
  24094736.5194    -439092.19044   -186557.47161
  20630052.620     -873840.745 7   -680915.53022
 91  4 23 20 26 44.9990000  0  6G18G 2G11G16G 6G19
  20934930.9644    2236830.29347   1742977.42163
  22406248.3004   -6575663.93546  -5123877.66361
  22895019.097    -4041032.514 6  -3148842.27021
  23733978.5424   -1909349.87445  -1356953.13861
  24087147.386     -478972.419 4   -217632.88421
  20629192.2374    -878372.03347   -684446.41262
 91  4 23 20 26 59.9990000  0  6G18G 2G11G16G 6G19
  20939403.331     2260323.897 8   1761284.05423
  22397425.9254   -6622024.93946  -5160003.02161
  22890630.487    -4064077.960 6  -3166799.68821
  23728921.9874   -1935906.95145  -1377646.96261
  24079559.964     -518846.899 4   -248703.80521
  20628336.198     -882867.306 7   -687949.23622
 91  4 23 20 27 14.9990000  0  6G18G 2G11G16G 6G19
  20943892.300     2283919.280 7   1779669.99223
  22388617.269    -6668320.319 6  -5196077.24321
  22886270.1364   -4086989.46746  -3184652.74661
  23723895.4014   -1962337.50545  -1398242.25861
  24071972.597     -558710.559 4   -279766.31121
  20627490.4804    -887321.28847   -691419.87462
 91  4 23 20 27 29.9990000  0  6G18G 2G11G16G 6G19
  20948399.2844    2307602.22647   1798124.16263
  22379816.9014   -6714563.92546  -5232111.12161
  22881932.6444   -4109780.81646  -3202412.15861
  23718883.1754   -1988655.61245  -1418749.88561
  24064388.3004    -598577.54045   -310831.41561
  20626647.370     -891747.990 7   -694869.26322
 91  4 23 20 27 44.9990000  0  6G18G 2G11G16G 6G19
  20952924.0814    2331378.67547   1816651.20263
  22371026.730    -6760749.769 6  -5268099.99021
  22877622.011    -4132446.045 6  -3220073.30921
  23713899.7454   -2014855.26645  -1439165.20261
  24056798.362     -638441.894 4   -341894.43721
  20625809.1284    -896141.55547   -698292.83262
 91  4 23 20 27 59.9990000  0  6G18G 2G11G16G 6G19
  20957467.144     2355256.223 7   1835257.00923
  22362248.855    -6806870.090 6  -5304037.79921
  22873331.7064   -4154977.23946  -3237630.01361
  23708938.3704   -2040928.85445  -1459482.29161
  24049216.714     -678296.166 4   -372949.61221
  20624979.7614    -900494.28847   -701684.57462
 91  4 23 20 28 14.9990000  0  6G18G 2G11G16G 6G19
  20962030.2844    2379226.17848   1853934.82263
  22353484.151    -6852933.053 6  -5339930.91221
  22869070.6514   -4177382.58746  -3255088.66161
  23703998.9804   -2066884.53745  -1479707.51761
  24041635.159     -718148.705 4   -404003.41021
  20624161.1444    -904814.54047   -705051.01462
 91  4 23 20 28 29.9990000  0  6G18G 2G11G16G 6G19
  20966608.6904    2403292.10748   1872687.42663
  22344730.7694   -6898934.98746  -5375776.48161
  22864832.0034   -4199658.20246  -3272446.22361
  23699082.222    -2092718.206 5  -1499837.66121
  24034051.417     -757995.956 4   -435053.11721
  20623344.7144    -909098.51747   -708389.19062
 91  4 23 20 28 44.9990000  0  6G18G 2G11G16G 6G19
  20971207.8554    2427458.53748   1891518.34763
  22335988.925    -6944871.074 6  -5411570.73421
  22860616.089    -4221799.228 6  -3289698.89121
  23694191.511    -2118425.617 5  -1519869.41821
  24026468.9874    -797833.28944   -466095.06761
  20622540.0344    -913341.75147   -711695.60762
 91  4 23 20 28 59.9990000  0  6G18G 2G11G16G 6G19
  20975823.651     2451715.851 8   1910420.07823
  22327258.581    -6990750.963 6  -5447321.19321
  22856429.6124   -4243815.05446  -3306854.02261
  23689326.5654   -2144015.92445  -1539809.93961
  24018888.698     -837670.413 4   -497136.86621
  20621736.995     -917553.809 7   -714977.74522
 91  4 23 20 29 14.9990000  0  6G18G 2G11G16G 6G19
  20980458.8004    2476070.09248   1929397.33763
  22318539.9954   -7036568.03646  -5483022.71661
  22852264.2374   -4265699.05846  -3323906.42461
  23684475.3474   -2169482.86345  -1559654.33661
  24011310.495     -877500.909 4   -528173.50821
  20620942.4174    -921728.02747   -718230.39262
 91  4 23 20 29 29.9990000  0  6G18G 2G11G16G 6G19
  20985110.4954    2500519.36548   1948448.64963
  22309831.690    -7082324.063 6  -5518676.66021
  22848123.1364   -4287452.91546  -3340857.41861
  23679652.7764   -2194827.80245  -1579403.68961
  24003729.112     -917326.794 4   -559206.55021
  20620150.7534    -925866.26547   -721454.99262
 91  4 23 20 29 44.9990000  0  6G18G 2G11G16G 6G19
  20989780.5504    2525065.04148   1967575.08163
  22301138.3154   -7128017.32346  -5554281.69961
  22844009.7694   -4309074.68046  -3357705.48761
  23674854.4484   -2220049.17245  -1599056.72061
  23996156.4804    -957146.39744   -590234.68561
  20619373.3864    -929966.82347   -724650.24262
 91  4 23 20 29 59.9990000  0  6G18G 2G11G16G 6G19
  20994470.612     2549700.595 8   1986771.53623
  22292454.2144   -7173654.20446  -5589842.80961
  22839917.8704   -4330570.55846  -3374455.46961
  23670075.7764   -2245153.37045  -1618618.42261
  23988573.1904    -996966.03744   -621262.87261
  20618598.136     -934036.112 7   -727821.12822
 91  4 23 20 30 14.9990000  0  6G18G 2G11G16G 6G19
  20999176.2534    2574436.96148   2006046.56163
  22283781.292    -7219223.517 6  -5625351.27021
  22835853.6054   -4351929.45046  -3391098.69961
  23665322.886    -2270129.521 5  -1638080.39721
  23981000.6594   -1036775.12044   -652282.78961
  20617833.120     -938063.249 7   -730959.16722
 91  4 23 20 30 29.9990000  0  6G18G 2G11G16G 6G19
  21003901.190     2599266.393 8   2025394.09622
  22275120.956    -7264732.956 6  -5660813.06121
  22831812.0734   -4373158.82946  -3407641.01561
  23660593.7454   -2294985.53144  -1657448.73261
  23973425.3394   -1076581.23944   -683300.43561
  20617071.4804    -942055.81947   -734070.26962
 91  4 23 20 30 44.9990000  0  6G18G 2G11G16G 6G19
  21008645.315     2624194.969 8   2044818.88423
  22266474.3004   -7310175.95646  -5696223.10461
  22827802.269    -4394252.128 6  -3424077.29221
  23655884.995    -2319714.380 5  -1676717.98721
  23965851.847    -1116378.016 4   -714310.77621
  20616322.2144    -946007.36447   -737149.40262
 91  4 23 20 30 59.9990000  0  6G18G 2G11G16G 6G19
  21013408.159     2649220.574 7   2064319.28422
  22257838.7534   -7355554.42546  -5731582.85261
  22823811.9404   -4415211.09246  -3440408.89961
  23651208.7534   -2344317.92145  -1695889.58561
  23958282.0504   -1156167.68644   -745315.60961
  20615576.526     -949919.964 7   -740198.20322
 91  4 23 20 31 14.9990000  0  6G18G 2G11G16G 6G19
  21018189.808     2674341.825 8   2083894.20723
  22249215.9644   -7400869.41246  -5766893.13861
  22819847.878    -4436036.677 6  -3456636.56521
  23646545.8234   -2368797.38844  -1714964.52861
  23950709.620    -1195951.336 4   -776315.71021
  20614839.5584    -953794.70147   -743217.48062
 91  4 23 20 31 29.9990000  0  6G18G 2G11G16G 6G19
  21022987.831     2699558.696 7   2103543.64323
  22240604.8314   -7446120.76646  -5802153.84061
  22815910.5584   -4456728.55746  -3472760.05161
  23641915.9334   -2393152.66545  -1733942.67961
  23943143.8554   -1235728.94344   -807311.13161
  20614107.565     -957631.512 7   -746207.21422
 91  4 23 20 31 44.9990000  0  6G18G 2G11G16G 6G19
  21027803.370     2724864.917 8   2123262.69523
  22232004.4334   -7491314.46646  -5837369.61861
  22811996.5344   -4477292.64946  -3488783.95561
  23637298.995    -2417389.693 4  -1752828.70021
  23935568.214    -1275506.719 4   -838306.64421
  20613384.480     -961436.322 7   -749172.01622
 91  4 23 20 31 59.9990000  0  6G18G 2G11G16G 6G19
  21032636.948     2750266.885 7   2143056.35623
  22223415.9254   -7536444.20646  -5872535.55861
  22808111.7454   -4497722.56046  -3504703.30861
  23632713.495    -2441502.064 4  -1771617.55621
  23928000.151    -1315278.444 4   -869297.49321
  20612665.2694    -965202.86947   -752106.99262
 91  4 23 20 32 14.9990000  0  6G18G 2G11G16G 6G19
  21037489.276     2775766.308 7   2162925.96123
  22214840.3704   -7581507.55346  -5907649.76861
  22804247.0264   -4518015.87246  -3520516.21361
  23628150.8944   -2465487.37344  -1790307.43661
  23920432.0654   -1355041.71044   -900281.74861
  20611960.183     -968928.977 7   -755010.46822
 91  4 23 20 32 29.9990000  0  6G18G 2G11G16G 6G19
  21042360.847     2801362.795 7   2182871.19222
  22206278.144    -7626504.825 6  -5942712.47721
  22800413.1754   -4538172.79246  -3536222.84261
  23623603.8394   -2489346.14644  -1808898.68461
  23912871.5584   -1394797.33945   -931260.01461
  20611256.2304    -972614.96247   -757882.67262
 91  4 23 20 32 44.9990000  0  6G18G 2G11G16G 6G19
  21047249.862     2827054.905 7   2202890.93223
  22197728.4254   -7671437.04446  -5977724.50361
  22796603.9724   -4558194.19446  -3551823.88361
  23619087.761    -2513079.240 4  -1827392.02221
  23905302.628    -1434546.437 5   -962233.21121
  20610563.3944    -976261.95647   -760724.49062
 91  4 23 20 32 59.9990000  0  6G18G 2G11G16G 6G19
  21052158.7534    2852849.09447   2222990.21163
  22189190.3624   -7716297.58346  -6012680.68361
  22792818.6904   -4578073.36346  -3567314.08361
  23614602.7374   -2536680.14145  -1845782.33961
  23897746.5034   -1474282.35145   -993196.11661
  20609875.847     -979863.262 7   -763530.71322
 91  4 23 20 33 14.9990000  0  6G18G 2G11G16G 6G19
  21057083.355     2878735.250 7   2243161.15823
  22180664.5194   -7761096.64346  -6047588.94661
  22789059.9484   -4597820.31246  -3582701.25661
  23610131.339    -2560158.997 4  -1864077.55421
  23890184.284    -1514015.268 5  -1024156.72221
  20609200.9094    -983429.08347   -766309.27962
 91  4 23 20 33 29.9990000  0  6G18G 2G11G16G 6G19
  21062029.112     2904718.191 7   2263407.52523
  22172153.7064   -7805829.01246  -6082445.25661
  22785332.0654   -4617429.88146  -3597981.38461
  23605689.612    -2583510.452 5  -1882273.49821
  23882622.5734   -1553740.43945  -1055111.29261
  20608530.6204    -986954.25447   -769056.17162
 91  4 23 20 33 44.9990000  0  6G18G 2G11G16G 6G19
  21066990.8784    2930796.95447   2283728.55363
  22163653.1124   -7850495.19646  -6117249.98461
  22781626.558    -4636902.473 6  -3613154.77921
  23601270.2614   -2606735.41345  -1900370.91061
  23875064.222    -1593458.545 5  -1086060.35021
  20607865.6754    -990439.55247   -771771.99962
 91  4 23 20 33 59.9990000  0  6G18G 2G11G16G 6G19
  21071972.5264    2956973.20947   2304125.54763
  22155164.831    -7895093.268 6  -6152001.64721
  22777945.1674   -4656236.10946  -3628219.88961
  23596875.9564   -2629831.97245  -1918368.21961
  23867509.8154   -1633167.78445  -1117002.47761
  20607212.0344    -993883.10647   -774455.28862
 91  4 23 20 34 14.9990000  0  6G18G 2G11G16G 6G19
  21076971.925     2983242.833 7   2324595.29623
  22146690.0264   -7939627.20746  -6186703.33661
  22774294.1594   -4675434.60946  -3643179.70061
  23592503.526    -2652803.794 5  -1936268.33621
  23859955.5264   -1672872.13345  -1147940.82161
  20606564.3624    -997288.72647   -777109.02762
 91  4 23 20 34 29.9990000  0  6G18G 2G11G16G 6G19
  21081988.9174    3009604.75347   2345136.96563
  22138228.058    -7984097.907 6  -6221355.74021
  22770666.065    -4694498.786 6  -3658034.84421
  23588152.581    -2675651.915 5  -1954072.10021
  23852400.3084   -1712572.64045  -1178876.16761
  20605918.8864   -1000657.57947   -779734.11362
 91  4 23 20 34 44.9990000  0  6G18G 2G11G16G 6G19
  21087021.1054    3036057.51647   2365749.42162
  22129778.8864   -8028506.46646  -6255959.72261
  22767060.6444   -4713429.69646  -3672786.13761
  23583833.5734   -2698377.57545  -1971780.41461
  23844846.175    -1752270.720 5  -1209809.61821
  20605287.3704   -1003990.74147   -782331.38262
 91  4 23 20 34 59.9990000  0  6G18G 2G11G16G 6G19
  21092073.292     3062600.997 7   2386432.56723
  22121339.9484   -8072852.60246  -6290515.05461
  22763485.7064   -4732226.92946  -3687433.27861
  23579527.8084   -2720980.41845  -1989393.01561
  23837293.6594   -1791966.15345  -1240740.99161
  20604657.6204   -1007288.09347   -784900.76262
 91  4 23 20 35 14.9990000  0  6G18G 2G11G16G 6G19
  21097142.1754    3089240.01347   2407190.15463
  22112911.7374   -8117131.23346  -6325017.79961
  22759936.425    -4750885.381 6  -3701972.27821
  23575253.5734   -2743455.64845  -2006906.20761
  23829741.987    -1831654.141 5  -1271666.62321
  20604041.3704   -1010544.70647   -787438.38362
 91  4 23 20 35 29.9990000  0  6G18G 2G11G16G 6G19
  21102228.1204    3115974.47747   2428022.11163
  22104499.948    -8161342.562 6  -6359468.10321
  22756409.7304   -4769405.05146  -3716403.12061
  23570999.7694   -2765803.04545  -2024319.78961
  23822189.901    -1871334.800 5  -1302586.45021
  20603428.175    -1013760.566 7   -789944.26122
 91  4 23 20 35 44.9990000  0  6G18G 2G11G16G 6G19
  21107334.2694    3142805.53347   2448929.33663
  22096098.7224   -8205485.04346  -6393864.74861
  22752907.8004   -4787784.34346  -3730724.59161
  23566769.6834   -2788021.32645  -2041632.75061
  23814640.245    -1911006.674 5  -1333499.50421
  20602825.4404   -1016934.24147   -792417.26062
 91  4 23 20 35 59.9990000  0  6G18G 2G11G16G 6G19
  21112459.6904    3169729.08047   2469908.63162
  22087710.862    -8249562.502 6  -6428210.74421
  22749444.565    -4806027.023 6  -3744939.61521
  23562568.5424   -2810114.53645  -2058848.27561
  23807090.5344   -1950673.91645  -1364408.94761
  20602226.1754   -1020069.55247   -794860.36662
 91  4 23 20 36 14.9990000  0  6G18G 2G11G16G 6G19
  21117598.5114    3196744.13747   2490959.23662
  22079337.409    -8293575.561 6  -6462506.55121
  22745999.230    -4824133.739 6  -3759048.68621
  23558390.7374   -2832083.02045  -2075966.58861
  23799542.245    -1990337.287 5  -1395315.37221
  20601639.745    -1023167.168 7   -797274.10522
 91  4 23 20 36 29.9990000  0  6G18G 2G11G16G 6G19
  21122758.8004    3223853.53747   2512083.35262
  22070974.901    -8337521.155 6  -6496749.79121
  22742578.1984   -4842101.14646  -3773049.20361
  23554232.1444   -2853923.95345  -2092985.52061
  23791992.9484   -2029993.69445  -1426216.33361
  20601053.4644   -1026224.02747   -799656.08562
 91  4 23 20 36 44.9990000  0  6G18G 2G11G16G 6G19
  21127934.7534    3251056.24647   2533280.17962
  22062624.7304   -8381400.23446  -6530941.19161
  22739179.8864   -4859930.21246  -3786941.92161
  23550099.722    -2875638.268 5  -2109905.75621
  23784446.9874   -2069644.49145  -1457112.96961
  20600483.6444   -1029241.15547   -802007.10262
 91  4 23 20 36 59.9990000  0  6G18G 2G11G16G 6G19
  21133127.964     3278347.216 7   2554545.78522
  22054287.651    -8425217.523 6  -6565084.45521
  22735817.581    -4877625.641 6  -3800730.51021
  23545988.565    -2897230.523 5  -2126730.92521
  23776907.862    -2109294.296 5  -1488008.79121
  20599917.370    -1032223.407 7   -804330.94322
 91  4 23 20 37 14.9990000  0  6G18G 2G11G16G 6G19
  21138339.6204    3305730.15947   2575883.05462
  22045959.456    -8468968.966 6  -6599176.40121
  22732478.5654   -4895183.20646  -3814411.67561
  23541903.7694   -2918696.59045  -2143457.75261
  23769358.948    -2148939.205 5  -1518900.84521
  20599355.7144   -1035166.69247   -806624.42762
 91  4 23 20 37 29.9990000  0  6G18G 2G11G16G 6G19
  21143568.3944    3333203.85447   2597291.03962
  22037648.3314   -8512655.70646  -6633217.92661
  22729160.784    -4912603.974 6  -3827986.24321
  23537845.245    -2940037.831 5  -2160087.30921
  23761818.0194   -2188580.77245  -1549790.26261
  20598801.636    -1038072.241 7   -808888.49922
 91  4 23 20 37 44.9990000  0  6G18G 2G11G16G 6G19
  21148814.0894    3360773.82847   2618774.04362
  22029347.120    -8556271.775 6  -6667204.40121
  22725869.440    -4929882.004 6  -3841449.58721
  23533809.0114   -2961248.19045  -2176614.88961
  23754273.9404   -2228212.86945  -1580672.31761
  20598259.347    -1040934.019 7   -811118.46722
 91  4 23 20 37 59.9990000  0  6G18G 2G11G16G 6G19
  21154075.5654    3388430.52747   2640324.62562
  22021059.573    -8599826.590 6  -6701143.13221
  22722611.0344   -4947026.72346  -3854809.05961
  23529797.573    -2982337.351 5  -2193048.02821
  23746734.6284   -2267845.15245  -1611554.49861
  20597720.847    -1043761.619 7   -813321.80422
 91  4 23 20 38 14.9990000  0  6G18G 2G11G16G 6G19
  21159356.6364    3416176.77047   2661944.98262
  22012782.5114   -8643317.02546  -6735031.69761
  22719375.894    -4964034.705 6  -3868061.99321
  23525806.214    -3003302.184 5  -2209384.29121
  23739193.542    -2307474.474 5  -1642434.42421
  20597189.284    -1046551.845 7   -815496.02022
 91  4 23 20 38 29.9990000  0  6G18G 2G11G16G 6G19
  21164656.6514    3444023.79947   2683643.87562
  22004521.190    -8686731.330 6  -6768860.95221
  22716164.0194   -4980894.19646  -3881199.19861
  23521843.269    -3024130.991 5  -2225614.56121
  23731655.909    -2347089.494 5  -1673303.16221
  20596665.581    -1049293.210 7   -817632.16522
 91  4 23 20 38 44.9990000  0  6G18G 2G11G16G 6G19
  21169973.8474    3471966.21747   2705417.10062
  21996272.878    -8730075.048 6  -6802635.20221
  22712982.065    -4997610.630 6  -3894224.93421
  23517904.1904   -3044829.46345  -2241743.25261
  23724115.730    -2386695.827 5  -1704165.15221
  20596154.284    -1051991.288 7   -819734.57722
 91  4 23 20 38 59.9990000  0  6G18G 2G11G16G 6G19
  21175308.6904    3500001.58447   2727262.74962
  21988038.823    -8773350.259 6  -6836356.07921
  22709831.237    -5014186.037 6  -3907140.78421
  23513989.8474   -3065399.33045  -2257771.75461
  23716581.651    -2426295.591 5  -1735022.00121
  20595646.034    -1054648.031 7   -821804.78322
 91  4 23 20 39 14.9990000  0  6G18G 2G11G16G 6G19
  21180660.8004    3528130.57547   2749181.35662
  21979817.089    -8816555.861 6  -6870022.70721
  22706705.198    -5030619.318 6  -3919945.88221
  23510100.980    -3085839.701 5  -2273699.33321
  23709046.5894   -2465887.86345  -1765873.04661
  20595149.878    -1057262.483 7   -823842.02822
 91  4 23 20 39 29.9990000  0  6G18G 2G11G16G 6G19
  21186031.4954    3556354.05847   2771173.58962
  21971609.011    -8859691.045 6  -6903634.45721
  22703603.9724   -5046909.51946  -3932639.49161
  23506234.7844   -3106149.76845  -2289525.38561
  23701513.1904   -2505471.90444  -1796717.65661
  20594662.565    -1059833.763 7   -825845.63922
 91  4 23 20 39 44.9990000  0  6G18G 2G11G16G 6G19
  21191422.4644    3584671.72747   2793239.20962
  21963413.480    -8902755.900 6  -6937191.41021
  22700528.425    -5063056.766 6  -3945221.70721
  23502392.2614   -3126329.74145  -2305250.06261
  23693984.7224   -2545048.03845  -1827556.10561
  20594180.323    -1062362.142 7   -827815.82222
 91  4 23 20 39 59.9990000  0  6G18G 2G11G16G 6G19
  21196826.9254    3613084.04547   2815378.58062
  21955232.6204   -8945749.07647  -6970692.51461
  22697482.097    -5079059.662 6  -3957691.44921
  23498576.7454   -3146378.59645  -2320872.55861
  23686450.464    -2584615.176 5  -1858387.53421
  20593708.339    -1064846.304 7   -829751.54422
 91  4 23 20 40 14.9990000  0  6G18G 2G11G16G 6G19
  21202253.7614    3641597.47047   2837596.73462
  21947065.808    -8988664.141 7  -7004132.74822
  22694468.792    -5094911.659 6  -3970043.61521
  23494792.394    -3166289.579 5  -2336387.64621
  23678923.894    -2624166.766 5  -1889206.85321
  20593245.292    -1067279.524 7   -831647.57522
 91  4 23 20 40 29.9990000  0  6G18G 2G11G16G 6G19
  21207696.987     3670204.332 7   2859887.70822
  21938912.9874   -9031508.66147  -7037518.02261
  22691478.128    -5110620.166 6  -3982283.96621
  23491025.8234   -3186070.15545  -2351801.10761
  23671403.659    -2663710.674 4  -1920020.21221
  20592786.753    -1069669.401 7   -833509.83522
 91  4 23 20 40 44.9990000  0  6G18G 2G11G16G 6G19
  21213159.6364    3698906.16847   2882252.68262
  21930773.550    -9074280.752 7  -7070846.84722
  22688516.940    -5126183.292 6  -3994411.03921
  23487288.2924   -3205718.74445  -2367111.73461
  23663880.237    -2703245.035 4  -1950826.09121
  20592343.878    -1072014.307 7   -835337.04522
 91  4 23 20 40 59.9990000  0  6G18G 2G11G16G 6G19
  21218639.2764    3727701.60747   2904690.59162
  21922646.058    -9116981.930 7  -7104120.41622
  22685582.0734   -5141602.55446  -4006426.00361
  23483575.4954   -3225236.79945  -2382320.62061
  23656356.8944   -2742771.37545  -1981625.74161
  20591904.722    -1074315.948 7   -837130.55722
 91  4 23 20 41 14.9990000  0  6G18G 2G11G16G 6G19
  21224136.0974    3756596.27547   2927205.82262
  21914535.1594   -9159605.99047  -7137333.90562
  22682676.5974   -5156871.73746  -4018324.02661
  23479885.276    -3244618.146 5  -2397422.99321
  23648837.1754   -2782283.88245  -2012414.59961
  20591477.190    -1076568.217 7   -838885.58422
 91  4 23 20 41 29.9990000  0  6G18G 2G11G16G 6G19
  21229653.5894    3785582.42947   2949792.34462
  21906438.167    -9202160.165 7  -7170492.93122
  22679799.4254   -5171997.94246  -4030110.64361
  23476218.4804   -3263870.16245  -2412424.57261
  23641319.284    -2821789.720 5  -2043198.27621
  20591057.573    -1078778.268 7   -840607.71522
 91  4 23 20 41 44.9990000  0  6G18G 2G11G16G 6G19
  21235186.4564    3814661.52647   2972451.28362
  21898354.722    -9244642.866 7  -7203596.25722
  22676951.245    -5186979.522 6  -4041784.55121
  23472580.9404   -3282991.19445  -2427324.09561
  23633803.980    -2861287.512 5  -2073975.64921
  20590644.144    -1080944.223 7   -842295.49022
 91  4 23 20 41 59.9990000  0  6G18G 2G11G16G 6G19
  21240737.933     3843835.898 7   2995184.46122
  21890284.378    -9287051.320 7  -7236641.73322
  22674121.292    -5201813.678 6  -4053343.59621
  23468972.511    -3301979.012 5  -2442119.83521
  23626289.245    -2900774.684 5  -2104744.82221
  20590237.534    -1083063.500 7   -843946.88822
 91  4 23 20 42 14.9990000  0  6G18G 2G11G16G 6G19
  21246306.8864    3873101.87447   3017989.01862
  21882227.542    -9329388.991 7  -7269632.05222
  22671328.980    -5216503.724 6  -4064790.33521
  23465381.3944   -3320836.58745  -2456814.04861
  23618776.4874   -2940254.74545  -2135508.34961
  20589847.456    -1085139.658 7   -845564.69122
 91  4 23 20 42 29.9990000  0  6G18G 2G11G16G 6G19
  21251893.2844    3902456.95947   3040863.01662
  21874182.472    -9371658.649 6  -7302569.37122
  22668563.644    -5231052.393 6  -4076126.92521
  23461815.503    -3339566.683 5  -2471408.96721
  23611265.269    -2979730.507 5  -2166268.58521
  20589456.292    -1087175.421 7   -847151.01922
 91  4 23 20 42 44.9990000  0  6G18G 2G11G16G 6G19
  21257497.6984    3931903.68347   3063808.41762
  21866153.964    -9413857.217 7  -7335451.30422
  22665822.9564   -5245456.61646  -4087350.95361
  23458277.698    -3358166.649 5  -2485902.45021
  23603754.714    -3019198.964 5  -2197023.11521
  20589079.550    -1089167.698 7   -848703.45122
 91  4 23 20 42 59.9990000  0  6G18G 2G11G16G 6G19
  21263118.933     3961443.022 7   3086825.98222
  21858137.6054   -9455983.49747  -7368276.90962
  22663104.323    -5259715.113 6  -4098461.42721
  23454765.5344   -3376635.12545  -2500293.48961
  23596241.2534   -3058659.25645  -2227771.32261
  20588707.144    -1091115.270 7   -850221.05722
 91  4 23 20 43 14.9990000  0  6G18G 2G11G16G 6G19
  21268756.5894    3991074.09947   3109915.03162
  21850134.901    -9498037.910 7  -7401046.50322
  22660420.480    -5273828.425 6  -4109458.77421
  23451271.472    -3394972.629 5  -2514582.48621
  23588738.5584   -3098111.89845  -2258513.51161
  20588347.3624   -1093018.90047   -851704.41262
 91  4 23 20 43 29.9990000  0  6G18G 2G11G16G 6G19
  21274413.6754    4020797.75647   3133076.22662
  21842145.862    -9540019.384 7  -7433759.26222
  22657763.3864   -5287795.39546  -4120342.09661
  23447808.230    -3413178.189 5  -2528768.64421
  23581232.1364   -3137555.93545  -2289249.04361
  20587990.4874   -1094877.54847   -853152.71962
 91  4 23 20 43 44.9990000  0  6G18G 2G11G16G 6G19
  21280088.7064    4050617.66947   3156312.42962
  21834171.5264   -9581924.12947  -7466412.24062
  22655135.6754   -5301611.95346  -4131108.21261
  23444370.9874   -3431248.00745  -2542849.05761
  23573727.2844   -3176987.57345  -2319974.88861
  20587649.011    -1096687.263 7   -854562.90622
 91  4 23 20 43 59.9990000  0  6G18G 2G11G16G 6G19
  21285781.409     4080529.066 7   3179619.90522
  21826210.558    -9623756.573 7  -7499008.87622
  22652530.4644   -5315282.51646  -4141760.56161
  23440957.597    -3449186.539 5  -2556827.16521
  23566224.8154   -3216411.44045  -2350694.67061
  20587311.972    -1098452.539 7   -855938.45422
 91  4 23 20 44 14.9990000  0  6G18G 2G11G16G 6G19
  21291489.511     4110530.273 7   3202997.37122
  21818265.065    -9665518.273 7  -7531550.38522
  22649958.4404   -5328808.48946  -4152300.24361
  23437569.6594   -3466995.51745  -2570704.31161
  23558723.776    -3255829.101 5  -2381409.61521
  20586986.144    -1100174.809 7   -857280.50122
 91  4 23 20 44 29.9990000  0  6G18G 2G11G16G 6G19
  21297216.800     4140618.307 7   3226442.48822
  21810329.065    -9707211.709 6  -7564038.70322
  22647411.581    -5342192.555 6  -4162729.34721
  23434202.4254   -3484677.08745  -2584482.18361
  23551221.1364   -3295243.17445  -2412121.77661
  20586663.550    -1101856.572 7   -858590.97722
 91  4 23 20 44 44.9990000  0  6G18G 2G11G16G 6G19
  21302958.2454    4170799.45847   3249960.16962
  21802409.612    -9748830.464 6  -7596468.82022
  22644893.1054   -5355428.34446  -4173042.91461
  23430866.0734   -3502225.07345  -2598155.95561
  23543722.2064   -3334647.54445  -2442826.39161
  20586353.417    -1103491.570 7   -859865.01922
 91  4 23 20 44 59.9990000  0  6G18G 2G11G16G 6G19
  21308718.6284    4201067.96747   3273545.92162
  21794502.1594   -9790379.90846  -7628844.94262
  22642402.1284   -5368520.98946  -4183244.94861
  23427548.9954   -3519644.96245  -2611729.92661
  23536225.7454   -3374047.47145  -2473527.51361
  20586048.683    -1105085.085 7   -861106.72722
 91  4 23 20 45 14.9990000  0  6G18G 2G11G16G 6G19
  21314495.847     4231426.151 7   3297201.54722
  21786610.862    -9831857.522 6  -7661165.08422
  22639937.7764   -5381468.02346  -4193333.50961
  23424260.519    -3536934.413 5  -2625202.27121
  23528728.558    -3413440.737 5  -2504223.44821
  20585757.284    -1106634.777 7   -862314.29722
 91  4 23 20 45 29.9990000  0  6G18G 2G11G16G 6G19
  21320290.6674    4261874.23247   3320927.21862
  21778728.917    -9873263.070 6  -7693429.07222
  22637500.8554   -5394268.99446  -4203308.25761
  23420995.0734   -3554092.98045  -2638572.60161
  23521238.3004   -3452827.01045  -2534913.93861
  20585467.511    -1108140.195 7   -863487.36422
 91  4 23 20 45 44.9990000  0  6G18G 2G11G16G 6G19
  21326102.308     4292415.976 7   3344725.88122
  21770867.011    -9914592.512 6  -7725633.76122
  22635096.3704   -5406919.87446  -4213166.05661
  23417755.940    -3571116.915 5  -2651838.03921
  23513742.581    -3492202.418 5  -2565595.95721
  20585193.761    -1109597.242 7   -864622.73922
 91  4 23 20 45 59.9990000  0  6G18G 2G11G16G 6G19
  21331929.9174    4323045.57347   3368592.99762
  21763012.956    -9955851.209 6  -7757783.31422
  22632713.4254   -5419425.97146  -4222911.03661
  23414541.3234   -3588011.51045  -2665002.68561
  23506251.675    -3531572.497 5  -2596273.82621
  20584918.878    -1111011.600 7   -865724.85022
 91  4 23 20 46 14.9990000  0  6G18G 2G11G16G 6G19
  21337774.823     4353765.547 7   3392530.53822
  21755176.683    -9997036.389 6  -7789875.59722
  22630361.1054   -5431784.63146  -4232541.12761
  23411350.0034   -3604774.09445  -2678064.47561
  23498760.120    -3570934.584 5  -2626945.47821
  20584664.300    -1112380.539 7   -866791.57722
 91  4 23 20 46 29.9990000  0  6G18G 2G11G16G 6G19
  21343639.159     4384576.713 7   3416539.13522
  21747354.5974  -10038146.88347  -7821909.67462
  22628038.1054   -5443994.58346  -4242055.34961
  23408188.675    -3621403.620 5  -2691022.57721
  23491272.7224   -3610287.71245  -2657610.13761
  20584409.151    -1113702.756 7   -867821.90322
 91  4 23 20 46 44.9990000  0  6G18G 2G11G16G 6G19
  21349518.5814    4415474.54847   3440615.27462
  21739544.4874  -10079187.05247  -7853888.96562
  22625742.7614   -5456060.14546  -4251457.04761
  23405049.144    -3637904.721 5  -2703880.60121
  23483784.706    -3649636.190 5  -2688271.17421
  20584167.355    -1114982.768 7   -868819.32522
 91  4 23 20 46 59.9990000  0  6G18G 2G11G16G 6G19
  21355416.120     4446461.683 7   3464760.98622
  21731749.050   -10120154.011 7  -7885811.18722
  22623474.245    -5467978.524 6  -4260744.07321
  23401931.8474   -3654274.21245  -2716636.07061
  23476297.0734   -3688977.44445  -2718926.61761
  20583930.7144   -1116217.59847   -869781.55362
 91  4 23 20 47 14.9990000  0  6G18G 2G11G16G 6G19
  21361331.1124    4477541.43647   3488978.87862
  21723968.0894  -10161044.34747  -7917673.72362
  22621236.487    -5479746.134 6  -4269913.61321
  23398846.2534   -3670508.65645  -2729286.32561
  23468815.925    -3728307.940 5  -2749573.63721
  20583706.073    -1117403.781 7   -870705.87022
 91  4 23 20 47 29.9990000  0  6G18G 2G11G16G 6G19
  21367261.784     4508713.405 7   3513268.61922
  21716200.9954  -10201857.79947  -7949476.34162
  22619025.0974   -5491362.65246  -4278965.42061
  23395775.7844   -3686608.23745  -2741831.48161
  23461331.558    -3767627.547 5  -2780212.19621
  20583488.386    -1118541.151 7   -871592.14622
 91  4 23 20 47 44.9990000  0  6G18G 2G11G16G 6G19
  21373210.6834    4539970.87347   3537624.98962
  21708447.3624  -10242601.14147  -7981224.32662
  22616842.9174   -5502834.78846  -4287904.71461
  23392741.503    -3702579.719 5  -2754276.81621
  23453848.2614   -3806943.24445  -2810847.68561
  20583283.526    -1119636.317 7   -872445.54922
 91  4 23 20 47 59.9990000  0  6G18G 2G11G16G 6G19
  21379174.683     4571314.282 7   3562048.32422
  21700708.5894  -10283273.62447  -8012917.11262
  22614684.526    -5514161.776 6  -4296730.91921
  23389721.245    -3718422.328 5  -2766621.72821
  23446365.8784   -3846254.19145  -2841479.50261
  20583080.144    -1120688.387 7   -873265.35822
 91  4 23 20 48 14.9980000  0  6G18G 2G11G16G 6G19
  21385157.381     4602747.061 7   3586541.29722
  21692983.5144  -10323866.45847  -8044547.82862
  22612559.795    -5525336.955 6  -4305438.82521
  23386736.4124   -3734129.17645  -2778860.87261
  23438886.4594   -3885552.07145  -2872101.12261
  20582890.795    -1121691.496 7   -874047.01922
 91  4 23 20 48 29.9980000  0  6G18G 2G11G16G 6G19
  21391152.639     4634263.014 7   3611099.07922
  21685269.9434  -10364395.48247  -8076128.82562
  22610460.537    -5536372.161 6  -4314037.66621
  23383768.256    -3749712.472 5  -2791003.71921
  23431410.545    -3924852.578 5  -2902724.80721
  20582704.022    -1122656.204 7   -874798.76322
 91  4 23 20 48 44.9980000  0  6G18G 2G11G16G 6G19
  21397167.139     4665869.676 7   3635727.54522
  21677571.5454  -10404848.00547  -8107650.20662
  22608389.162    -5547256.649 6  -4322519.05721
  23380827.686    -3765161.469 5  -2803041.93821
  23423935.412    -3964143.157 5  -2933340.73621
  20582532.920    -1123572.393 7   -875512.68922
 91  4 23 20 48 59.9980000  0  6G18G 2G11G16G 6G19
  21403200.357     4697564.108 7   3660424.39222
  21669890.4514  -10445226.74647  -8139114.09862
  22606345.006    -5557993.085 6  -4330885.09421
  23377915.2874   -3780479.03145  -2814977.71961
  23416459.357    -4003426.605 5  -2963951.08821
  20582364.2484   -1124442.97347   -876191.09062
 91  4 23 20 49 14.9980000  0  6G18G 2G11G16G 6G19
  21409249.904     4729349.273 7   3685191.95222
  21662220.0764  -10485528.54947  -8170518.03762
  22604332.522    -5568578.264 6  -4339133.26121
  23375026.6004   -3795662.35645  -2826808.92161
  23408984.686    -4042700.094 5  -2994553.73121
  20582209.217    -1125264.787 7   -876831.48522
 91  4 23 20 49 29.9980000  0  6G18G 2G11G16G 6G19
  21415313.545     4761218.610 7   3710025.09622
  21654564.1784  -10525759.42747  -8201866.71062
  22602344.9044   -5579018.26446  -4347268.29961
  23372158.7724   -3810717.39245  -2838540.15561
  23401514.959    -4081969.642 5  -3025153.26121
  20582064.279    -1126043.992 7   -877438.66622
 91  4 23 20 49 44.9980000  0  6G18G 2G11G16G 6G19
  21421392.7324    4793175.48747   3734926.45562
  21646923.0844  -10565916.00847  -8233157.49762
  22600386.451    -5589309.613 6  -4355287.50621
  23369323.311    -3825640.631 5  -2850168.67321
  23394040.436    -4121231.861 5  -3055747.10521
  20581922.826    -1126777.050 7   -878009.90022
 91  4 23 20 49 59.9980000  0  6G18G 2G11G16G 6G19
  21427490.404     4825220.065 7   3759896.14822
  21639294.3264  -10605997.46947  -8264389.74562
  22598455.857    -5599451.603 6  -4363190.33721
  23366506.7254   -3840431.27745  -2861693.88261
  23386572.1314   -4160486.18745  -3086334.76061
  20581790.732    -1127462.970 7   -878544.40122
 91  4 23 20 50 14.9980000  0  6G18G 2G11G16G 6G19
  21433604.904     4857346.728 7   3784929.80222
  21631680.9754  -10646009.39847  -8295567.80862
  22596553.342    -5609449.711 6  -4370981.04621
  23363713.662    -3855095.165 5  -2873120.33621
  23379100.811    -4199738.167 5  -3116920.61621
  20581671.225    -1128107.480 7   -879046.63122
 91  4 23 20 50 29.9980000  0  6G18G 2G11G16G 6G19
  21439735.920     4889555.177 7   3810027.18422
  21624079.5924  -10685952.00647  -8326691.85862
  22594679.076    -5619304.021 6  -4378659.70721
  23360947.982    -3869632.343 5  -2884448.04821
  23371637.037    -4238987.967 5  -3147504.76321
  20581556.748    -1128710.673 7   -879516.67222
 91  4 23 20 50 44.9980000  0  6G18G 2G11G16G 6G19
  21445878.857     4921852.781 7   3835194.04222
  21616493.3424  -10725817.67747  -8357755.96062
  22592833.561    -5629006.819 6  -4386220.30921
  23358211.615    -3884035.050 5  -2895670.97921
  23364163.4824   -4278228.08745  -3178081.38861
  20581450.623    -1129265.071 7   -879948.68122
 91  4 23 20 50 59.9980000  0  6G18G 2G11G16G 6G19
  21452042.365     4954235.908 7   3860427.54022
  21608920.100   -10765609.872 7  -8388762.80922
  22591014.576    -5638561.531 6  -4393665.50721
  23355491.5064   -3898307.00645  -2906792.01961
  23356699.998    -4317462.165 5  -3208653.30321
  20581352.381    -1129773.899 7   -880345.18522
 91  4 23 20 51 14.9980000  0  6G18G 2G11G16G 6G19
  21458220.232     4986699.089 7   3885723.41722
  21601361.9124  -10805333.57547  -8419716.28862
  22589221.467    -5647973.317 6  -4400999.35321
  23352803.998    -3912453.609 5  -2917815.38621
  23349234.4754   -4356695.36845  -3239224.52761
  20581263.193    -1130242.292 7   -880710.18622
 91  4 23 20 51 29.9980000  0  6G18G 2G11G16G 6G19
  21464417.420     5019252.400 7   3911089.53122
  21593819.4594  -10844978.31447  -8450608.22962
  22587459.920    -5657231.793 6  -4408213.73121
  23350133.7254   -3926464.50945  -2928733.00061
  23341770.420    -4395917.332 5  -3269787.01121
  20581182.615    -1130659.920 7   -881035.62222
 91  4 23 20 51 44.9980000  0  6G18G 2G11G16G 6G19
  21470626.639     5051890.619 7   3936521.80522
  21586288.5374  -10884549.18247  -8481442.61262
  22585726.8574   -5666341.97246  -4415312.55461
  23347493.881    -3940344.809 5  -2939548.86621
  23334309.4434   -4435133.10645  -3300344.66161
  20581113.709    -1131031.778 7   -881325.39622
 91  4 23 20 51 59.9980000  0  6G18G 2G11G16G 6G19
  21476854.514     5084616.471 7   3962022.36022
  21578771.7644  -10924043.31647  -8512217.20262
  22584019.826    -5675300.920 6  -4422293.53421
  23344880.529    -3954091.726 5  -2950260.80121
  23326846.490    -4474339.952 5  -3330895.38721
  20581052.0064   -1131354.86046   -881577.15162
 91  4 23 20 52 14.9980000  0  6G18G 2G11G16G 6G19
  21483097.506     5117432.181 7   3987592.92922
  21571270.232   -10963458.439 7  -8542930.23022
  22582345.264    -5684106.328 6  -4429154.87221
  23342288.1934   -3967702.76345  -2960866.84861
  23319388.764    -4513535.693 5  -3361437.45221
  20580999.061    -1131626.900 7   -881789.13922
 91  4 23 20 52 29.9980000  0  6G18G 2G11G16G 6G19
  21489359.764     5150333.512 7   4013230.22822
  21563785.2014  -11002798.03647  -8573584.39662
  22580698.522    -5692761.716 6  -4435899.31621
  23339724.1624   -3981181.52645  -2971369.82461
  23311933.990    -4552723.930 5  -3391973.64621
  20580959.381    -1131851.452 7   -881964.13122
 91  4 23 20 52 44.9980000  0  6G18G 2G11G16G 6G19
  21495636.8034    5183324.99347   4038937.76062
  21556314.7644  -11042057.47347
  22579081.904    -5701262.348 6  -4442523.16321
  23337183.740    -3994523.417 5  -2981766.13521
  23304479.373    -4591899.997 5
  20580926.7564   -1132023.80847   -882098.43762
 91  4 23 20 52 59.9980000  0  6G18G 2G11G16G 6G19
  21501932.365     5216401.256 7   4064711.36022
  21548857.1864  -11081241.80847
  22577492.2324   -5709613.39046  -4449030.45361
  23334669.5144   -4007733.94645  -2992060.09761
  23297025.107    -4631069.098 5
  20580898.139    -1132149.130 7
 91  4 23 20 53 14.9980000  0  6G18G 2G11G16G 6G19
  21508244.537     5249565.356 7   4090553.40322
  21541417.9124  -11120347.68047
  22575934.248    -5717811.506 6  -4455418.57921
  23332184.701    -4020809.613 5  -3002248.96521
  23289572.811    -4670228.142 5
  20580887.412    -1132224.113 6
 91  4 23 20 53 29.9980000  0  6G18G 2G11G16G 6G19
  21514570.467     5282813.766 7   4116461.14422
  21533989.4044  -11159378.57947  -8695594.96362
  22574402.279    -5725860.155 6  -4461690.23621
  23329721.631    -4033754.094 5  -3012335.63721
  23282121.2724   -4709380.63345
  20580881.709    -1132252.222 6
 91  4 23 20 53 44.9980000  0  6G18G 2G11G16G 6G19
  21520913.4984    5316143.93747   4142432.59262
  21526576.1004  -11198336.59147  -8725951.79662
  22572896.904    -5733761.305 6  -4467846.96121
  23327280.8894   -4046569.30945  -3022321.56061
  23274669.522    -4748528.529 5
  20580884.693    -1132235.290 7
 91  4 23 20 53 59.9980000  0  6G18G 2G11G16G 6G19
  21527273.100     5349565.857 7   4168475.53622
  21519178.8654  -11237211.72747  -8756244.05262
  22571423.568    -5741505.049 6  -4473881.03321
  23324867.4594   -4059245.57845  -3032199.22661
  23267222.139    -4787662.043 5
  20580900.490    -1132163.522 6
 91  4 23 20 54 14.9980000  0  6G18G 2G11G16G 6G19
  21533650.068     5383073.654 7   4194585.39822
  21511794.9044  -11276009.65147  -8786476.14362
  22569979.389    -5749096.966 6  -4479796.79521
  23322481.748    -4071788.740 5  -3041973.17621
  23259776.6314   -4826786.88445        -0.17771
  20580919.529    -1132042.545 7
 91  4 23 20 54 29.9980000  0  6G18G 2G11G16G 6G19
  21540041.654     5416665.749 7   4220760.94322
  21504426.5144  -11314731.34947  -8816648.83462
  22568563.420    -5756538.166 6  -4485595.11521
  23320116.2254   -4084199.52245  -3051643.97061
  23252334.1074   -4865904.20245    -30481.09361
  20580953.7094   -1131873.19947
 91  4 23 20 54 44.9980000  0  6G18G 2G11G16G 6G19
  21546451.404     5450343.688 7   4247003.38922
  21497072.2484  -11353374.86647  -8846760.60662
  22567173.5764   -5763826.75246  -4491274.53261
  23317783.0144   -4096476.57745  -3061210.54061
  23244893.6624   -4905012.22545    -60954.80461
  20580995.826    -1131653.656 7
 91  4 23 20 54 59.9980000  0  6G18G 2G11G16G 6G19
  21552874.920     5484108.028 7   4273313.15222
  21489733.2174  -11391939.74147  -8876811.09062
  22565817.928    -5770961.970 6  -4496834.42621
  23315473.553    -4108619.357 5  -3070672.52321
  23237450.725    -4944110.367 5    -91420.79821
  20581044.0764   -1131383.14247   -881599.32262
 91  4 23 20 55 14.9980000  0  6G18G 2G11G16G 6G19
  21559316.615     5517951.778 7   4299684.79522
  21482409.2724  -11430432.78247  -8906805.60162
  22564489.2484   -5777950.69346  -4502280.17461
  23313186.147    -4120634.435 5  -3080034.95221
  23230013.0614   -4983205.38045   -121884.38761
  20581106.928    -1131068.607 7   -881354.24022
 91  4 23 20 55 29.9980000  0  6G18G 2G11G16G 6G19
  21565773.0294    5551875.05647   4326118.40262
  21475098.4204  -11468853.19347  -8936743.52362
  22563187.779    -5784792.307 6  -4507611.28021
  23310925.412    -4132521.537 5  -3089297.68821
  23222575.0764   -5022296.87145   -152345.21161
  20581173.318    -1130709.647 7   -881074.55022
 91  4 23 20 55 44.9980000  0  6G18G 2G11G16G 6G19
  21572243.9594    5585883.67047   4352618.50362
  21467802.6934  -11507194.98247  -8966620.18062
  22561913.443    -5791480.826 6  -4512823.09421
  23308689.107    -4144274.635 5  -3098455.98821
  23215135.850    -5061378.858 5   -182798.65121
  20581253.8894   -1130300.04347   -880755.38862
 91  4 23 20 55 59.9980000  0  6G18G 2G11G16G 6G19
  21578731.389     5619978.278 7   4379185.62322
  21460519.7644  -11545457.48247  -8996435.06062
  22560671.865    -5798015.637 6  -4517915.13421
  23306477.482    -4155893.050 5  -3107509.36621
  23207702.881    -5100450.665 5   -213244.13221
  20581337.506    -1129839.081 7   -880396.21522
 91  4 23 20 56 14.9980000  0  6G18G 2G11G16G 6G19
  21585235.365     5654154.564 7   4405816.38322
  21453252.4904  -11583644.36247  -9026191.00862
  22559455.123    -5804400.331 6  -4522890.19921
  23304292.6784   -4167380.49845  -3116460.67961
  23200267.6234   -5139515.96445   -243684.55061
  20581439.053    -1129330.262 7   -879999.75222
 91  4 23 20 56 29.9980000  0  6G18G 2G11G16G 6G19
  21591754.0764    5688404.27847   4432504.35962
  21446000.1154  -11621763.89847  -9055894.48062
  22558267.842    -5810643.217 6  -4527754.76421
  23302130.154    -4178745.557 5  -3125316.61821
  23192832.084    -5178583.298 5   -274126.56921
  20581540.045    -1128781.889 7   -879572.46722
 91  4 23 20 56 44.9980000  0  6G18G 2G11G16G 6G19
  21598286.451     5722736.424 7   4459256.56222
  21438760.1544  -11659806.98247  -9085538.37862
  22557108.631    -5816735.137 6  -4532501.70021
  23299992.537    -4189979.149 5  -3134070.13221
  23185403.7644   -5217643.47645   -304562.99961
  20581655.607    -1128184.799 7   -879107.21822
 91  4 23 20 56 59.9980000  0  6G18G 2G11G16G 6G19
  21604833.3504    5757149.03147   4486071.46662
  21431534.8264  -11697775.19647  -9115123.93762
  22555975.467    -5822677.722 6  -4537132.26621
  23297876.842    -4201082.803 5  -3142722.37221
  23177967.670    -5256698.249 5   -334995.21921
  20581776.506    -1127540.555 7   -878605.23022
 91  4 23 20 57 14.9980000  0  6G18G 2G11G16G 6G19
  21611395.865     5791634.950 7   4512943.49722
  21424323.2644  -11735675.37347  -9144656.48262
  22554872.201    -5828477.724 6  -4541651.73821
  23295791.795    -4212063.524 5  -3151278.83021
  23170534.8974   -5295754.53645   -365428.62661
  20581908.732    -1126856.063 7   -878071.88322
 91  4 23 20 57 29.9980000  0  6G18G 2G11G16G 6G19
  21617976.811     5826205.889 7   4539881.78122
  21417126.4204  -11773495.70847  -9174126.81662
  22553801.756    -5834123.427 7  -4546050.97121
  23293721.8894   -4222909.68145  -3159730.44761
  23163106.131    -5334800.388 5   -395853.92121
  20582046.201    -1126119.242 7   -877497.75522
 91  4 23 20 57 44.9980000  0  6G18G 2G11G16G 6G19
  21624573.3424    5860863.99647   4566887.97962
  21409945.7564  -11811233.48047  -9203532.80962
  22552756.647    -5839612.069 6  -4550327.80521
  23291689.4124   -4233618.46545  -3168075.03961
  23155677.8034   -5373833.24345   -426269.05761
  20582198.904    -1125327.566 7   -876880.88822
 91  4 23 20 57 59.9980000  0  6G18G 2G11G16G 6G19
  21631182.1704    5895599.45147   4593954.44662
  21402778.2254  -11848898.24147  -9232881.90562
  22551737.014    -5844953.341 6  -4554489.81821
  23289671.334    -4244199.655 5  -3176320.15021
  23148252.1474   -5412862.92645   -456681.76161
  20582355.811    -1124490.728 7   -876228.82822
 91  4 23 20 58 14.9980000  0  6G18G 2G11G16G 6G19
  21637805.7324    5930409.61947   4621079.13662
  21395623.5534  -11886492.44247  -9262176.02962
  22550751.568    -5850149.666 7  -4558538.88621
  23287681.139    -4254655.812 5  -3184467.90321
  23140825.522    -5451891.918 5   -487093.86221
  20582524.811    -1123611.014 7   -875543.35822
 91  4 23 20 58 29.9980000  0  6G18G 2G11G16G 6G19
  21644445.4674    5965301.77647   4648267.71162
  21388483.5224  -11924008.60347  -9291409.34262
  22549790.639    -5855193.615 7  -4562469.21321
  23285718.8974   -4264979.60545  -3192512.47461
  23133400.4674   -5490912.72145   -517499.61061
  20582698.857    -1122680.859 7   -874818.59022
 91  4 23 20 58 44.9980000  0  6G18G 2G11G16G 6G19
  21651100.615     6000272.126 7   4675517.22322
  21381358.7794  -11961450.14247  -9320584.51362
  22548857.2484   -5860088.69546  -4566283.53361
  23283777.8894   -4275174.80445  -3200456.83561
  23125975.115    -5529928.659 5   -547901.57421
  20582889.209    -1121703.612 7   -874057.12222
 91  4 23 20 58 59.9980000  0  6G18G 2G11G16G 6G19
  21657769.1394    6035317.68646   4702825.33462
  21374248.1864  -11998819.94547  -9349703.77962
  22547952.850    -5864837.764 6  -4569984.08621
  23281865.5764   -4285244.11645  -3208303.13461
  23118548.537    -5568942.869 5   -578302.18221
  20583084.029    -1120682.199 7   -873261.24022
 91  4 23 20 59 14.9980000  0  6G18G 2G11G16G 6G19
  21664454.037     6070447.053 6   4730198.75422
  21367150.6864  -12036109.11447  -9378760.20962
  22547079.303    -5869431.815 6  -4573563.85821
  23279973.3734   -4295178.75245  -3216044.48061
  23111126.373    -5607946.457 5   -608694.52621
  20583286.272    -1119607.627 7   -872423.93422
 91  4 23 20 59 29.9980000  0  6G18G 2G11G16G 6G19
  21671156.0844    6105654.84146   4757633.27162
  21360071.1934  -12073322.91347  -9407757.91462
  22546234.014    -5873876.290 6  -4577027.06321
  23278104.342    -4304984.028 5  -3223685.02121
  23103701.9434   -5646944.84945   -639082.79661
  20583501.225    -1118485.345 7   -871549.45022
 91  4 23 20 59 44.9980000  0  6G18G 2G11G16G 6G19
  21677868.803     6140939.506 6   4785127.70321
  21353002.6394  -12110462.33547  -9436697.66262
  22545415.131    -5878172.190 6  -4580374.49321
  23276263.732    -4314661.600 5  -3231226.05721
  23096282.475    -5685939.051 5   -669467.81421
  20583723.7564   -1117316.16847   -870638.43662
 91  4 23 20 59 59.9980000  0  6G18G 2G11G16G 6G19
  21684595.631     6176297.242 6   4812679.07021
  21345948.4984  -12147531.02947  -9465582.29462
  22544624.686    -5882323.134 6  -4583608.98621
  23274446.8574   -4324214.89545  -3238670.23661
  23088868.5294   -5724932.79945   -699852.47261
  20583952.311    -1116103.731 7   -869693.69322
 91  4 23 21  0 14.9980000  0  6G18G 2G11G16G 6G19
  21691341.8574    6211737.36047   4840294.62861
  21338909.3654  -12184519.55147  -9494404.45462
  22543866.811    -5886319.543 6  -4586723.06021
  23272654.6784   -4333633.95345  -3246009.82661
  23081446.9984   -5763916.35945   -730229.20961
  20584193.4124   -1114838.25447   -868707.63262
 91  4 23 21  0 29.9980000  0  6G18G 2G11G16G 6G19
  21698099.6004    6247252.84246   4867968.91061
  21331885.9984  -12221434.56947  -9523169.34362
  22543133.428    -5890168.297 7  -4589722.06821
  23270887.3894   -4342926.03645  -3253250.49061
  23074025.186    -5802896.816 5   -760603.50721
  20584445.006    -1113526.699 7   -867685.66722
 91  4 23 21  0 44.9980000  0  6G18G 2G11G16G 6G19
  21704871.350     6282841.507 7   4895700.23021
  21324874.4824  -12258278.02147  -9551878.46362
  22542430.990    -5893871.282 6  -4592607.48221
  23269141.5144   -4352093.03445  -3260393.67561
  23066611.9984   -5841876.05345   -790976.87761
  20584703.295    -1112170.886 7   -866629.21422
 91  4 23 21  0 59.9980000  0  6G18G 2G11G16G 6G19
  21711659.998     6318508.292 6   4923492.41721
  21317877.201   -12295044.449 7  -9580527.55822
  22541754.732    -5897423.265 6  -4595375.23821
  23267427.3504   -4361129.65145  -3267435.27261
  23059189.881    -5880848.769 5   -821345.14621
  20584969.857    -1110765.349 7   -865534.01222
 91  4 23 21  1 14.9980000  0  6G18G 2G11G16G 6G19
  21718460.4044    6354254.87646   4951346.78461
  21310896.8814  -12331732.28547  -9609115.42162
  22541106.397    -5900822.604 6  -4598024.06321
  23265726.873    -4370034.821 5  -3274374.42021
  23051779.842    -5919813.329 5   -851707.06321
  20585248.568    -1109308.507 7   -864398.83022
 91  4 23 21  1 29.9980000  0  6G18G 2G11G16G 6G19
  21725277.8344    6390075.25746   4979258.64361
  21303928.5224  -12368347.03647  -9637646.33562
  22540488.115    -5904074.899 6  -4600558.30321
  23264057.092    -4378814.075 5  -3281215.46221
  23044366.0454   -5958775.39645   -882067.02161
  20585531.951    -1107806.005 7   -863228.06522
 91  4 23 21  1 44.9980000  0  6G18G 2G11G16G 6G19
  21732109.1154    6425970.54446   5007228.87862
  21296975.7724  -12404887.25247  -9666119.17162
  22539897.975    -5907178.727 6  -4602976.85021
  23262413.0144   -4387465.75245  -3287957.09861
  23036953.373    -5997733.540 5   -912423.94521
  20585829.154    -1106256.154 7   -862020.41022
 91  4 23 21  1 59.9980000  0  6G18G 2G11G16G 6G19
  21738954.272     6461940.914 6   5035257.62622
  21290036.4434  -12441352.46247  -9694533.55662
  22539336.3654   -5910133.66246  -4605279.38061
  23260791.498    -4395989.616 5  -3294599.12921
  23029537.998    -6036687.440 5   -942777.54621
  20586131.928    -1104658.506 7   -860775.51422
 91  4 23 21  2 14.9980000  0  6G18G 2G11G16G 6G19
  21745812.732     6497983.555 6   5063342.68721
  21283110.9364  -12477745.60247  -9722891.77962
  22538800.0064   -5912942.58646  -4607468.14161
  23259188.1704   -4404388.77745  -3301144.00361
  23022130.1314   -6075639.92345   -973130.04461
  20586443.990    -1103015.881 7   -859495.56022
 91  4 23 21  2 29.9980000  0  6G18G 2G11G16G 6G19
  21752686.2644    6534106.87746   5091490.60361
  21276201.4984  -12514057.80247  -9751186.93662
  22538295.701    -5915596.622 6  -4609536.21021
  23257618.3814   -4412654.39245  -3307584.81261
  23014716.1234   -6114582.22645  -1003474.60461
  20586763.967    -1101319.328 7   -858173.59122
 91  4 23 21  2 44.9980000  0  6G18G 2G11G16G 6G19
  21759575.2564    6570298.02146   5119691.37861
  21269304.600   -12550301.449 7  -9779428.66922
  22537817.8424   -5918108.35747  -4611493.38661
  23256065.0294   -4420798.79645  -3313931.16061
  23007302.5614   -6153526.71145  -1033820.87061
  20587099.717    -1099581.310 7   -856819.30622
 91  4 23 21  2 59.9980000  0  6G18G 2G11G16G 6G19
  21766477.2484    6606566.20246   5147952.18061
  21262423.0294  -12586467.29647  -9807609.78162
  22537367.545    -5920468.453 6  -4613332.40821
  23254542.9514   -4428813.31045  -3320176.30261
  22999897.6704   -6192464.21745  -1064161.69461
  20587439.397    -1097792.439 6   -855425.39622
 91  4 23 21  3 14.9980000  0  6G18G 2G11G16G 6G19
  21773388.1314    6642899.14746   5176263.44561
  21255552.2644  -12622567.47547  -9835739.72962
  22536946.084    -5922689.085 6  -4615062.75521
  23253039.4824   -4436710.08445  -3326329.70661
  22992487.311    -6231406.949 5  -1094506.59521
  20587786.279    -1095964.916 7   -854001.36522
 91  4 23 21  3 29.9980000  0  6G18G 2G11G16G 6G19
  21780319.9284    6679305.42347   5204631.85261
  21248696.0224  -12658592.94747  -9863811.46562
  22536550.7404   -5924761.27046  -4616677.43561
  23251562.0924   -4444479.98145  -3332384.24161
  22985076.389    -6270345.953 5  -1124848.60621
  20588144.084    -1094089.651 7   -852540.13822
 91  4 23 21  3 44.9980000  0  6G18G 2G11G16G 6G19
  21787259.795     6715783.499 7   5233056.21021
  21241854.8504  -12694545.03747  -9891826.01662
  22536185.443    -5926686.276 6  -4618177.41621
  23250108.943    -4452124.738 5  -3338341.27121
  22977669.857    -6309282.438 5  -1155188.62921
  20588509.420    -1092167.829 7   -851042.63422
 91  4 23 21  3 59.9980000  0  6G18G 2G11G16G 6G19
  21794214.2324    6752333.25846   5261536.41261
  21235028.1394  -12730423.50347  -9919783.19362
  22535844.631    -5928464.247 6  -4619562.82821
  23248676.967    -4459644.223 5  -3344200.67121
  22970259.061    -6348216.568 5  -1185526.84621
  20588884.654    -1090199.365 7   -849508.77922
 91  4 23 21  4 14.9980000  0  6G18G 2G11G16G 6G19
  21801183.9594    6788957.24546   5290074.46361
  21228214.4904  -12766225.53147  -9947680.81262
  22535536.7014   -5930092.24646  -4620831.39161
  23247268.9904   -4467035.54245  -3349960.21161
  22962850.022    -6387145.489 5  -1215860.98521
  20589268.779    -1088181.423 7   -847936.37322
 91  4 23 21  4 29.9980000  0  6G18G 2G11G16G 6G19
  21808167.0374    6825648.08146   5318664.60361
  21221414.6234  -12801958.24747  -9975524.42462
  22535253.8424   -5931577.32146  -4621988.59961
  23245886.9984   -4474306.17845  -3355625.70061
  22955442.3974   -6426076.16045  -1246196.48661
  20589661.9754   -1086120.80247   -846330.70562
 91  4 23 21  4 44.9980000  0  6G18G 2G11G16G 6G19
  21815161.1544    6862406.73946   5347307.58361
  21214629.0614  -12837620.40147 -10003313.05662
  22534999.584    -5932918.294 7  -4623033.50421
  23244524.936    -4481454.783 5  -3361196.10921
  22948031.365    -6465007.376 5  -1276532.41721
  20590062.240    -1084016.318 7   -844690.86122
 91  4 23 21  4 59.9980000  0  6G18G 2G11G16G 6G19
  21822170.803     6899236.908 6   5376006.28821
  21207856.9284  -12873208.12647 -10031043.68562
  22534770.928    -5934111.436 6  -4623963.20021
  23243190.3894   -4488477.52545  -3366668.44961
  22940622.709    -6503935.404 6  -1306865.86321
  20590471.850    -1081864.080 6   -843013.80922
 91  4 23 21  5 14.9980000  0  6G18G 2G11G16G 6G19
  21829192.014     6936138.299 6   5404760.48221
  21201100.2724  -12908721.38747 -10058716.29662
  22534569.9124   -5935156.70346  -4624777.69761
  23241876.4204   -4495374.73145  -3372042.96761
  22933217.6864   -6542860.14145  -1337196.73861
  20590888.201    -1079663.974 6   -841299.46122
 91  4 23 21  5 29.9980000  0  6G18G 2G11G16G 6G19
  21836228.889     6973112.414 6   5433571.34821
  21194356.1234  -12944158.70747 -10086329.73062
  22534404.5224   -5936052.68546  -4625475.86661
  23240591.404    -4502144.850 5  -3377318.45421
  22925813.998    -6581780.225 5  -1367523.99821
  20591315.717    -1077414.536 7   -839546.66722
 91  4 23 21  5 44.9980000  0  6G18G 2G11G16G 6G19
  21843278.006     7010155.653 6   5462436.07621
  21187625.1154  -12979523.09947 -10113886.33362
  22534262.0064   -5936802.63547  -4626060.23261
  23239324.357    -4508791.148 5  -3382497.46521
  22918404.584    -6620698.824 5  -1397850.08821
  20591755.506    -1075118.951 7   -837757.91622
 91  4 23 21  5 59.9980000  0  6G18G 2G11G16G 6G19
  21850338.256     7047265.529 6   5491352.72821
  21180908.8504  -13014816.81347 -10141387.87662
  22534146.2874   -5937408.66847  -4626532.45661
  23238084.850    -4515316.033 5  -3387581.85821
  22910997.342    -6659618.001 5  -1428176.64221
  20592201.178    -1072779.094 6   -835934.66722
 91  4 23 21  6 14.9980000  0  6G18G 2G11G16G 6G19
  21857415.2724    7084444.69446   5520323.37861
  21174207.1934  -13050037.09347 -10168832.19062
  22534054.1624   -5937868.16146  -4626890.50361
  23236866.006    -4521716.670 5  -3392569.43621
  22903595.2094   -6698535.17145  -1458501.61361
  20592655.272    -1070392.308 7   -834074.84922
 91  4 23 21  6 29.9980000  0  6G18G 2G11G16G 6G19
  21864504.2484    7121694.35646   5549348.95861
  21167520.4904  -13085182.25847 -10196217.97662
  22533998.8184   -5938179.61046  -4627133.19561
  23235676.6394   -4527991.88545  -3397459.28261
  22896187.600    -6737448.814 5  -1488823.85821
  20593120.068    -1067957.007 6   -832177.22922
 91  4 23 21  6 44.9980000  0  6G18G 2G11G16G 6G19
  21871602.826     7159009.895 6   5578425.86921
  21160844.6004  -13120256.68347 -10223548.64062
  22533967.9514   -5938347.25747
  23234504.1704   -4534145.99245  -3402254.75561
  22888784.2874   -6776363.21745  -1519146.68261
  20593589.451    -1065477.306 7   -830245.01322
 91  4 23 21  6 59.9980000  0  6G18G 2G11G16G 6G19
  21878718.506     7196391.784 6   5607554.48221
  21154183.029   -13155260.017 7 -10250823.90622
  22533963.5684   -5938370.63047
  23233351.295    -4540178.679 5  -3406955.61421
  22881374.506    -6815277.797 5  -1549469.64721
  20594067.982    -1062952.739 7   -828277.83822
 91  4 23 21  7 14.9980000  0  6G18G 2G11G16G 6G19
  21885843.037     7233838.123 6   5636733.31021
  21147535.4434  -13190193.81847 -10278044.99862
  22533982.6004   -5938251.37946
  23232226.873    -4546091.600 5  -3411563.16821
  22873973.5064   -6854194.24445  -1579794.06861
  20594558.115    -1060384.717 7   -826276.80022
 91  4 23 21  7 29.9980000  0  5G18G 2G11G 6G19
  21892983.256     7271359.683 6   5665970.74921
  21140903.4044  -13225046.78347 -10305203.08662
  22534038.5374   -5937978.44547
  22866566.7724   -6893101.40445  -1610111.25461
  20595054.772    -1057761.961 7   -824233.11422
 91  4 23 21  7 44.9980000  0  6G18G 2G11G16G 6G19
  21900138.373     7308950.173 6   5695261.90021
  21134285.0924  -13259824.97447 -10332302.92462
  22534115.7954   -5937557.97947
  23230047.295          -0.00115
  22859165.2954   -6932005.47145  -1640426.00861
  20595562.826    -1055090.574 6   -822151.53522
 91  4 23 21  7 59.9980000  0  6G18G 2G11G16G 6G19
  21907304.303     7346607.201 6   5724604.90521
  21127679.9594  -13294530.38747 -10359346.03662
  22534222.9284   -5936992.07147  -4626207.84261
  23228996.967       -5534.899 5
  22851764.076    -6970908.341 5  -1670739.86021
  20596080.850    -1052372.435 7   -820033.52022
 91  4 23 21  8 14.9980000  0  6G18G 2G11G16G 6G19
  21914481.404     7384323.599 6   5753994.16921
  21121088.873   -13329170.207 7 -10386338.04722
  22534359.9754   -5936287.88847  -4625659.12861
  23227960.725      -10954.720 5
  22844357.1624   -7009817.25546  -1701058.40261
  20596605.623    -1049614.626 6   -817884.59922
 91  4 23 21  8 29.9980000  0  6G18G 2G11G16G 6G19
  21921669.787     7422111.209 6   5783438.91921
  21114512.240   -13363732.148 7 -10413269.37322
  22534522.0614   -5935433.36547  -4624993.25861
  23226958.615      -16247.033 5        -0.28831
  22836951.740    -7048720.053 5  -1731372.18421
  20597136.857    -1046804.973 7   -815695.28222
 91  4 23 21  8 44.9980000  0  6G18G 2G11G16G 6G19
  21928873.639     7459966.168 6   5812936.15321
  21107949.6394  -13398219.96547 -10440142.94362
  22534709.0924   -5934432.16346  -4624213.10161
  23225974.8264     -21416.09245     -4028.18261
  22829549.3734   -7087620.37945  -1761684.04161
  20597687.686    -1043947.133 6   -813468.40822
 91  4 23 21  8 59.9980000  0  6G18G 2G11G16G 6G19
  21936090.318     7497889.349 6   5842486.55021
  21101400.881   -13432632.223 7 -10466957.63222
  22534928.4434   -5933283.02547  -4623317.67061
  23225014.936      -26460.658 5     -7959.06921
  22822148.6624   -7126516.94845  -1791992.94961
  20598237.537    -1041039.720 7   -811202.90922
 91  4 23 21  9 14.9980000  0  6G18G 2G11G16G 6G19
  21943318.311     7535873.227 6   5872084.24421
  21094864.6864  -13466976.66347 -10493719.47862
  22535176.3424   -5931993.59947  -4622312.92161
  23224076.7254     -31388.15645    -11798.73361
  22814744.670    -7165417.293 5  -1822304.81721
  20598801.186    -1038090.284 6   -808904.67022
 91  4 23 21  9 29.9980000  0  6G18G 2G11G16G 6G19
  21950563.186     7573928.525 6   5901737.57921
  21088344.3814  -13501241.94247 -10520419.63862
  22535449.2484   -5930552.54547  -4621190.01461
  23223163.693      -36187.766 5    -15538.73521
  22807346.865    -7204310.245 5  -1852610.90021
  20599369.904    -1035087.574 7   -806564.91122
 91  4 23 21  9 44.9980000  0  6G18G 2G11G16G 6G19
  21957815.100     7612046.220 6   5931439.53821
  21081837.709   -13535436.908 7 -10547065.00922
  22535749.8654   -5928968.87147  -4619955.98761
  23222274.889      -40868.358 5    -19186.01821
  22799943.107    -7243204.588 5  -1882918.07621
  20599953.631    -1032040.128 7   -804190.29622
 91  4 23 21  9 59.9980000  0  6G18G 2G11G16G 6G19
  21965080.264     7650226.679 6   5961190.40721
  21075344.2324  -13569560.96147 -10573655.12662
  22536079.5844   -5927242.11847  -4618610.46461
  23221406.037      -45429.412 5    -22740.13721
  22792540.9124   -7282100.00045  -1913226.11261
  20600538.4044   -1028947.36546   -801780.36962
 91  4 23 21 10 14.9980000  0  6G18G 2G11G16G 6G19
  21972358.873     7688478.253 6   5990996.68921
  21068865.1544  -13603605.20647 -10600183.05262
  22536437.7254   -5925363.49947  -4617146.60061
  23220563.9514     -49862.20845    -26194.31761
  22785142.6544   -7320987.38345  -1943527.86161
  20601139.100    -1025800.417 6   -799328.21422
 91  4 23 21 10 29.9980000  0  6G18G 2G11G16G 6G19
  21979650.381     7726799.994 6   6020857.64521
  21062401.0224  -13637570.59047 -10626649.52962
  22536822.7874   -5923334.01647  -4615565.18861
  23219742.4124     -54168.07445    -29549.59461
  22777747.303    -7359867.868 5  -1973824.24921
  20601743.990    -1022600.289 7   -796834.63222
 91  4 23 21 10 44.9980000  0  6G18G 2G11G16G 6G19
  21986956.225     7765182.322 6   6050765.81121
  21055950.998   -13671466.453 7 -10653061.83222
  22537236.4364   -5921163.05146  -4613873.53061
  23218944.654      -58356.028 5    -32812.99221
  22770346.1784   -7398750.67845  -2004122.44261
  20602366.443    -1019355.991 7   -794306.62222
 91  4 23 21 10 59.9980000  0  6G18G 2G11G16G 6G19
  21994272.225     7803629.969 6   6080724.88021
  21049516.264   -13705287.801 7 -10679416.07322
  22537676.4204   -5918845.65947  -4612067.78361
  23218171.2324     -62421.35545    -35980.83561
  22762944.889    -7437630.843 5  -2034418.56521
  20602989.8974   -1016062.35547   -791740.16762
 91  4 23 21 11 14.9980000  0  6G18G 2G11G16G 6G19
  22001602.592     7842144.320 6   6110735.92121
  21043093.592   -13739032.946 7 -10705710.93922
  22538146.9674   -5916380.38646  -4610146.78361
  23217421.9904     -66362.91745    -39052.23861
  22755546.647    -7476506.759 5  -2064711.39421
  20603627.717    -1012717.837 7   -789134.05922
 91  4 23 21 11 29.9980000  0  6G18G 2G11G16G 6G19
  22008942.123     7880722.061 6   6140796.35821
  21036686.264   -13772705.145 7 -10731948.96022
  22538641.3654   -5913770.44046  -4608113.05461
  23216693.553      -70184.076 5    -42029.82721
  22748150.943    -7515381.663 5  -2095003.43121
  20604273.264    -1009325.591 7   -786490.76622
 91  4 23 21 11 44.9980000  0  6G18G 2G11G16G 6G19
  22016296.068     7919368.438 6   6170910.28321
  21030293.920   -13806298.747 7 -10758125.74122
  22539168.7954   -5911010.16146  -4605962.19561
  23215992.068      -73878.878 5    -44908.97221
  22740751.9514   -7554249.87845  -2125290.25461
  20604929.850    -1005880.036 7   -783805.93022
 91  4 23 21 11 59.9980000  0  6G18G 2G11G16G 6G19
  22023663.756     7958074.314 6   6201070.55921
  21023913.100   -13839822.713 7 -10784248.25222
  22539719.5614   -5908108.61046  -4603701.26361
  23215313.022      -77456.376 5    -47696.70321
  22733358.318    -7593120.301 5  -2155578.78821
  20605592.303    -1002389.969 7   -781086.41522
 91  4 23 21 12 14.9980000  0  6G18G 2G11G16G 6G19
  22031044.1154    7996851.22546   6231286.18761
  21017549.928   -13873264.910 7 -10810307.05522
  22540301.600    -5905053.870 7  -4601320.93721
  23214652.9824     -80905.17545    -50384.13461
  22725959.9284   -7631980.97945  -2185859.75061
  20606271.303     -998843.408 7   -778322.87322
 91  4 23 21 12 29.9980000  0  6G18G 2G11G16G 6G19
  22038433.1004    8035690.50746   6261550.41161
  21011201.295   -13906634.002 7 -10836308.89022
  22540910.6004   -5901854.52346  -4598827.94361
  23214022.5454     -84233.73345    -52977.87561
  22718568.1624   -7670840.50945  -2216139.80861
  20606951.350     -995248.652 7   -775521.77822
 91  4 23 21 12 44.9980000  0  6G18G 2G11G16G 6G19
  22045837.2954    8074592.28046   6291863.32461
  21004865.5684  -13939929.72647 -10862253.55262
  22541548.1154   -5898510.43846  -4596222.17161
  23213409.756      -87441.877 5    -55477.80421
  22711174.0924   -7709698.56145  -2246418.71961
  20607645.748     -991605.397 7   -772682.89522
 91  4 23 21 12 59.9980000  0  6G18G 2G11G16G 6G19
  22053249.7014    8113555.03546   6322223.76061
  20998543.725   -13973153.197 7 -10888141.91322
  22542209.7644   -5895022.90846  -4593504.61761
  23212825.0764     -90531.00345    -57884.98361
  22703777.748    -7748556.313 5  -2276697.38121
  20608345.545     -987914.754 7   -769807.08822
 91  4 23 21 13 14.9980000  0  6G18G 2G11G16G 6G19
  22060675.5844    8152578.11346   6352631.20761
  20992233.295   -14006304.728 7 -10913974.22122
  22542898.6784   -5891392.24146
  23212261.670      -93501.321 5    -60199.59821
  22696388.5684   -7787414.04146  -2306976.04161
  20609060.7794    -984176.78347
 91  4 23 21 13 29.9980000  0  6G18G 2G11G16G 6G19
  22068114.404     8191667.162 6   6383090.06321
  20985940.053   -14039378.445 7 -10939745.89522
  22543620.3654   -5887612.80346
  23211712.904      -96347.412 5    -62417.39021
  22688992.0064   -7826265.98946  -2337250.18361
  20609781.1394    -980385.67247
 91  4 23 21 13 44.9980000  0  6G18G 2G11G16G 6G19
  22075564.4674    8230820.67546   6413599.14561
  20979660.647   -14072375.802 7 -10965458.06322
  22544367.3424   -5883686.12446  -4584670.76761
  23211199.1474     -99070.97945    -64539.73761
  22681596.4124   -7865113.56946  -2367520.93561
  20610512.3654    -976542.87447   -760945.93762
 91  4 23 21 13 59.9980000  0  6G18G 2G11G16G 6G19
  22083029.1704    8270037.40646   6444157.49161
  20973396.2014  -14105297.57447 -10991111.34362
  22545143.248    -5879612.932 6  -4581496.87121
  23210702.865     -101672.937 5    -66567.30721
  22674204.6074   -7903957.56546  -2397788.91361
  20611252.522     -972649.126 7   -757911.86322
 91  4 23 21 14 14.9980000  0  5G18G 2G11G 6G19
  22090503.8814    8309316.05846   6474764.07761
  20967145.959   -14138144.657 7 -11016706.41322
  22545945.982    -5875394.364 6  -4578209.68821
  22666813.990    -7942799.068 6  -2428054.92921
  20612003.787     -968705.335 7   -754838.79922
 91  4 23 21 14 29.9980000  0  6G18G 2G11G16G 6G19
  22097989.2324    8348658.96846   6505420.74061
  20960909.514   -14170914.577 7 -11042241.37022
  22546776.3034   -5871028.02246  -4574807.34961
  23209785.0144         -0.71655
  22659424.7564   -7981635.47046  -2458316.98461
  20612765.912     -964708.997 7   -751724.79022
 91  4 23 21 14 44.9980000  0  6G18G 2G11G16G 6G19
  22105488.9204    8388067.90146   6536128.84461
  20954688.639   -14203605.290 7 -11067714.59722
  22547635.381    -5866511.910 6  -4571288.30921
  23209357.2484      -2234.29945
  22652033.0684   -8020464.69646  -2488573.42761
  20613537.084     -960657.814 7   -748568.04722
 91  4 23 21 14 59.9980000  0  6G18G 2G11G16G 6G19
  22112998.9984    8427535.70946   6566882.83461
  20948480.834   -14236223.799 7 -11093131.56422
  22548523.686    -5861853.100 6  -4567658.09421
  23208956.3574      -4350.01945        -0.42171
  22644645.6234   -8059293.66046  -2518829.69061
  20614311.170     -956558.682 7   -745373.94322
 91  4 23 21 15 14.9980000  0  6G18G 2G11G16G 6G19
  22120523.2564    8467066.68046   6597686.03061
  20942288.272   -14268765.560 7 -11118488.72722
  22549435.4204   -5857047.27746  -4563913.30961
  23208576.842       -6343.811 5     -1554.10021
  22637256.1074   -8098117.96945  -2549082.30561
  20615107.897     -952407.083 7   -742138.95022
 91  4 23 21 15 29.9980000  0  6G18G 2G11G16G 6G19
  22128057.2874    8506662.41846   6628539.69961
  20936111.318   -14301228.604 7 -11143784.55922
  22550380.834    -5852092.471 6  -4560052.44121
  23208220.4204      -8213.60245     -3011.14761
  22629869.732    -8136935.575 5  -2579329.70721
  20615907.576     -948201.007 7   -738861.51422
 91  4 23 21 15 44.9980000  0  6G18G 2G11G16G 6G19
  22135602.897     8546320.428 6   6659441.88721
  20929948.7254  -14333615.33847 -11169020.92262
  22551347.7254   -5846991.09946  -4556077.35461
  23207887.2954      -9961.93645     -4373.55061
  22622487.912    -8175748.784 6  -2609573.69121
  20616717.7404    -943942.66147   -735543.34762
 91  4 23 21 15 59.9980000  0  6G18G 2G11G16G 6G19
  22143164.397     8586039.085 6   6690391.31921
  20923799.123   -14365927.034 7 -11194198.81222
  22552349.740    -5841744.601 6  -4551989.19821
  23207577.4044     -11590.36245     -5642.50861
  22615101.8264   -8214558.97646  -2639815.31761
  20617533.826     -939633.292 7   -732185.42022
 91  4 23 21 16 14.9980000  0  6G18G 2G11G16G 6G19
  22150731.615     8625818.600 6   6721388.19321
  20917664.514   -14398163.188 7 -11219317.84222
  22553376.686    -5836352.624 6  -4547787.67521
  23207291.2874     -13098.73545     -6817.93761
  22607714.623    -8253365.764 5  -2670054.29321
  20618366.4514    -935272.53147   -728787.45062
 91  4 23 21 16 29.9980000  0  6G18G 2G11G16G 6G19
  22158312.4754    8665654.60846   6752429.07861
  20911544.951   -14430328.003 7 -11244381.28722
  22554426.350    -5830819.534 6  -4543476.19321
  23207025.912      -14491.338 5     -7903.16621
  22600328.100    -8292173.197 5  -2700293.77321
  20619203.9674    -930864.34147   -725352.52762
 91  4 23 21 16 44.9980000  0  6G18G 2G11G16G 6G19
  22165904.397     8705553.354 6   6783518.85321
  20905438.006   -14462414.970 7 -11269384.06822
  22555508.740    -5825138.871 6  -4539049.72221
  23206781.842      -15761.694 5     -8893.12321
  22592949.8814   -8330974.77646  -2730528.69861
  20620054.9514    -926402.10647   -721875.49362
 91  4 23 21 16 59.9980000  0  6G18G 2G11G16G 6G19
  22173508.7094    8745514.13446   6814656.97261
  20899348.170   -14494424.294 7 -11294326.34622
  22556620.029    -5819310.877 6  -4534508.45221
  23206568.795      -16910.376 5     -9788.28121
  22585563.389    -8369770.733 6  -2760759.24221
  20620914.5614    -921886.06447   -718356.53462
 91  4 23 21 17 14.9980000  0  6G18G 2G11G16G 6G19
  22181125.2324    8785532.35446   6845839.84361
  20893269.709   -14526360.538 7 -11319211.68622
  22557756.084    -5813340.124 6  -4529855.94621
  23206370.389      -17941.889 5    -10592.12321
  22578182.029    -8408565.489 6  -2790988.85121
  20621781.3424    -917320.43347   -714798.92862
 91  4 23 21 17 29.9980000  0  6G18G 2G11G16G 6G19
  22188752.100     8825613.060 6   6877071.39521
  20887207.264   -14558218.430 7 -11344035.97322
  22558917.592    -5807221.545 6  -4525088.23121
  23206199.1934     -18850.95145    -11300.55361
  22570801.7794   -8447353.81946  -2821213.44461
  20622661.5064    -912699.86447   -711198.52662
 91  4 23 21 17 44.9980000  0  6G18G 2G11G16G 6G19
  22196390.4674    8865755.61346   6908351.14861
  20881160.490   -14589998.361 7 -11368799.51222
  22560112.420    -5800955.629 6  -4520205.72821
  23206047.9434     -19638.18545    -11914.06561
  22563421.8504   -8486136.11046  -2851433.33061
  20623551.4044    -908024.77047   -707555.62562
 91  4 23 21 17 59.9980000  0  6G18G 2G11G16G 6G19
  22204042.7174    8905961.60746   6939680.33461
  20875126.662   -14621698.378 7 -11393500.77022
  22561333.8894   -5794540.61246  -4515207.03661
  23205919.865      -20302.327 5    -12431.66321
  22556038.4204   -8524910.47645  -2881647.06861
  20624450.6394    -903293.31647   -703868.80762
 91  4 23 21 18 14.9980000  0  6G18G 2G11G16G 6G19
  22211706.1394    8946225.42346   6971054.58261
  20869108.615   -14653323.758 7 -11418143.87322
  22562579.482    -5787981.827 6  -4510096.31721
  23205818.037      -20848.488 5    -12857.32421
  22548665.014    -8563682.181 5  -2911858.71821
  20625362.5294    -898510.62647   -700142.06962
 91  4 23 21 18 29.9980000  0  6G18G 2G11G16G 6G19
  22219379.2954    8986552.13646   7002477.83661
  20863106.865   -14684869.346 7 -11442724.80122
  22563853.9284   -5781274.18446  -4504869.60961
  23205734.162      -21271.830 5    -13187.27721
  22541285.170    -8602446.046 5  -2942064.25321
  20626285.5374    -893671.34647   -696371.23062
 91  4 23 21 18 44.9980000  0  6G18G 2G11G16G 6G19
  22227063.561     9026933.946 6   7033944.01521
  20857117.678   -14716342.755 7 -11467249.49222
  22565159.256    -5774425.413 6  -4499532.92121
  23205679.428      -21579.925 5    -13427.43521
  22533907.311    -8641209.527 5  -2972269.49721
  20627214.5924    -888783.09047   -692562.22662
 91  4 23 21 18 59.9980000  0  6G18G 2G11G16G 6G19
  22234762.795     9067381.330 6   7065461.28921
  20851143.436   -14747732.953 7 -11491709.33822
  22566493.412    -5767424.693 6  -4494077.83221
  23205647.240      -21762.030 5
  22526535.8574   -8679961.83345  -3002466.03261
  20628158.0764    -883834.80747   -688706.45762
 91  4 23 21 19 14.9980000  0  6G18G 2G11G16G 6G19
  22242469.459     9107888.947 6   7097025.50521
  20845186.779   -14779045.019 7 -11516108.30122
  22567849.740    -5760277.071 6  -4488508.27521
  23205632.990      -21823.166 5
  22519162.873    -8718707.789 5  -3032657.61921
  20629107.8114    -878831.27847   -684807.62962
 91  4 23 21 19 29.9980000  0  6G18G 2G11G16G 6G19
  22250190.1864    9148460.13246   7128639.25761
  20839242.772   -14810275.544 7 -11540443.72522
  22569241.9364   -5752979.25846  -4482821.67961
  23205643.131      -21760.377 5
  22511791.990    -8757444.086 5  -3062841.67721
  20630066.3034    -873769.27747   -680863.24162
 91  4 23 21 19 44.9980000  0  6G18G 2G11G16G 6G19
  22257920.9904    9189094.31846   7160302.09861
  20833315.490   -14841424.836 7 -11564715.84922
  22570656.772    -5745531.739 6  -4477018.43421
  23205681.2404     -21574.14045
  22504424.014    -8796171.055 6  -3093018.47721
  20631044.7794    -868649.05247   -676873.48662
 91  4 23 21 19 59.9980000  0  6G18G 2G11G16G 6G19
  22265666.2174    9229783.91646   7192008.12461
  20827401.662   -14872500.206 7 -11588930.37322
  22572103.295    -5737941.818 6  -4471104.23421
  23205738.850      -21271.839 5
  22497053.8424   -8834895.82345  -3123193.54461
  20632025.686     -863477.557 7   -672843.77622
 91  4 23 21 20 14.9980000  0  6G18G 2G11G16G 6G19
  22273417.678     9270532.945 6   7223760.44721
  20821503.232   -14903497.715 7 -11613084.22922
  22573571.7094   -5730205.78846  -4465076.16061
  23205818.225      -20849.841 5    -12859.02821
  22489683.904    -8873614.473 5  -3153363.87021
  20633024.342     -858250.836 7   -668771.03222
 91  4 23 21 20 29.9980000  0  6G18G 2G11G16G 6G19
  22281184.522     9311341.842 6   7255559.42421
  20815618.420   -14934416.145 7 -11637176.46622
  22575075.0614   -5722322.52646  -4458933.38661
  23205919.2724     -20307.06745    -12436.17661
  22482318.2174   -8912325.91645  -3183528.55061
  20634028.631     -852967.656 7   -664654.29122
 91  4 23 21 20 44.9980000  0  6G18G 2G11G16G 6G19
  22288960.1394    9352205.71846   7287401.24761
  20809748.459   -14965260.227 7 -11661210.75822
  22576602.787    -5714296.940 6  -4452679.69721
  23206045.920      -19648.266 5    -11922.91921
  22474951.850    -8951034.679 5  -3213691.17021
  20635044.381     -847632.711 7   -660497.20722
 91  4 23 21 20 59.9980000  0  6G18G 2G11G16G 6G19
  22296749.264     9393130.625 6   7319290.61421
  20803896.162   -14996023.780 7 -11685182.30822
  22578154.8974   -5706123.04846  -4446310.42961
  23206195.467      -18867.410 5    -11314.53121
  22467589.8504   -8989734.68346  -3243846.95761
  20636066.795     -842239.743 7   -656294.91622
 91  4 23 21 21 14.9980000  0  6G18G 2G11G16G 6G19
  22304547.8734    9434116.22646   7351227.29161
  20798057.592   -15026706.846 7 -11709091.14522
  22579741.279    -5697801.060 6  -4439825.79321
  23206367.256      -17964.866 5    -10611.32821
  22460223.4284   -9028425.95845  -3273995.92961
  20637108.061     -836788.673 7   -652047.35322
 91  4 23 21 21 29.9980000  0  6G18G 2G11G16G 6G19
  22312360.123     9475160.908 6   7383209.99421
  20792232.193   -15057310.669 7 -11732938.22823
  22581352.6624   -5689332.29446  -4433226.75161
  23206560.8264     -16942.31745     -9814.62761
  22452861.8264   -9067109.81445  -3304139.12861
  20638155.998     -831280.689 7   -647755.43722
 91  4 23 21 21 44.9980000  0  6G18G 2G11G16G 6G19
  22320181.842     9516262.082 6   7415236.71521
  20786422.451   -15087837.748 7 -11756725.51622
  22582989.357    -5680719.191 6  -4426515.26021
  23206779.3654     -15801.94845     -8926.12561
  22445502.5764   -9105788.43145  -3334278.23961
  20639214.740     -825718.060 7   -643420.93622
 91  4 23 21 21 59.9980000  0  6G18G 2G11G16G 6G19
  22328009.248     9557418.887 6   7447306.79621
  20780629.373   -15118288.659 7 -11780453.45223
  22584655.7254   -5671962.52346  -4419691.89961
  23207015.162      -14544.356 5     -7946.26221
  22438141.115    -9144462.460 5  -3364413.77321
  20640283.912     -820101.248 7   -639044.21522
 91  4 23 21 22 14.9980000  0  6G18G 2G11G16G 6G19
  22335853.3184    9598627.81146   7479417.48361
  20774848.225   -15148666.587 7 -11804124.52023
  22586353.8574   -5663065.50846  -4412759.16561
  23207274.100      -13173.289 5     -6877.98321
  22430785.0684   -9183135.12545  -3394548.24761
  20641361.607     -814433.373 7   -634627.71122
 91  4 23 21 22 29.9980000  0  6G18G 2G11G16G 6G19
  22343705.420     9639886.734 6   7511567.12921
  20769081.022   -15178973.763 7 -11827740.44523
  22588071.6074   -5654030.46146  -4405718.86561
  23207561.623      -11691.227 5     -5723.20721
  22423427.818    -9221808.535 6  -3424683.30621
  20642447.295     -808716.555 7   -630173.06322
 91  4 23 21 22 44.9980000  0  6G18G 2G11G16G 6G19
  22351567.975     9681200.963 6   7543759.86021
  20763327.514   -15209204.386 7 -11851296.72823
  22589814.397    -5644851.823 6  -4398566.68321
  23207865.092      -10092.753 5     -4477.72921
  22416066.287    -9260476.883 6  -3454814.41021
  20643547.076     -802944.921 7   -625675.70322
 91  4 23 21 22 59.9980000  0  6G18G 2G11G16G 6G19
  22359441.1314    9722564.96046   7575991.38761
  20757589.889   -15239363.544 7 -11874797.31523
  22591589.357    -5635534.856 6  -4391306.74521
  23208190.592       -8382.975 5     -3145.53121
  22408708.318    -9299145.302 5  -3484945.58221
  20644655.482     -797123.607 7   -621139.63122
 91  4 23 21 23 14.9980000  0  6G18G 2G11G16G 6G19
  22367324.748     9763989.568 6   7608270.13821
  20751866.490   -15269440.170 7 -11898233.59523
  22593390.5764   -5626068.90546  -4383930.65261
  23208539.1704      -6550.75845     -1717.90861
  22401353.2724   -9337802.86146  -3515068.27361
  20645775.420     -791241.696 7   -616556.33622
 91  4 23 21 23 29.9980000  0  6G18G 2G11G16G 6G19
  22375216.412     9805468.491 6   7640591.20821
  20746156.100   -15299440.302 7 -11921610.27123
  22595219.303    -5616459.916 6  -4376443.14321
  23208910.420       -4602.505 5      -199.89321
  22393997.123    -9376455.386 6  -3545187.04421
  20646902.295     -785304.797 7   -611930.19622
 91  4 23 21 23 44.9980000  0  6G18G 2G11G16G 6G19
  22383118.475     9847006.830 6   7672958.57621
  20740463.350   -15329358.838 7 -11944923.36223
  22597075.6544   -5606702.91246  -4368840.30361
  23209302.928       -2533.495 5      1412.24921
  22386644.990    -9415097.708 6  -3575297.87921
  20648047.482     -779307.940 7   -607257.34022
 91  4 23 21 23 59.9980000  0  6G18G 2G11G16G 6G19
  22391034.8264    9888594.70146   7705364.54961
  20734783.443   -15359205.279 7 -11968180.27823
  22598960.1234   -5596807.31446  -4361129.43661
  23209717.9284       -353.08345      3111.18561
  22379290.170    -9453739.196 6  -3605408.06221
  20649194.850     -773260.376 7   -602544.96822
 91  4 23 21 24 14.9980000  0  6G18G 2G11G16G 6G19
  22398957.943     9930233.238 6   7737809.99021
  20729117.639   -15388978.055 7 -11991379.79423
  22600868.334    -5586771.894 6  -4353309.63621
  23210157.654        1940.094 5      4897.97121
  22371936.0844   -9492378.34546  -3635516.40161
  20650359.076     -767160.451 7   -597791.79622
 91  4 23 21 24 29.9980000  0  6G18G 2G11G16G 6G19
  22406888.225     9971926.498 6   7770298.08621
  20723467.826   -15418673.089 7 -12014518.73523
  22602805.7404   -5576592.74546  -4345377.83461
  23210613.045        4349.552 5      6775.38021
  22364587.451    -9531011.156 6  -3665619.82221
  20651528.529     -761004.020 7   -592994.58822
 91  4 23 21 24 44.9980000  0  6G18G 2G11G16G 6G19
  22414837.2644   10013680.29746   7802833.33861
  20717831.857   -15448284.284 7 -12037592.34523
  22604772.9364   -5566263.93246  -4337329.41261
  23211095.1934       6881.34245      8748.10461
  22357237.537    -9569631.483 6  -3695713.51021
  20652711.975     -754785.029 7   -588148.63822
 91  4 23 21 24 59.9980000  0  6G18G 2G11G16G 6G19
  22422793.0614   10055485.11646   7835408.33261
  20712210.107   -15477820.941 7 -12060607.87323
  22606764.2564   -5555794.73946  -4329171.60261
  23211596.811        9526.351 5     10809.07921
  22349887.686    -9608248.355 6  -3725804.51121
  20653903.975     -748512.530 7   -583260.99222
 91  4 23 21 25 14.9980000  0  6G18G 2G11G16G 6G19
  22430757.4754   10097340.49346   7868022.73861
  20706603.740   -15507283.101 7 -12083565.35423
  22608781.607    -5545185.380 6  -4320904.58021
  23212124.459       12284.179 5     12957.93821
  22342539.795    -9646861.950 6  -3755892.94721
  20655109.701     -742186.616 7   -578331.72722
 91  4 23 21 25 29.9980000  0  6G18G 2G11G16G 6G19
  22438732.9824   10139250.61846   7900679.80561
  20701013.295   -15536666.541 7 -12106461.49923
  22610828.4514   -5534431.77346  -4312525.16761
  23212671.2564      15158.86045     15197.86161
  22335195.4514   -9685467.83946  -3785975.39661
  20656323.350     -735802.654 7   -573357.23322
 91  4 23 21 25 44.9980000  0  6G18G 2G11G16G 6G19
  22446717.951    10181207.054 6   7933372.96021
  20695435.607   -15565979.225 7 -12129302.50723
  22612903.5224   -5523542.12146  -4304039.70861
  23213236.951       18141.917 5     17522.22921
  22327846.928    -9724074.005 6  -3816058.05621
  20657547.139     -729368.784 7   -568343.85322
 91  4 23 21 25 59.9980000  0  6G18G 2G11G16G 6G19
  22454711.2564   10223214.74346   7966106.04261
  20689871.756   -15595216.317 7 -12152084.60723
  22614999.592    -5512511.698 6  -4295444.60021
  23213826.2324      21238.15245     19934.79561
  22320501.6624   -9762675.63546  -3846137.16561
  20658782.311     -722879.977 7   -563287.65722
 91  4 23 21 26 14.9980000  0  6G18G 2G11G16G 6G19
  22462714.9754   10265273.57446   7998878.97361
  20684321.951   -15624377.694 7 -12174807.70723
  22617126.7794   -5501340.45146  -4286739.74961
  23214440.3504      24447.97945     22435.86061
  22313158.834    -9801272.496 6  -3876212.56521
  20660030.326     -716335.985 7   -558188.46422
 91  4 23 21 26 29.9980000  0  6G18G 2G11G16G 6G19
  22470725.7174   10307379.40046   8031688.53061
  20678786.842   -15653466.830 7 -12197474.51623
  22619279.4754   -5490032.07746  -4277928.02661
  23215070.037       27767.088 5     25022.09021
  22305812.389    -9839868.131 6  -3906287.00621
  20661280.592     -709740.342 7   -553049.02322
 91  4 23 21 26 44.9980000  0  6G18G 2G11G16G 6G19
  22478747.4044   10349530.01446   8064532.99161
  20673264.732   -15682485.857 7 -12220086.70023
  22621456.998    -5478588.901 6  -4269011.28321
  23215721.147       31193.251 5     27691.71521
  22298467.959    -9878464.569 6  -3936362.07021
  20662550.576     -703094.925 7   -547870.79922
 91  4 23 21 26 59.9980000  0  6G18G 2G11G16G 6G19
  22486778.0764   10391729.08746   8097415.21261
  20667757.022   -15711430.907 7 -12242641.23623
  22623656.881    -5467007.045 6  -4259986.47721
  23216395.7724      34730.56245     30447.97561
  22291124.311    -9917057.757 6  -3966434.61621
  20663825.225     -696395.571 7   -542650.54522
 91  4 23 21 27 14.9980000  0  6G18G 2G11G16G 6G19
  22494817.568    10433973.646 6   8130332.88021
  20662262.701   -15740304.713 7 -12265140.25923
  22625888.1864   -5455289.38346  -4250855.83361
  23217090.4824      38375.90945     33288.40661
  22283780.459    -9955650.519 6  -3996506.81221
  20665107.1934    -689645.15147   -537390.50262
 91  4 23 21 27 29.9980000  0  6G18G 2G11G16G 6G19
  22502866.201    10476268.174 6   8163289.48021
  20656782.865   -15769102.393 7 -12287579.96223
  22628148.4434   -5443431.26446  -4241615.75161
  23217807.092       42133.617 5     36216.38021
  22276432.701    -9994237.902 6  -4026574.83521
  20666402.139     -682838.803 7   -532086.87522
 91  4 23 21 27 44.9980000  0  6G18G 2G11G16G 6G19
  22510923.2644   10518611.95346   8196284.45761
  20651316.693   -15797824.492 7 -12309960.77323
  22630429.6864   -5431433.57746  -4232266.91261
  23218538.592       46002.931 5     39231.36721
  22269096.678   -10032820.575 6  -4056639.18021
  20667707.717     -675977.049 7   -526740.07822
 91  4 23 21 27 59.9980000  0  6G18G 2G11G16G 6G19
  22518990.2094   10561003.86446   8229316.93961
  20645864.740   -15826471.669 7 -12332283.20223
  22632738.920    -5419296.877 6  -4222809.76221
  23219297.123       49983.181 5     42332.75021
  22261753.725   -10071399.083 6  -4086700.27721
  20669026.0294    -669060.31847   -521350.44662
 91  4 23 21 28 14.9980000  0  6G18G 2G11G16G 6G19
  22527065.4124   10603439.93046   8262383.82861
  20640426.920   -15855048.113 7 -12354550.51923
  22635075.5374   -5407025.35946  -4213247.54561
  23220076.0144      54070.10045     45517.27861
  22254411.756   -10109977.296 6  -4116761.14521
  20670351.967     -662092.480 7   -515920.97822
 91  4 23 21 28 29.9980000  0  6G18G 2G11G16G 6G19
  22535154.7564   10645928.07446   8295491.29461
  20635004.209   -15883545.479 7 -12376756.21423
  22637435.553    -5394611.007 6  -4203574.04121
  23220874.2174      58271.93245     48791.33061
  22247071.592   -10148546.944 6  -4146815.33421
  20671689.076     -655065.312 7   -510445.29122
 91  4 23 21 28 44.9980000  0  6G18G 2G11G16G 6G19
  22543246.3184   10688464.19646   8328636.14361
  20629595.365   -15911967.702 7 -12398903.35823
  22639826.3814   -5382057.78646  -4193792.32261
  23221695.8654      62584.34145     52151.55361
  22239731.615   -10187111.892 6  -4176865.87221
  20673037.647     -647982.600 7   -504926.31922
 91  4 23 21 28 59.9980000  0  6G18G 2G11G16G 6G19
  22551348.8344   10731049.91046   8361819.63961
  20624202.115   -15940312.773 7 -12420990.38123
  22642241.8184   -5369363.95546  -4183901.03361
  23222539.6004      67009.48445     55599.63461
  22232397.701   -10225670.223 6  -4206911.23921
  20674393.818     -640842.332 7   -499362.49622
 91  4 23 21 29 14.9980000  0  6G18G 2G11G16G 6G19
  22559461.459    10773682.612 6   8395039.75621
  20618821.498   -15968583.066 7 -12443019.13723
  22644681.2094   -5356531.89146  -4173902.03861
  23223399.365       71544.542 5     59133.34321
  22225058.217   -10264223.974 6  -4236953.05021
  20675767.178     -633646.548 7   -493755.41622
 91  4 23 21 29 29.9980000  0  6G18G 2G11G16G 6G19
  22567585.3574   10816359.66146   8428294.41461
  20613457.295   -15996780.863 7 -12464991.39923
  22647150.7404   -5343564.07846  -4163797.25661
  23224285.670       76186.988 5     62750.73221
  22217724.3424  -10302775.47646  -4266993.11261
  20677144.568     -626397.464 7   -488106.80722
 91  4 23 21 29 44.9980000  0  6G18G 2G11G16G 6G19
  22575716.2724   10859091.29545   8461591.61061
  20608106.881   -16024895.737 7 -12486899.05123
  22649646.7404   -5330450.45146  -4153578.85461
  23225191.1394      80947.02045     66459.74561
  22210389.162   -10341314.334 6  -4297023.30721
  20678535.311     -619084.870 7   -482408.70622
 91  4 23 21 29 59.9980000  0  6G18G 2G11G16G 6G19
  22583855.9124   10901871.70546   8494926.81161
  20602770.725   -16052933.233 7 -12508746.39823
  22652167.225    -5317196.739 6  -4143251.29421
  23226116.7564      85818.74345     70255.80861
  22203055.037   -10379846.108 6  -4327048.00021
  20679940.6784    -611714.12647   -476665.29162
 91  4 23 21 30 14.9980000  0  6G18G 2G11G16G 6G19
  22592006.9754   10944695.63546   8528295.93161
  20597448.912   -16080898.443 7 -12530537.42623
  22654715.584    -5303808.112 6  -4132818.61221
  23227062.3814      90797.02445     74134.89661
  22195724.709   -10418375.711 6  -4357070.98321
  20681351.4754    -604290.05447   -470880.33262
 91  4 23 21 30 29.9980000  0  6G18G 2G11G16G 6G19
  22600164.8114   10987566.49346   8561701.60861
  20592142.826   -16108787.549 7 -12552269.15622
  22657290.803    -5290280.759 6  -4122277.83621
  23228037.0924      95885.77245     78100.05761
  22188395.584   -10456899.230 6  -4387089.22021
  20682773.686     -596808.715 7   -465050.73922
 91  4 23 21 30 44.9970000  0  6G18G 2G11G16G 6G19
  22608330.2744   11030483.80846   8595143.49461
  20586850.103   -16136596.230 7 -12573938.20923
  22659889.3374   -5276613.64046  -4111628.14461
  23229024.978      101086.245 5     82152.29121
  22181064.806   -10495411.728 6  -4417098.89121
  20684212.829     -589268.277 7   -459175.09622
 91  4 23 21 30 59.9970000  0  6G18G 2G11G16G 6G19
  22616508.017    11073458.339 6   8628629.95921
  20581573.439   -16164323.119 7 -12595543.53023
  22662519.040    -5262799.730 6  -4100864.07121
  23230036.884      106404.305 5     86296.13721
  22173737.618   -10533913.036 6  -4447099.83421
  20685658.345     -581662.212 7   -453248.32122
 91  4 23 21 31 14.9970000  0  6G18G 2G11G16G 6G19
  22624698.4314   11116477.20646   8662150.96461
  20576311.720   -16191975.936 7 -12617091.13523
  22665173.0404   -5248849.56946  -4089993.81761
  23231065.4464     111829.86045     90523.75761
  22166413.5094  -10572410.07846  -4477097.44461
  20687114.5564    -574000.63747   -447278.28962
 91  4 23 21 31 29.9970000  0  6G18G 2G11G16G 6G19
  22632891.1424   11159541.43846   8695707.32661
  20571063.532   -16219553.279 7 -12638579.92623
  22667855.782    -5234762.095 6  -4079016.57821
  23232122.673      117364.176 5     94836.13021
  22159087.501   -10610901.466 6  -4507090.66621
  20688586.2434    -566282.21846   -441263.96462
 91  4 23 21 31 44.9970000  0  6G18G 2G11G16G 6G19
  22641097.103    11202656.475 6   8729303.26921
  20565831.2044  -16247049.60047 -12660005.59763
  22670563.806    -5220532.005 6  -4067928.21521
  23233201.2674     123012.54345     99237.34061
  22151764.962   -10649381.683 6  -4537075.17121
  20690065.4544    -558501.11147   -435200.78962
 91  4 23 21 31 59.9970000  0  6G18G 2G11G16G 6G19
  22649311.1104   11245820.03246   8762937.03061
  20560614.2434  -16274466.71447 -12681369.53663
  22673298.0954   -5206161.21946  -4056730.20161
  23234293.0954     128772.93245    103725.87461
  22144443.251   -10687852.261 6  -4567052.16521
  20691554.5244    -550659.09547   -429090.16662
 91  4 23 21 32 14.9970000  0  6G18G 2G11G16G 6G19
  22657532.3924   11289028.01946   8796605.40561
  20555410.9314  -16301808.70347 -12702674.94363
  22676055.603    -5191653.818 6  -4045425.73921
  23235405.1574     134641.14745    108298.42061
  22137126.485   -10726317.281 6  -4597024.83321
  20693060.7984    -542760.04847   -422935.08762
 91  4 23 21 32 29.9970000  0  6G18G 2G11G16G 6G19
  22665762.759    11332283.167 6   8830310.52121
  20550223.110   -16329072.788 7 -12723919.63923
  22678845.142    -5177007.276 6  -4034012.88121
  23236549.814      140619.711 5    112956.94021
  22129806.845   -10764773.896 6  -4626990.94621
  20694572.3214    -534801.25347   -416733.46062
 91  4 23 21 32 44.9970000  0  6G18G 2G11G16G 6G19
  22674003.8294   11375585.34546   8864052.30061
  20545049.509   -16356258.449 7 -12745103.22723
  22681659.4394   -5162221.34146  -4022491.37661
  23237708.689      146709.158 5    117701.84321
  22122490.493   -10803221.555 6  -4656950.08721
  20696101.3534    -526781.95447   -410484.68762
 91  4 23 21 32 59.9970000  0  6G18G 2G11G16G 6G19
  22682251.1424   11418933.59646   8897829.99361
  20539890.446   -16383366.682 7 -12766226.48123
  22684500.032    -5147297.074 6  -4010862.10121
  23238883.8764     152907.90545    122531.94561
  22115175.3924  -10841661.09646  -4686902.90961
  20697636.220     -518703.083 7   -404189.48822
 91  4 23 21 33 14.9970000  0  6G18G 2G11G16G 6G19
  22690511.2044   11462325.89746   8931641.98961
  20534746.2204  -16410398.92947 -12787290.53563
  22687366.337    -5132236.328 6  -3999126.47221
  23240086.243      159214.212 5    127445.85521
  22107861.446   -10880094.114 6  -4716850.64021
  20699187.6734    -510566.16147   -397849.05762
 91  4 23 21 33 29.9970000  0  6G18G 2G11G16G 6G19
  22698777.9154   11505759.08246   8965485.84461
  20529617.087   -16437358.204 7 -12808297.71723
  22690255.837    -5117042.117 6  -3987286.84321
  23241308.2354     165624.88245    132441.09261
  22100550.485   -10918523.445 6  -4746795.49221
  20700745.0404    -502374.07047   -391465.64162
 91  4 23 21 33 44.9970000  0  6G18G 2G11G16G 6G19
  22707049.626    11549240.288 6   8999367.11421
  20524501.2434  -16464237.22047 -12829242.37063
  22693173.485    -5101707.141 6  -3975337.53721
  23242553.1814     172147.09645    137523.20061
  22093237.2984  -10956941.51346  -4776731.58361
  20702315.407     -494119.186 7   -385033.28922
 91  4 23 21 33 59.9970000  0  6G18G 2G11G16G 6G19
  22715329.8144   11592762.33846   9033280.22061
  20519400.243   -16491043.008 7 -12850129.95123
  22696119.368    -5086238.793 6  -3963284.29021
  23243807.7434     178773.64345    142686.65361
  22085929.353   -10995355.447 6  -4806664.44821
  20703896.1734    -485808.47347   -378557.43862
 91  4 23 21 34 14.9970000  0  6G18G 2G11G16G 6G19
  22723623.4624   11636326.14246   9067225.86361
  20514313.110   -16517774.699 7 -12870959.79723
  22699087.040    -5070636.268 6  -3951126.49021
  23245084.6814     185505.29745    147932.00061
  22078620.087   -11033764.198 6  -4836593.27321
  20705490.4934    -477441.02047   -372037.37362
 91  4 23 21 34 29.9970000  0  6G18G 2G11G16G 6G19
  22731921.001    11679934.949 6   9101206.55921
  20509239.6964  -16544428.70447 -12891729.11463
  22702082.501    -5054896.167 6  -3938861.50021
  23246392.384      192345.633 5    153262.02521
  22071312.009   -11072164.174 6  -4866515.25321
  20707093.681     -469013.038 7   -365470.14222
 91  4 23 21 34 44.9970000  0  6G18G 2G11G16G 6G19
  22740229.931    11723589.295 6   9135222.76021
  20504184.564   -16571003.869 7 -12912436.99323
  22705104.704    -5039017.675 6  -3926488.67121
  23247716.6494     199294.79345    158676.82961
  22064007.3604  -11110554.25846  -4896429.53861
  20708709.978     -460523.418 7   -358854.87622
 91  4 23 21 34 59.9970000  0  6G18G 2G11G16G 6G19
  22748543.0564   11767287.40546   9169273.04361
  20499143.0714  -16597501.73347 -12933084.64163
  22708151.798    -5023002.548 6  -3914009.36521
  23249058.8844     206351.59845    164175.54261
  22056703.7744  -11148935.95446  -4926337.28661
  20710336.642     -451973.656 7   -352192.74722
 91  4 23 21 35 14.9970000  0  6G18G 2G11G16G 6G19
  22756867.509    11811023.174 6   9203352.68521
  20494113.3374  -16623927.99647 -12953676.49463
  22711224.931    -5006856.534 6  -3901428.08521
  23250411.9624     213509.66145    169753.17361
  22049399.970   -11187314.799 6  -4956242.80921
  20711975.5484    -443369.19447   -345488.00162
 91  4 23 21 35 29.9970000  0  6G18G 2G11G16G 6G19
  22765196.595    11854793.977 6   9237459.61121
  20489095.353   -16650285.334 7 -12974214.64023
  22714321.7284   -4990582.36646  -3888746.92961
  23251801.3144     220766.65345    175407.83861
  22042097.235   -11225693.130 6  -4986147.93321
  20713619.157     -434712.474 7   -338742.53022
 91  4 23 21 35 44.9970000  0  6G18G 2G11G16G 6G19
  22773536.1494   11898601.21246   9271594.92161
  20484094.5714  -16676572.17947 -12994697.85463
  22717444.181    -4974178.727 6  -3875964.88421
  23253206.907      228124.117 5    181140.82721
  22034791.431   -11264069.475 6  -5016051.51221
  20715278.954     -426001.957 6   -331955.13022
 91  4 23 21 35 59.9970000  0  6G18G 2G11G16G 6G19
  22781877.376    11942447.448 6   9305760.63821
  20479106.0244  -16702785.72847 -13015123.95862
  22720588.2124   -4957643.03746  -3863079.96661
  23254621.8994     235584.11445    186953.69161
  22027491.5484  -11302441.02346  -5045951.34961
  20716944.0404    -417234.74447   -325123.56762
 91  4 23 21 36 14.9970000  0  6G18G 2G11G16G 6G19
  22790227.157    11986329.489 6   9339954.24021
  20474131.3214  -16728928.72747 -13035495.08463
  22723761.149    -4940978.226 6  -3850094.41021
  23256057.0244     243143.76845    192844.23961
  22020189.0954  -11340810.30946  -5075849.43161
  20718626.8764    -408413.50247   -318249.89962
 91  4 23 21 36 29.9970000  0  6G18G 2G11G16G 6G19
  22798582.446    12030243.088 5   9374172.42721
  20469168.837   -16755005.333 7 -13055814.47423
  22726955.3064   -4924188.68746  -3837011.67461
  23257514.548      250798.738 5    198809.03721
  22012889.4394  -11379181.49246  -5105748.97861
  20720313.993     -399542.242 6   -311337.25922
 91  4 23 21 36 44.9970000  0  6G18G 2G11G16G 6G19
  22806948.243    12074199.424 5   9408423.92221
  20464222.931   -16781004.006 7 -13076073.14023
  22730175.9934   -4907263.14346  -3823822.97161
  23258997.329      258559.951 5    204856.61521
  22005587.8844  -11417543.05446  -5135641.03461
  20722015.251     -390609.506 6   -304376.71322
 91  4 23 21 36 59.9970000  0  6G18G 2G11G16G 6G19
  22815320.2204   12118195.40345   9442706.29861
  20459287.8374  -16806927.63247 -13096273.33263
  22733421.735    -4890204.463 6  -3810530.50921
  23260489.759      266424.915 5    210985.05921
  21998289.3924  -11455897.58946  -5165527.62361
  20723725.8764    -381617.82547   -297370.23862
 91  4 23 21 37 14.9970000  0  6G18G 2G11G16G 6G19
  22823697.376    12162225.983 5   9477015.65021
  20454369.064   -16832781.095 7 -13116418.84523
  22736693.3214   -4873017.68946  -3797138.22561
  23262000.1894     274388.29345    217190.19761
  21990990.5954  -11494249.87346  -5195412.45461
  20725447.071     -372572.086 7   -290321.63422
 91  4 23 21 37 29.9970000  0  6G18G 2G11G16G 6G19
  22832081.993    12206289.593 5   9511350.73921
  20449462.9624  -16858565.99347 -13136510.93363
  22739986.556    -4855704.457 6  -3783647.42421
  23263539.2824     282448.00445    223470.37961
  21983694.6734  -11532601.40946  -5225296.70261
  20727178.095     -363473.680 7   -283231.98922
 91  4 23 21 37 44.9970000  0  6G18G 2G11G16G 6G19
  22840478.040    12250392.329 5   9545716.30921
  20444571.0244  -16884275.75047 -13156544.46963
  22743307.993    -4838258.695 6  -3770053.34521
  23265094.446      290610.942 5    229830.98121
  21976395.7594  -11570945.67446  -5255175.27561
  20728921.501     -354316.061 6   -276096.20722
 91  4 23 21 37 59.9970000  0  6G18G 2G11G16G 6G19
  22848876.962    12294525.914 5   9580105.91821
  20439689.7354  -16909918.28647 -13176525.62963
  22746649.1814   -4820688.57546  -3756362.35261
  23266660.103      298868.717 5    236265.51221
  21969098.7824  -11609290.53846  -5285054.33361
  20730671.220     -345107.084 7   -268920.40422
 91  4 23 21 38 14.9970000  0  6G18G 2G11G16G 6G19
  22857280.8064   12338695.19845   9614523.34061
  20434823.3764  -16935488.41647 -13196450.37263
  22750015.3994   -4802988.91246  -3742570.42061
  23268249.774      307226.318 5    242777.85921
  21961803.8144  -11647630.52946  -5314929.57861
  20732437.4544    -335841.29347   -261700.33662
 91  4 23 21 38 29.9970000  0  6G18G 2G11G16G 6G19
  22865691.7124   12382895.60245   9648965.00761
  20429970.6814  -16960990.71047 -13216322.25263
  22753412.6814   -4785164.53946  -3728681.31961
  23269862.6574     315678.80645    249364.06861
  21954506.6734  -11685970.21846  -5344804.60161
  20734207.6654    -326523.25247   -254439.55862
 91  4 23 21 38 44.9970000  0  6G18G 2G11G16G 6G19
  22874111.6424   12427131.67745   9683434.46761
  20425133.4394  -16986420.44447 -13236137.58963
  22756826.524    -4767210.660 6  -3714691.30721
  23271492.782      324230.863 5    256027.90121
  21947213.9854  -11724304.69146  -5374675.54761
  20735995.001     -317147.791 6   -247134.03022
 91  4 23 21 38 59.9970000  0  6G18G 2G11G16G 6G19
  22882535.657    12471404.349 5   9717932.44621
  20420307.743   -17011776.355 7 -13255895.40123
  22760267.751    -4749126.336 6  -3700599.63021
  23273134.7674     332883.65445    262770.22561
  21939919.189   -11762632.695 6  -5404541.45921
  20737786.8064    -307713.80046   -239782.89762
 91  4 23 21 39 14.9970000  0  6G18G 2G11G16G 6G19
  22890968.3604   12515714.62445   9752459.72861
  20415496.7434  -17037056.88047 -13275594.46963
  22763734.2354   -4730910.39246  -3686405.40461
  23274800.306      341638.188 5    269591.86721
  21932626.6734  -11800952.62646  -5434401.06961
  20739596.946     -298219.824 6   -232385.02122
 91  4 23 21 39 29.9970000  0  6G18G 2G11G16G 6G19
  22899406.8294   12560056.96345   9787011.98761
  20410698.860   -17062267.643 7 -13295239.18223
  22767223.165    -4712568.505 6  -3672113.04721
  23276484.478      350488.720 5    276488.26021
  21925335.3994  -11839269.92046  -5464258.64461
  20741412.8374    -288671.12346   -224944.51362
 91  4 23 21 39 44.9970000  0  6G18G 2G11G16G 6G19
  22907850.2674   12604427.59945   9821586.30861
  20405914.274   -17087412.204 7 -13314832.30123
  22770739.274    -4694104.378 6  -3657725.43221
  23278193.149      359431.442 5    283456.50021
  21918045.4394  -11877588.01446  -5494116.82961
  20743239.8064    -279071.27746   -217464.14162
 91  4 23 21 39 59.9970000  0  6G18G 2G11G16G 6G19
  22916298.814    12648835.725 5   9856189.84421
  20401143.1814  -17112481.25947 -13334366.59463
  22774277.5174   -4675509.00646  -3643235.53361
  23279908.290      368475.268 5    290503.55821
  21910751.649   -11915897.664 6  -5523968.43221
  20745076.485     -269410.826 7   -209936.54422
 91  4 23 21 40 14.9970000  0  6G18G 2G11G16G 6G19
  22924754.5874   12693273.45745   9890816.43261
  20396386.814   -17137482.102 7 -13353847.72623
  22777840.829    -4656789.757 6  -3628649.12721
  23281650.5794     377612.71545    297623.53461
  21903462.5794  -11954205.84846  -5553818.89861
  20746926.6264    -259696.81646   -202367.21262
 91  4 23 21 40 29.9970000  0  6G18G 2G11G16G 6G19
  22933216.7594   12737740.52145   9925465.87761
  20391641.0094  -17162414.94847 -13373275.88063
  22781425.603    -4637946.953 6  -3613966.43221
  23283404.8454     386843.81345    304816.49761
  21896175.532   -11992512.731 6  -5583668.34621
  20748783.134     -249929.260 6   -194756.15222
 91  4 23 21 40 44.9970000  0  6G18G 2G11G16G 6G19
  22941687.9074   12782244.12645   9960143.79561
  20386911.9784  -17187272.49747 -13392645.35863
  22785034.8844   -4618973.73946  -3599182.11961
  23285182.8924     396175.19545    312087.58961
  21888886.3144  -12030811.03646  -5613511.11961
  20750656.4704    -240101.03346   -187097.81862
 91  4 23 21 40 59.9970000  0  6G18G 2G11G16G 6G19
  22950162.915    12826775.955 5   9994843.71621
  20382193.5484  -17212062.69047 -13411962.35363
  22788668.6184   -4599878.06146  -3584302.36661
  23286973.837      405598.569 5    319430.36621
  21881599.8994  -12069108.41546  -5643353.17461
  20752533.392     -230220.024 6   -179398.35422
 91  4 23 21 41 14.9970000  0  6G18G 2G11G16G 6G19
  22958641.1424   12871336.51245  10029566.02061
  20377489.0874  -17236784.77347 -13431226.27063
  22792327.8064   -4580659.35346  -3569326.77461
  23288788.5714     415115.07645    326845.72061
  21874311.5954  -12107403.92446  -5673193.76961
  20754427.728     -220284.982 6   -171656.78922
 91  4 23 21 41 29.9970000  0  6G18G 2G11G16G 6G19
  22967125.048    12915929.918 5  10064313.91621
  20372798.3534  -17261434.53647 -13450433.84263
  22796007.8684   -4561313.75946  -3554252.28161
  23290614.2594     424728.14745    334336.30661
  21867026.626   -12145693.429 6  -5703029.66721
  20756327.243     -210291.882 6   -163869.98722
 91  4 23 21 41 44.9970000  0  6G18G 2G11G16G 6G19
  22975618.0174   12960553.97945  10099085.68161
  20368121.8764  -17286013.82947 -13469586.49763
  22799713.665    -4541843.387 6  -3539080.58421
  23292459.853      434435.748 5    341900.56121
  21859740.939   -12183978.750 6  -5732862.31021
  20758240.6184    -200242.28046   -156039.15262
 91  4 23 21 41 59.9970000  0  6G18G 2G11G16G 6G19
  22984114.7124   13005206.07745  10133879.32561
  20363456.4464  -17310524.94047 -13488686.02763
  22803441.6894   -4522250.49746  -3523813.40161
  23294324.0404     444235.53545    349536.62761
  21852452.595   -12222261.918 6  -5762693.28221
  20760163.728     -190138.429 6   -148166.05023
 91  4 23 21 42 14.9970000  0  6G18G 2G11G16G 6G19
  22992620.4854   13049892.18845  10168699.47061
  20358806.696   -17334961.603 7 -13507727.54023
  22807195.165    -4502529.075 6  -3508446.07121
  23296210.267      454133.709 5    357249.40021
  21845170.9934  -12260536.52946  -5792517.59661
  20762096.298     -179973.971 6   -140245.71422
 91  4 23 21 42 29.9970000  0  6G18G 2G11G16G 6G19
  23001128.368    13094610.414 5  10203544.64521
  20354170.4544  -17359325.85747 -13526712.63263
  22810970.1494   -4482681.45446  -3492980.40661
  23298116.993      464127.762 5    365036.85321
  21837889.5014  -12298804.70546  -5822336.87961
  20764043.4624    -169750.87946   -132279.69763
 91  4 23 21 42 44.9970000  0  6G18G 2G11G16G 6G19
  23009645.501    13139362.684 5  10238416.31821
  20349548.4154  -17383615.10847 -13545639.28563
  22814774.532    -4462705.318 6  -3477414.60321
  23300035.642      474219.885 5    372900.72121
  21830607.9314  -12337063.66946  -5852149.00361
  20765999.7674    -159466.47346   -124265.90062
 91  4 23 21 42 59.9970000  0  6G18G 2G11G16G 6G19
  23018165.9934   13184143.96445  10273310.62061
  20344939.0714  -17407834.11847 -13564511.20163
  22818597.470    -4442605.559 6  -3461752.46921
  23301970.595      484404.956 5    380837.02421
  21823327.329   -12375318.153 6  -5881957.61521
  20767967.595     -149125.389 6   -116207.93522
 91  4 23 21 43 14.9970000  0  6G18G 2G11G16G 6G19
  23026696.0564   13228955.11745  10308228.18361
  20340344.1424  -17431981.97847 -13583327.68363
  22822445.470    -4422381.453 6  -3445993.43521
  23303927.3294     494683.94544    388846.51661
  21816049.6894  -12413566.99546  -5911761.85061
  20769945.0324    -138726.51746   -108104.94663
 91  4 23 21 43 29.9970000  0  6G18G 2G11G16G 6G19
  23035226.954    13273793.345 5  10343166.84521
  20335762.907   -17456061.355 7 -13602090.79223
  22826318.3064   -4402035.90346  -3430139.79061
  23305900.345      505053.965 5
  21808770.923   -12451812.760 6  -5941563.66521
  20771936.3534    -128272.46846
 91  4 23 21 43 44.9970000  0  6G18G 2G11G16G 6G19
  23043766.189    13318660.937 5  10378128.38721
  20331195.399   -17480069.571 7 -13620798.45023
  22830210.985    -4381566.376 6  -3414189.52521
  23307890.6104     515517.38745
  21801492.9544  -12490052.75646  -5971361.00461
  20773936.9314    -117760.47246
 91  4 23 21 43 59.9970000  0  6G18G 2G11G16G 6G19
  23052306.907    13363552.865 5  10413108.88821
  20326636.6734  -17504011.53147 -13639454.48763
  22834131.399    -4360977.916 6  -3398146.58921
  23309898.7284     526069.02745
  21794218.6734  -12528291.63246  -6001157.46361
  20775950.1894    -107195.21846
 91  4 23 21 44 14.9970000  0  6G18G 2G11G16G 6G19
  23060857.970    13408478.522 5  10448115.67321
  20322095.0644  -17527877.69947 -13658051.46363
  22838073.212    -4340261.176 6  -3382003.69621
  23311922.4784     536718.27745
  21786942.782   -12566519.733 6  -6030945.52121
  20777968.860      -96567.072 6    -75253.52822
 91  4 23 21 44 29.9970000  0  6G18G 2G11G16G 6G19
  23069412.931    13453429.954 5  10483142.53821
  20317567.946   -17551675.749 7 -13676595.35423
  22842035.462    -4319424.109 6  -3365767.03621
  23313968.3764     547457.15245
  21779669.6264  -12604744.59746  -6060731.06261
  20779999.915      -85883.428 6
 91  4 23 21 44 44.9970000  0  6G18G 2G11G16G 6G19
  23077971.4704   13498409.75445  10518191.52061
  20313051.6424  -17575402.98147 -13695084.06363
  22846027.501    -4298464.062 6  -3349434.56721
  23316027.6424     558288.35745
  21772395.814   -12642963.349 6  -6090511.84921
  20782046.345      -75141.548 6    -58558.35222
 91  4 23 21 44 59.9970000  0  6G18G 2G11G16G 6G19
  23086536.110    13543415.130 5  10553260.41121
  20308549.985   -17599061.596 7 -13713519.30123
  22850038.8374   -4277383.68346  -3333008.32361
  23318110.2824     569209.45645        -0.48671
  21765124.8144  -12681178.29546  -6120289.66461
  20784098.892      -64343.798 6    -50144.54422
 91  4 23 21 45 14.9970000  0  6G18G 2G11G16G 6G19
  23095108.4464   13588453.79345  10588355.24061
  20304061.8144  -17622643.79847 -13731895.00063
  22854074.376    -4256175.398 6  -3316482.41321
  23320205.3454     580227.59145      8584.95461
  21757854.1424  -12719381.47446  -6150058.31561
  20786167.274      -53482.232 6    -41681.01322
 91  4 23 21 45 29.9970000  0  6G18G 2G11G16G 6G19
  23103683.7124   13633515.55345  10623468.08661
  20299586.4624  -17646159.50147 -13750218.88663
  22858130.485    -4234849.285 6  -3299864.68621
  23322318.7204     591332.78045     17238.24361
  21750585.3764  -12757582.71746  -6179825.46161
  20788243.235      -42566.635 6    -33175.37522
 91  4 23 21 45 44.9970000  0  6G18G 2G11G16G 6G19
  23112261.556    13678599.200 5  10658597.97121
  20295125.3924  -17669609.51947 -13768491.59663
  22862213.8454   -4213406.38246  -3283155.96661
  23324453.368      602523.690 5     25958.26421
  21743316.3144  -12795782.63746  -6209591.56561
  20790331.5404     -31597.57946    -24628.08262
 91  4 23 21 45 59.9970000  0  6G18G 2G11G16G 6G19
  23120843.5404   13723712.63745  10693751.09061
  20290677.1734  -17692986.07347 -13786707.05063
  22866318.064    -4191838.981 6  -3266350.22221
  23326596.4314     613808.45445     34751.52861
  21736048.4624  -12833973.19246  -6239350.38361
  20792429.7824     -20567.08646    -16032.92562
 91  4 23 21 46 14.9970000  0  6G18G 2G11G16G 6G19
  23129435.2044   13768854.77945  10728926.56461
  20286243.4544  -17716290.04248 -13804865.94663
  22870443.493    -4170148.295 6  -3249448.41821
  23328762.6654     625185.64045     43616.68661
  21728782.2204  -12872155.30646  -6269102.61661
  20794541.165       -9476.091 6     -7390.61622
 91  4 23 21 46 29.9970000  0  6G18G 2G11G16G 6G19
  23138031.931    13814020.729 5  10764120.58821
  20281820.0714  -17739526.16347 -13822971.97863
  22874591.0404   -4148339.09046  -3232454.26461
  23330941.532      636650.293 5     52550.07521
  21721518.4544  -12910333.43046  -6298851.74161
  20796662.821        1670.898 6      1295.32422
 91  4 23 21 46 44.9970000  0  6G18G 2G11G16G 6G19
  23146634.204    13859223.693 5  10799343.44721
  20277414.3144  -17762680.88247 -13841014.57463
  22878768.220    -4126398.048 6  -3215357.37721
  23333144.7514     648215.88445     61562.06861
  21714255.1574  -12948493.90246  -6328587.11461
  20798797.884       12887.654 6     10035.62923
 91  4 23 21 46 59.9970000  0  6G18G 2G11G16G 6G19
  23155240.3064   13904453.51545  10834587.21061
  20273022.2354  -17785763.88147 -13859001.29163
  22882968.4704   -4104335.32546  -3198165.68261
  23335364.470      659872.351 5     70644.94421
  21706996.7434  -12986646.41646  -6358316.28761
  20800942.9074      24164.37946     18822.66062
 91  4 23 21 47 14.9970000  0  6G18G 2G11G16G 6G19
  23163850.9784   13949708.64045  10869850.70661
  20268643.720   -17808776.535 7 -13876933.18423
  22887191.134    -4082152.536 6  -3180880.43621
  23337598.439      671618.027 5     79797.22521
  21699737.5564  -13024792.40546  -6388040.37361
  20803099.6104      35499.80446     27655.42662
 91  4 23 21 47 29.9970000  0  6G18G 2G11G16G 6G19
  23172467.9854   13994990.13745  10905134.75461
  20264276.5014  -17831717.62247 -13894809.32163
  22891433.2284   -4059848.56146  -3163500.74461
  23339850.048      683453.744 5     89019.76721
  21692481.032   -13062930.198 6  -6417758.07821
  20805269.665       46895.464 6     36535.13922
 91  4 23 21 47 44.9970000  0  6G18G 2G11G16G 6G19
  23181090.970    14040298.112 5  10940439.45021
  20259923.946   -17854586.892 7 -13912629.48723
  22895700.5014   -4037423.29246  -3146026.53361
  23342116.7674     695379.60645     98312.50261
  21685224.118   -13101059.462 6  -6447469.13821
  20807449.5714      58351.66946     45462.01762
 91  4 23 21 47 59.9970000  0  6G18G 2G11G16G 6G19
  23189721.9934   14085633.36845  10975765.39961
  20255586.7824  -17877383.14947 -13930392.76963
  22899993.8374   -4014875.73546  -3128457.05761
  23344407.3844     707396.73145    107676.42361
  21677970.548   -13139179.012 6  -6477172.63121
  20809639.3764      69869.68946     54437.06962
 91  4 23 21 48 14.9970000  0  6G18G 2G11G16G 6G19
  23198356.3064   14130991.07845  11011108.82861
  20251261.2124  -17900111.06147 -13948102.79163
  22904304.3534   -3992210.86346  -3110796.14761
  23346707.9394     719500.21745    117107.58461
  21670718.954   -13177293.229 6  -6506871.96821
  20811843.767       81444.882 6     63456.67622
 91  4 23 21 48 29.9970000  0  6G18G 2G11G16G 6G19
  23206987.8374   14176367.83645  11046467.10361
  20246948.1494  -17922774.00147 -13965762.18963
  22908639.6964   -3969432.06346  -3093046.45561
  23349032.9704     731686.60545    126603.31561
  21663465.321   -13215405.280 6  -6536569.61921
  20814054.220       93074.126 6     72518.40422
 91  4 23 21 48 44.9970000  0  6G18G 2G11G16G 6G19
  23215626.478    14221764.892 5  11081841.23321
  20242649.189   -17945370.410 8 -13983369.73523
  22912997.2434   -3946538.00346  -3075206.97061
  23351361.2674     743956.81644    136164.40061
  21656212.329   -13253513.560 6  -6566264.32621
  20816280.7594     104759.00746     81623.47862
 91  4 23 21 48 59.9970000  0  6G18G 2G11G16G 6G19
  23224271.759    14267190.088 5  11117237.22721
  20238364.2744  -17967892.03847 -14000919.01963
  22917377.017    -3923520.957 6  -3057271.64721
  23353713.4314     756319.11544    145797.26961
  21648962.087   -13291609.825 6  -6595949.67821
  20818514.8144     116507.77346     90778.32862
 91  4 23 21 49 14.9970000  0  6G18G 2G11G16G 6G19
  23232923.603    14312646.091 5  11152657.28721
  20234092.7674  -17990336.13547 -14018407.88763
  22921778.6574   -3900378.18946  -3039238.34561
  23356086.751      768776.114 5    155503.87621
  21641716.0324  -13329691.03546  -6625623.29461
  20820763.5484     128323.47946     99985.34462
 91  4 23 21 49 29.9970000  0  6G18G 2G11G16G 6G19
  23241576.2594   14358126.14245  11188096.03861
  20229835.2904  -18012709.25447 -14035841.44863
  22926205.876    -3877116.574 6  -3021112.44321
  23358476.860      781320.625 5    165278.68621
  21634472.353   -13367763.689 6  -6655290.24321
  20823022.9704     140199.75246    109239.54762
 91  4 23 21 49 44.9970000  0  6G18G 2G11G16G 6G19
  23250232.634    14403624.869 5  11223549.36421
  20225589.3924  -18035016.59547 -14053223.76063
  22930654.0174   -3853741.39146  -3002898.02961
  23360878.0484     793947.42945    175117.60561
  21627226.3064  -13405832.63346  -6684954.29561
  20825296.1574     152131.58646    118537.05062
 91  4 23 21 49 59.9970000  0  6G18G 2G11G16G 6G19
  23258894.8764   14449145.77445  11259019.95561
  20221359.1494  -18057254.42347 -14070551.90163
  22935125.1184   -3830249.17146  -2984592.44461
  23363293.8294     806659.66745    185023.14361
  21619982.7824  -13443894.18446  -6714612.58761
  20827575.7594     164122.71846    127880.75962
 91  4 23 21 50 14.9970000  0  6G18G 2G11G16G 6G19
  23267561.7434   14494690.69045  11294509.25761
  20217139.3994  -18079420.47147 -14087824.11063
  22939617.548    -3806638.002 6  -2966194.14821
  23365734.642      819459.476 5    194996.89221
  21612741.9464  -13481945.99146  -6744263.28261
  20829872.0244     176175.30146    137272.35062
 91  4 23 21 50 29.9970000  0  6G18G 2G11G16G 6G19
  23276230.3924   14540259.20645  11330016.95461
  20212935.7204  -18101514.94148 -14105040.54163
  22944133.110    -3782908.303 6  -2947703.50421
  23368184.110      832346.467 5    205038.61421
  21605503.274   -13519988.080 6  -6773906.41221
  20832174.4234     188289.31046    146711.79762
 91  4 23 21 50 44.9970000  0  6G18G 2G11G16G 6G19
  23284905.571    14585848.811 5  11365541.10621
  20208742.8294  -18123540.15047 -14122203.00763
  22948672.087    -3759062.641 6  -2929122.48821
  23370655.220      845318.134 5    215146.23321
  21598265.282   -13558022.632 6  -6803543.66421
  20834493.9154     200462.69446    156197.51462
 91  4 23 21 50 59.9970000  0  6G18G 2G11G16G 6G19
  23293584.899    14631456.518 5  11401079.33121
  20204566.6964  -18145498.84847 -14139313.64163
  22953232.899    -3735103.925 6  -2910453.37921
  23373138.3924     858371.55845    225317.65361
  21591028.6264  -13596052.22946  -6833177.05761
  20836818.9074     212692.71246    165727.36562
 91  4 23 21 51 14.9970000  0  6G18G 2G11G16G 6G19
  23302272.8994   14677084.62545  11436633.46161
  20200399.6494  -18167388.44247 -14156370.43863
  22957812.845    -3711029.838 6  -2891694.38121
  23375639.2904     871508.98445    235554.45061
  21583792.8294  -13634074.21446  -6862804.51361
  20839157.5014     224981.93646    175303.35062
 91  4 23 21 51 29.9970000  0  6G18G 2G11G16G 6G19
  23310959.2354   14722732.60745  11472203.09961
  20196248.6964  -18189209.59047 -14173373.89163
  22962415.446    -3686841.098 6  -2872846.02021
  23378153.931      884729.670 5    245856.19621
  21576559.7674  -13672088.87146  -6892426.26161
  20841506.2514     237330.10346    184925.26862
 91  4 23 21 51 44.9970000  0  6G18G 2G11G16G 6G19
  23319650.868    14768407.845 5  11507793.93221
  20192109.8844  -18210954.70247 -14190318.10663
  22967041.751    -3662530.354 6  -2853902.61421
  23380684.548      898041.009 5    256228.53121
  21569325.9544  -13710088.49246  -6922036.28461
  20843870.5644     249745.22946    194599.36062
 91  4 23 21 51 59.9970000  0  6G18G 2G11G16G 6G19
  23328342.868    14814100.085 5  11543398.02621
  20187984.9234  -18232633.39448 -14207210.56163
  22971687.228    -3638107.564 6  -2834871.88821
  23383239.3454     911432.72445    266663.48561
  21562098.0324  -13748082.75946  -6951642.14061
  20846242.7204     262217.37846    204317.88062
 91  4 23 21 52 14.9970000  0  6G18G 2G11G16G 6G19
  23337044.899    14859808.165 5  11579014.47721
  20183871.7514  -18254246.76048 -14224052.11363
  22976356.884    -3613573.870 6  -2815754.74921
  23385797.7284     924903.76045    277160.27761
  21554868.4234  -13786072.41546  -6981244.40361
  20848629.4544     274745.56146    214080.06862
 91  4 23 21 52 29.9970000  0  5G18G 2G11G 6G19
  23345745.634    14905535.712 5  11614646.06621
  20179771.8214  -18275791.30747 -14240840.03563
  22981048.110    -3588926.051 6  -2796548.67321
  21547641.1574  -13824053.82746  -7010840.24861
  20851022.5404     287333.60146    223888.89862
 91  4 23 21 52 44.9970000  0  5G18G 2G11G 6G19
  23354451.079    14951280.138 5  11650290.81321
  20175684.5564  -18297269.13647 -14257575.97163
  22985759.892    -3564166.356 6  -2777255.42821
  21540415.9704  -13862028.94646  -7040431.18461
  20853428.7284     299979.43346    233742.75862
 91  4 23 21 52 59.9970000  0  5G18G 2G11G 6G19
  23363159.9934   14997045.44345  11685951.83361
  20171611.4314  -18318675.91447 -14274256.54263
  22990492.509    -3539290.810 6  -2757871.90521
  21533190.5644  -13899993.33546  -7070013.76361
  20855849.501      312687.477 6    243645.10522
 91  4 23 21 53 14.9970000  0  5G18G 2G11G 6G19
  23371873.142    15042824.336 5  11721623.44021
  20167550.2044  -18340018.60047 -14290887.17263
  22995248.407    -3514306.645 6  -2738403.75521
  21525967.6104  -13937953.79746  -7099593.27261
  20858277.2594     325450.82346    253590.53962
 91  4 23 21 53 29.9970000  0  5G18G 2G11G 6G19
  23380586.439    15088621.695 5  11757309.42921
  20163500.6424  -18361292.34047 -14307464.07963
  23000022.798    -3489209.276 6  -2718847.38821
  21518745.3844  -13975905.41646  -7129165.89561
  20860715.5954     338274.47347    263582.95862
 91  4 23 21 53 44.9970000  0  5G18G 2G11G 6G19
  23389301.9784   15134436.29045  11793008.86861
  20159465.7594  -18382498.22847 -14323988.11163
  23004820.368    -3463999.861 6  -2699203.71521
  21511525.5644  -14013848.99046  -7158732.25161
  20863168.6264     351157.56746    273621.70362
 91  4 23 21 53 59.9970000  0  5G18G 2G11G 6G19
  23398025.009    15180271.646 5  11828724.47321
  20155444.2204  -18403632.20447 -14340456.11263
  23009639.4074   -3438674.68246  -2679469.82761
  21504306.524   -14051780.307 6  -7188289.04421
  20865632.2824     364104.26947    283710.01162
 91  4 23 21 54 14.9970000  0  5G18G 2G11G 6G19
  23406748.1894   15226123.26145  11864452.75061
  20151434.9074  -18424698.68747 -14356871.51963
  23014480.743    -3413238.486 6  -2659649.44121
  21497088.939   -14089703.768 6  -7217839.72021
  20868108.3764     377110.08246    293844.38162
 91  4 23 21 54 29.9970000  0  5G18G 2G11G 6G19
  23415477.3844   15271990.62845  11900193.32061
  20147439.5324  -18445698.05247 -14373234.62563
  23019341.8844   -3387691.69046  -2639742.87161
  21489873.3294  -14127619.44246  -7247384.35161
  20870593.7124     390174.95046    304024.76062
 91  4 23 21 54 44.9970000  0  5G18G 2G11G 6G19
  23424208.681    15317869.532 5  11935942.85521
  20143455.5014  -18466634.43647 -14389548.65863
  23024223.8764   -3362038.64546  -2619753.53061
  21482660.712   -14165531.318 6  -7276926.00421
  20873091.5094     403294.86146    314248.03562
 91  4 23 21 54 59.9970000  0  5G18G 2G11G 6G19
  23432940.4154   15363766.17645  11971706.23461
  20139484.4234  -18487501.32447 -14405808.53563
  23029126.1964   -3336273.01246  -2599676.44161
  21475450.3374  -14203432.61646  -7306459.41361
  20875600.9394     416476.42146    324519.35262
 91  4 23 21 55 14.9970000  0  5G18G 2G11G 6G19
  23441679.290    15409684.141 5  12007486.20621
  20135526.3604  -18508294.75747 -14422011.17863
  23034051.3144   -3310391.29346  -2579508.90161
  21468238.9234  -14241319.47846  -7335981.58561
  20878121.6264     429723.54146    334841.74662
 91  4 23 21 55 29.9970000  0  5G18G 2G11G 6G19
  23450423.3994   15455620.62445  12043280.60861
  20131584.1894  -18529017.34447 -14438158.60963
  23038998.1494   -3284396.34646  -2559253.13761
  21461031.7594  -14279194.39246  -7365494.44161
  20880652.0644     443033.74546    345213.29462
 91  4 23 21 55 44.9970000  0  5G18G 2G11G 6G19
  23459167.446    15501573.415 5  12079087.72721
  20127653.4704  -18549670.87747 -14454252.23963
  23043966.9154   -3258290.22146  -2538910.73661
  21453825.4074  -14317059.04746  -7394999.31461
  20883196.3924     456405.27046    355632.62762
 91  4 23 21 55 59.9970000  0  5G18G 2G11G 6G19
  23467915.485    15547543.186 5  12114908.07121
  20123736.6344  -18570254.64248 -14470291.50063
  23048955.4234   -3232072.38746  -2518481.28761
  21446620.4314  -14354912.40746  -7424495.37361
  20885755.1574     469839.14246    366100.55262
 91  4 23 21 56 14.9970000  0  5G18G 2G11G 6G19
  23476669.290    15593528.780 5  12150740.73821
  20119831.9854  -18590769.71047 -14486277.23563
  23053968.423    -3205744.128 6  -2497965.80821
  21439422.040   -14392755.366 6  -7453983.33421
  20888321.8994     483334.39646    376616.29562
 91  4 23 21 56 29.9970000  0  5G18G 2G11G 6G19
  23485425.1264   15639537.03745  12186591.09061
  20115944.0244  -18611208.87048 -14502203.81463
  23058998.3294   -3179298.39346  -2477358.77261
  21432223.556   -14430580.491 6  -7483457.40621
  20890905.3454     496898.28846    387185.52562
 91  4 23 21 56 44.9970000  0  5G18G 2G11G 6G19
  23494180.6894   15685561.79545  12222454.25761
  20112068.4544  -18631578.06448 -14518075.87663
  23064049.493    -3152741.446 6  -2456665.10821
  21425025.6034  -14468393.69546  -7512922.18861
  20893498.0644     510524.88346    397803.62262
 91  4 23 21 56 59.9970000  0  5G18G 2G11G 6G19
  23502943.103    15731599.676 5  12258327.66621
  20108203.2204  -18651880.64447 -14533896.03963
  23069127.181    -3126076.870 6  -2435887.54721
  21417833.3214  -14506198.06146  -7542380.06861
  20896096.8454     524211.09746    408468.16362
 91  4 23 21 57 14.9970000  0  5G18G 2G11G 6G19
  23511704.907    15777648.405 5  12294209.53121
  20104352.4624  -18672118.58647 -14549665.83563
  23074220.6494   -3099306.69246  -2415027.71361
  21410640.556   -14543995.233 6  -7571832.36221
  20898716.3534     537955.30346    419177.90062
 91  4 23 21 57 29.9970000  0  5G18G 2G11G 6G19
  23520469.3144   15823705.97444  12330098.30961
  20100512.6344  -18692293.61947 -14565386.60463
  23079334.946    -3072433.034 6  -2394087.25221
  21403448.884   -14581786.952 6  -7601280.41021
  20901341.0094     551755.66246    429931.39562
 91  4 23 21 57 44.9970000  0  5G18G 2G11G 6G19
  23529233.8294   15869774.82444  12365995.83561
  20096686.8684  -18712403.16948 -14581056.35163
  23084468.3534   -3045453.63246  -2373064.38361
  21396260.032   -14619570.564 6  -7630722.13221
  20903978.8144     565614.75746    440730.66362
 91  4 23 21 57 59.9970000  0  5G18G 2G11G 6G19
  23538002.454    15915855.214 4  12401902.39421
  20092873.1734  -18732446.69948 -14596674.64963
  23089623.407    -3018368.019 6  -2351958.75921
  21389070.689   -14657345.236 6  -7660156.88321
  20906628.1104     579533.28546    451576.23662
 91  4 23 21 58 14.9970000  0  4G 2G11G 6G19
  20089071.6894  -18752421.58348 -14612239.46563
  23094797.415    -2991173.867 6  -2330768.54321
  21381882.157   -14695108.223 6  -7689582.53821
  20909289.5484     593514.15746    462470.38362
 91  4 23 21 58 29.9970000  0  4G 2G11G 6G19
  20085283.9934  -18772328.58448 -14627751.37963
  23099990.7744   -2963872.31946  -2309494.64661
  21374702.290   -14732860.142 7  -7718999.57221
  20911956.876      607556.571 6    473412.50122
 91  4 23 21 58 44.9970000  0  4G 2G11G 6G19
  20081509.4854  -18792167.55148 -14643210.28763
  23105207.5324   -2936463.38645  -2288137.09761
  21367519.540   -14770600.596 6  -7748407.67421
  20914645.1894     621660.85646    484402.82362
 91  4 23 21 58 59.9970000  0  4G 2G11G 6G19
  20077746.2904  -18811935.93748 -14658614.18663
  23110442.1814   -2908944.88345  -2266694.14261
  21360340.423   -14808327.036 7  -7777804.84421
  20917340.4784     635829.70646    495443.45762
 91  4 23 21 59 14.9970000  0  4G 2G11G 6G19
  20073997.8764  -18831638.23548 -14673966.59463
  23115699.8924   -2881321.42845  -2245169.40661
  21353162.196   -14846043.628 6  -7807194.35121
  20920048.7824     650058.65046    506530.91462
 91  4 23 21 59 29.9970000  0  4G 2G11G 6G19
  20070260.2594  -18851275.39748 -14689268.24963
  23120979.399    -2853594.239 6  -2223563.85321
  21345986.1574  -14883751.09046  -7836576.74161
  20922764.7744     664346.87146    517664.56262
 91  4 23 21 59 44.9970000  0  4G 2G11G 6G19
  20066536.4074  -18870839.13048 -14704512.68763
  23126274.649    -2825755.272 6  -2201871.21221
  21338816.274   -14921441.201 6  -7865945.61821
  20925499.1184     678702.68446    528850.88362
 91  4 23 21 59 59.9970000  0  4G 2G11G 6G19
  20062826.6344  -18890335.48948 -14719704.62963
  23131594.5794   -2797810.73146  -2180096.28461
  21331646.337   -14959119.743 6  -7895305.47121
  20928241.204      693120.404 6    540085.44222
 91  4 23 22  0 14.9970000  0  4G 2G11G 6G19
  20059131.2204  -18909755.44448 -14734837.03263
  23136931.7824   -2769751.90245  -2158232.31261
  21324479.274   -14996777.379 6  -7924649.04021
  20930998.024      707608.912 6    551375.16322
 91  4 23 22  0 29.9970000  0  4G 2G11G 6G19
  20055449.4314  -18929108.14448 -14749917.02763
  23142291.7284   -2741588.05345  -2136286.50561
  21317315.954   -15034423.016 6  -7953983.25621
  20933766.4394     722159.40246    562713.17862
 91  4 23 22  0 44.9970000  0  4G 2G11G 6G19
  20051777.6964  -18948399.15448 -14764948.94963
  23147668.3294   -2713325.09945  -2114263.45861
  21310152.423   -15072062.274 6  -7983312.49621
  20936547.9624     736766.39246    574095.22162
 91  4 23 22  0 59.9970000  0  4G 2G11G 6G19
  20048120.4624  -18967622.06748 -14779927.81163
  23153069.2674   -2684956.90846  -2092158.40361
  21302992.696   -15109688.496 7  -8012631.58421
  20939339.1264     751436.43046    585526.38362
 91  4 23 22  1 14.9970000  0  4G 2G11G 6G19
  20044475.6814  -18986779.23648 -14794855.44363
  23158486.439    -2656486.108 6  -2069973.43221
  21295834.720   -15147303.772 6  -8041942.14321
  20942144.4314     766167.26046    597004.92362
 91  4 23 22  1 29.9970000  0  4G 2G11G 6G19
  20040841.5244  -19005874.78548 -14809735.06263
  23163920.001    -2627917.033 6  -2047711.83721
  21288677.228   -15184912.208 6  -8071247.37421
  20944956.6104     780954.72946    608527.59962
 91  4 23 22  1 44.9970000  0  4G 2G11G 6G19
  20037218.3924  -19024910.86748 -14824568.34563
  23169375.6264   -2599251.93545  -2025375.42861
  21281521.657   -15222515.573 6  -8100548.64121
  20947780.5324     795796.90546    620092.90062
 91  4 23 22  1 59.9970000  0  4G 2G11G 6G19
  20033607.7904  -19043882.87548 -14839351.69663
  23174852.1424   -2570486.52946  -2002960.86261
  21274367.001   -15260109.111 6  -8129842.25721
  20950618.4154     810698.38146    631704.41462
 91  4 23 22  2 14.9970000  0  4G 2G11G 6G19
  20030009.1814  -19062791.75148 -14854085.85863
  23180346.3064   -2541622.04046  -1980469.08561
  21267217.5324  -15297693.48147  -8159128.72961
  20953462.1344     825658.42146    643361.55062
 91  4 23 22  2 29.9970000  0  4G 2G11G 6G19
  20026423.8214  -19081634.09848 -14868768.17563
  23185854.2674   -2512655.28245  -1957897.62661
  21260067.587   -15335265.215 7  -8188405.35121
  20956322.993      840680.681 6    655067.18422
 91  4 23 22  2 44.9970000  0  4G 2G11G 6G19
  20022852.7744  -19100407.02748 -14883396.40163
  23191390.220    -2483583.685 6  -1935244.45121
  21252919.681   -15372821.463 7  -8217669.90821
  20959192.7594     855768.00446    666823.50662
 91  4 23 22  2 59.9970000  0  4G 2G11G 6G19
  20019293.3764  -19119107.27948 -14897967.99563
  23196938.892    -2454404.210 5  -1912507.24221
  21245777.149   -15410358.482 7  -8246919.47921
  20962076.9154     870923.67446    678633.09062
 91  4 23 22  3 14.9970000  0  4G 2G11G 6G19
  20015747.2434  -19137745.95948 -14912491.61163
  23202508.4464   -2425128.29145  -1889694.87661
  21238636.392   -15447887.404 7  -8276162.75221
  20964972.9704     886136.61746    690487.30362
 91  4 23 22  3 29.9970000  0  4G 2G11G 6G19
  20012210.8684  -19156320.87148 -14926965.53763
  23208104.4704   -2395753.86246  -1866805.73261
  21231495.251   -15485405.719 7  -8305397.75321
  20967878.548      901409.279 6    702388.05622
 91  4 23 22  3 44.9970000  0  4G 2G11G 6G19
  20008690.6654  -19174829.07148 -14941387.47963
  23213714.0714   -2366278.41246  -1843837.90961
  21224357.673   -15522910.322 7  -8334622.06421
  20970795.939      916744.744 6    714337.74022
 91  4 23 22  3 59.9970000  0  4G 2G11G 6G19
  20005178.1264  -19193275.27348 -14955761.11763
  23219337.415    -2336706.849 6  -1820795.15921
  21217225.6034  -15560405.70547  -8363839.18561
  20973727.4704     932138.51946    726332.86262
 91  4 23 22  4 14.9970000  0  4G 2G11G 6G19
  20001682.3844  -19211653.38848 -14970081.69463
  23224982.4394   -2307033.21846  -1797672.90861
  21210090.423   -15597885.604 6  -8393044.25021
  20976666.0014     947596.79446    738378.23962
 91  4 23 22  4 29.9970000  0  4G 2G11G 6G19
  19998197.8064  -19229967.22248 -14984352.18863
  23230651.6734   -2277261.54346  -1774474.23161
  21202960.837   -15635353.464 6  -8422239.92721
  20979620.5094     963115.91446    750471.02762
 91  4 23 22  4 44.9970000  0  4G 2G11G 6G19
  19994725.0014  -19248215.95348 -14998571.94163
  23236335.532    -2247391.346 6  -1751198.80721
  21195834.3764  -15672808.47246  -8451425.59361
  20982584.8604     978696.64946    762611.82662
 91  4 23 22  4 59.9970000  0  4G 2G11G 6G19
  19991263.0094  -19266402.18348 -15012742.99963
  23242036.259    -2217425.695 6  -1727848.99521
  21188708.4544  -15710253.20646  -8480603.25261
  20985562.7204     994336.35246    774798.57362
 91  4 23 22  5 14.9970000  0  4G 2G11G 6G19
  19987813.4394  -19284532.59548 -15026870.56163
  23247756.642    -2187371.412 6  -1704430.12621
  21181582.0174  -15747693.99546  -8509777.83461
  20988545.6264    1010028.60946    787026.26662
 91  4 23 22  5 29.9970000  0  4G 2G11G 6G19
  19984375.0484  -19302604.84748 -15040952.80463
  23253495.235    -2157226.197 6  -1680940.39821
  21174459.3994  -15785128.18646  -8538947.27461
  20991546.5014    1025775.97846    799296.91262
 91  4 23 22  5 44.9970000  0  4G 2G11G 6G19
  19980950.0014  -19320608.93548 -15054981.93463
  23259248.3064   -2126980.50846  -1657372.35061
  21167338.853   -15822545.746 7  -8568103.75721
  20994551.556     1041588.471 6    811618.29322
 91  4 23 22  5 59.9970000  0  4G 2G11G 6G19
  19977534.7354  -19338551.26148 -15068962.94163
  23265020.8604   -2096641.07846  -1633731.29761
  21160221.376   -15859952.723 6  -8597251.99921
  20997572.6574    1057459.87546    823985.58162
 91  4 23 22  6 14.9970000  0  4G 2G11G 6G19
  19974132.6264  -19356423.46248 -15082889.30163
  23270813.806    -2066199.497 6  -1610010.64221
  21153103.5174  -15897340.56446  -8626385.32561
  21000605.9464    1073398.86046    836405.53362
 91  4 23 22  6 29.9970000  0  4G 2G11G 6G19
  19970745.7514  -19374230.35448 -15096764.77163
  23276628.0094   -2035660.91546  -1586214.37361
  21145993.7674  -15934713.99946  -8655507.41961
  21003651.8764    1089400.42746    848874.25462
 91  4 23 22  6 44.9970000  0  4G 2G11G 6G19
  19967367.4154  -19391974.49348 -15110591.34563
  23282456.095    -2005028.211 6  -1562344.78021
  21138884.798   -15972075.304 6  -8684620.06921
  21006706.126     1105462.033 6    861389.74922
 91  4 23 22  6 59.9970000  0  4G 2G11G 6G19
  19964002.7354  -19409658.22648 -15124370.84963
  23288303.267    -1974303.698 5  -1538403.65421
  21131775.9784  -16009426.42646  -8713724.78061
  21009777.970     1121581.856 6    873950.60322
 91  4 23 22  7 14.9970000  0  4G 2G11G 6G19
  19960651.1964  -19427275.32948 -15138098.43263
  23294166.5404   -1943481.77645  -1514386.61261
  21124670.595   -16046761.253 6  -8742816.80021
  21012852.665     1137765.953 6    886561.54022
 91  4 23 22  7 29.9970000  0  4G 2G11G 6G19
  19957311.4074  -19444825.02948 -15151773.49263
  23300049.4234   -1912561.99545  -1490293.34561
  21117568.7824  -16084078.83246  -8771895.37861
  21015950.196     1154015.099 6    899223.16922
 91  4 23 22  7 44.9970000  0  4G 2G11G 6G19
  19953984.9704  -19462303.04548 -15165392.69963
  23305951.1494   -1881540.14145  -1466120.51061
  21110472.540   -16121374.516 6  -8800956.89421
  21019053.032     1170333.762 6    911938.96822
 91  4 23 22  7 59.9970000  0  4G 2G11G 6G19
  19950672.1034  -19479712.37948 -15178958.38463
  23311875.939    -1850419.474 5  -1441870.67121
  21103378.8374  -16158651.09147  -8830003.51861
  21022171.665     1186719.115 6    924706.72622
 91  4 23 22  8 14.9970000  0  4G 2G11G 6G19
  19947371.314   -19497056.197 8 -15192473.02223
  23317816.4854   -1819203.54245  -1417546.61861
  21096286.962   -16195911.584 6  -8859037.61521
  21025300.735     1203168.069 6    937524.05422
 91  4 23 22  8 29.9970000  0  4G 2G11G 6G19
  19944082.6344  -19514335.46448 -15205937.36063
  23323771.806    -1787893.593 5  -1393149.31021
  21089200.806   -16233156.882 6  -8888059.86221
  21028444.774     1219679.856 6    950390.33422
 91  4 23 22  8 44.9970000  0  4G 2G11G 6G19
  19940806.7744  -19531553.16448 -15219353.72363
  23329747.196    -1756492.756 5  -1368681.16221
  21082116.9234  -16270389.59646  -8917072.31461
  21031597.931     1236251.492 6    963303.25322
 91  4 23 22  8 59.9970000  0  4G 2G11G 6G19
  19937542.3844  -19548706.40248 -15232719.85463
  23335741.5954   -1724998.24645  -1344140.02561
  21075032.4624  -16307606.63346  -8946072.54661
  21034768.368     1252886.150 6    976265.27322
 91  4 23 22  9 14.9970000  0  4G 2G11G 6G19
  19934290.8924  -19565793.24748 -15246034.25063
  23341757.3604   -1693408.48945  -1319524.69261
  21067956.0404  -16344805.87446  -8975058.90861
  21037937.1814    1269585.70646    989277.85662
 91  4 23 22  9 29.9970000  0  4G 2G11G 6G19
  19931053.0404  -19582811.98248 -15259295.57263
  23347782.7904   -1661722.15645  -1294834.10361
  21060878.6574  -16381985.55446  -9004030.02261
  21041132.243     1286351.760 6   1002342.27122
 91  4 23 22  9 44.9970000  0  4G 2G11G 6G19
  19927827.118   -19599763.363 8 -15272504.41523
  23353830.9544   -1629940.20745  -1270068.96861
  21053808.7514  -16419146.02046  -9032986.17561
  21044333.876     1303183.797 6   1015458.09222
 91  4 23 22  9 59.9970000  0  4G 2G11G 6G19
  19924613.9464  -19616645.32948 -15285659.16663
  23359898.720    -1598060.711 5  -1245227.84421
  21046740.884   -16456284.983 6  -9061925.56921
  21047550.298     1320084.202 6   1028627.18422
 91  4 23 22 10 14.9970000  0  4G 2G11G 6G19
  19921413.642   -19633462.000 8 -15298763.04123
  23365983.907    -1566088.226 5  -1220314.27221
  21039677.3994  -16493406.48346  -9090851.34761
  21050777.478     1337048.888 6   1041846.36522
 91  4 23 22 10 29.9970000  0  4G 2G11G 6G19
  19918225.8764  -19650214.55448 -15311816.95163
  23372086.360    -1534024.369 6  -1195329.47721
  21032617.282   -16530511.569 7  -9119764.35021
  21054017.610     1354076.569 6   1055114.64122
 91  4 23 22 10 44.9970000  0  4G 2G11G 6G19
  19915050.399   -19666902.906 8 -15324820.83823
  23378205.243    -1501869.055 5  -1170273.43221
  21025558.3214  -16567599.76146  -9148664.18061
  21057269.767     1371167.812 6   1068432.44522
 91  4 23 22 10 59.9970000  0  4G 2G11G 6G19
  19911887.478   -19683525.335 8 -15337773.35623
  23384341.899    -1469620.778 5  -1145144.95621
  21018504.4314  -16604669.14847  -9177549.34661
  21060534.876     1388324.305 6   1081801.09222
 91  4 23 22 11 14.9970000  0  4G 2G11G 6G19
  19908737.251   -19700079.058 8 -15350672.33523
  23390496.751    -1437277.153 6  -1119942.18421
  21011456.642   -16641716.808 7  -9206417.59021
  21063811.798     1405549.033 6   1095222.90622
 91  4 23 22 11 29.9970000  0  4G 2G11G 6G19
  19905600.587   -19716557.599 8 -15363512.73623
  23396669.7674   -1404831.98346  -1094660.27061
  21004408.720   -16678735.965 6  -9235263.63021
  21067103.548     1422848.486 6   1108702.94822
 91  4 23 22 11 44.9970000  0  4G 2G11G 6G19
  19902476.2594  -19732976.77348 -15376306.86863
  23402859.399    -1372301.179 6  -1069311.63221
  20997368.7434  -16715742.12246  -9264099.54361
  21070407.7434    1440206.93646   1122228.96962
 91  4 23 22 11 59.9970000  0  4G 2G11G 6G19
  19899365.814   -19749328.086 8 -15389048.12723
  23409069.665    -1339676.595 5  -1043889.91421
  20990331.5954  -16752726.75247  -9292918.67062
  21073726.142     1457632.934 6   1135807.62122
 91  4 23 22 12 14.9960000  0  4G 2G11G 6G19
  19896266.2704  -19765617.07648 -15401740.81863
  23415294.527    -1306967.306 6  -1018402.20421
  20983294.1214  -16789693.75746  -9321724.07261
  21077052.902     1475118.765 6   1149432.89922
 91  4 23 22 12 29.9960000  0  4G 2G11G 6G19
  19893178.223   -19781840.858 8 -15414382.70323
  23421534.613    -1274164.195 5   -992841.35921
  20976265.4734  -16826642.74847  -9350515.42761
  21080392.535     1492671.863 6   1163110.59122
 91  4 23 22 12 44.9960000  0  4G 2G11G 6G19
  19890103.731   -19797999.702 8 -15426973.98923
  23427792.004    -1241270.903 5   -967210.27021
  20969237.231   -16863572.272 7  -9379291.62621
  21083745.949     1510290.051 6   1176839.00522
 91  4 23 22 12 59.9960000  0  4G 2G11G 6G19
  19887041.0664  -19814094.01748 -15439514.98563
  23434069.512    -1208288.146 5   -941509.46721
  20962214.684   -16900482.735 7  -9408052.96821
  21087111.277     1527973.032 6   1190617.90422
 91  4 23 22 13 14.9960000  0  4G 2G11G 6G19
  19883991.5824  -19830124.99148 -15452006.62863
  23440365.8794   -1175217.53445   -915740.18861
  20955192.6454  -16937375.09546  -9436800.20061
  21090485.879     1545719.602 6   1204446.35122
 91  4 23 22 13 29.9960000  0  4G 2G11G 6G19
  19880951.5354  -19846091.54248 -15464448.06363
  23446677.7704   -1142058.25245   -889901.83961
  20948176.6844  -16974247.88446  -9465532.18561
  21093877.309     1563530.843 6   1218325.20322
 91  4 23 22 13 44.9960000  0  4G 2G11G 6G19
  19877925.840   -19861993.784 8 -15476839.39123
  23453003.715    -1108810.731 5   -863994.69021
  20941162.574   -17011101.191 6  -9494248.99321
  21097279.324     1581406.730 6   1232254.40722
 91  4 23 22 13 59.9960000  0  4G 2G11G 6G19
  19874912.3714  -19877829.73448 -15489179.06363
  23459344.2314   -1075473.08445   -838017.36361
  20934155.840   -17047932.742 7  -9522948.84822
  21100696.2624    1599349.45446   1246235.71062
 91  4 23 22 14 14.9960000  0  4G 2G11G 6G19
  19871910.5274  -19893606.56348 -15501472.66863
  23465705.035    -1042052.702 5   -811975.52521
  20927148.488   -17084749.455 6  -9551637.14421
  21104118.3564    1617352.00946   1260263.63462
 91  4 23 22 14 29.9960000  0  4G 2G11G 6G19
  19868919.918   -19909321.075 8 -15513717.71923
  23472080.1374   -1008546.64345   -785866.93461
  20920144.8794  -17121547.95447  -9580311.23662
  21107554.566     1635417.621 6   1274340.68722
 91  4 23 22 14 44.9960000  0  4G 2G11G 6G19
  19865942.1454  -19924963.74048 -15525906.78063
  23478474.965     -974945.754 5   -759684.48221
  20913147.5434  -17158318.44046  -9608963.50561
  21111008.926     1653555.930 6   1288474.39022
 91  4 23 22 14 59.9960000  0  4G 2G11G 6G19
  19862978.4024  -19940542.18848 -15538045.80063
  23484883.965     -941257.928 5   -733434.24921
  20906156.160   -17195068.217 7  -9637599.64322
  21114473.2544    1671759.47646   1302658.93062
 91  4 23 22 15 14.9960000  0  4G 2G11G 6G19
  19860025.1374  -19956060.95048 -15550138.31163
  23491311.4884    -907488.01945   -707120.06861
  20899165.4574  -17231801.71447  -9666223.09362
  21117948.246     1690023.795 6   1316890.82722
 91  4 23 22 15 29.9960000  0  4G 2G11G 6G19
  19857086.277   -19971517.719 8 -15562182.52223
  23497753.941     -873634.071 5   -680740.41121
  20892178.910   -17268516.538 7  -9694831.98722
  21121436.035     1708351.125 6   1331171.81422
 91  4 23 22 15 44.9960000  0  4G 2G11G 6G19
  19854155.6294  -19986907.59148 -15574174.60163
  23504213.285     -839691.279 5   -654291.54221
  20885196.606   -17305207.379 7  -9723422.20822
  21124933.856     1726746.585 6   1345505.89722
 91  4 23 22 15 59.9960000  0  4G 2G11G 6G19
  19851237.074   -20002240.096 8 -15586121.98223
  23510686.6374    -805669.48245   -627781.08461
  20878215.746   -17341883.582 7  -9752001.01622
  21128449.7624    1745200.76846   1359885.74462
 91  4 23 22 16 14.9960000  0  4G 2G11G 6G19
  19848331.5664  -20017511.72548 -15598021.92963
  23517175.231     -771565.360 5   -601206.46421
  20871240.684   -17378541.401 7  -9780565.50022
  21131971.4884    1763717.30346   1374314.17762
 91  4 23 22 16 29.9960000  0  4G 2G11G 6G19
  19845438.3564  -20032714.37948 -15609868.11963
  23523685.7074    -737370.92945   -574561.49461
  20864270.145   -17415172.399 7  -9809109.08722
  21135509.145     1782304.462 6   1388797.63122
 91  4 23 22 16 44.9960000  0  4G 2G11G 6G19
  19842559.168   -20047845.747 8 -15621658.77023
  23530210.8484    -703084.29945   -547844.65661
  20857305.473   -17451774.117 7  -9837629.85222
  21139059.1764    1800964.45146   1403337.84662
 91  4 23 22 16 59.9960000  0  3G 2G 6G19
  19839691.9494  -20062914.06648 -15633400.28763
  20850344.4344  -17488354.78247  -9866134.21862
  21142623.152     1819689.232 6   1417928.53622
 91  4 23 22 17 14.9960000  0  3G 2G 6G19
  19836835.184   -20077922.860 8 -15645095.42323
  20843386.121   -17524917.389 7  -9894624.50922
  21146197.199     1838475.409 6   1432567.07022
 91  4 23 22 17 29.9960000  0  3G 2G 6G19
  19833989.9024  -20092869.81448 -15656742.37463
  20836433.113   -17561459.463 7  -9923098.80422
  21149784.5204    1857325.37046   1447255.31262
 91  4 23 22 17 44.9960000  0  3G 2G 6G19
  19831157.6684  -20107759.08548 -15668344.37363
  20829483.160   -17597984.914 7  -9951560.14322
  21153383.473     1876235.150 6   1461990.16822
 91  4 23 22 17 59.9960000  0  3G 2G 6G19
  19828337.223   -20122585.702 8 -15679897.56223
  20822535.934   -17634488.676 7  -9980004.58022
  21156996.895     1895209.586 6   1476775.39522
 91  4 23 22 18 14.9960000  0  3G 2G 6G19
  19825527.113   -20137349.303 8 -15691401.64023
  20815594.0514  -17670969.98447 -10008431.53062
  21160615.645     1914249.187 6   1491611.39922
 91  4 23 22 18 29.9960000  0  3G 2G 6G19
  19822728.8484  -20152054.40748 -15702860.13363
  20808654.606   -17707433.171 7 -10036844.36122
  21164250.4184    1933349.55746   1506494.76262
 91  4 23 22 18 44.9960000  0  3G 2G 6G19
  19819942.270   -20166697.411 8 -15714270.24023
  20801719.762   -17743874.471 7 -10065240.13022
  21167900.684     1952514.391 6   1521428.35822
 91  4 23 22 18 59.9960000  0  3G 2G 6G19
  19817168.5124  -20181271.89048 -15725626.95163
  20794790.941   -17780287.317 7 -10093613.72522
  21171559.590     1971750.315 6   1536417.34422
 91  4 23 22 19 14.9960000  0  3G 2G 6G19
  19814408.9414  -20195780.26448 -15736932.15063
  20787866.785   -17816673.796 7 -10121966.77922
  21175233.5434    1991054.92946   1551459.86562
 91  4 23 22 19 29.9960000  0  3G 2G 6G19
  19811658.496   -20210231.436 8 -15748192.78223
  20780946.293   -17853042.449 7 -10150305.94422
  21178921.4414    2010419.38746   1566549.01062
 91  4 23 22 19 44.9960000  0  3G 2G 6G19
  19808920.012   -20224621.718 8 -15759405.96423
  20774030.277   -17889389.427 7 -10178628.21722
  21182614.606     2029847.509 6   1581687.76522
 91  4 23 22 19 59.9960000  0  3G 2G 6G19
  19806193.777   -20238950.535 8 -15770571.24923
  20767118.824   -17925713.750 7 -10206932.84022
  21186326.4654    2049340.08746   1596876.73962
 91  4 23 22 20 14.9960000  0  3G 2G 6G19
  19803475.988   -20253220.254 8 -15781690.49223
  20760208.879   -17962017.726 7 -10235221.60422
  21190046.5354    2068894.72746   1612114.08362
 91  4 23 22 20 29.9960000  0  3G 2G 6G19
  19800774.340   -20267430.677 8 -15792763.51523
  20753304.152   -17998301.035 7 -10263494.25822
  21193778.231     2088511.754 6   1627400.02722
 91  4 23 22 20 44.9960000  0  3G 2G 6G19
  19798080.262   -20281581.661 8 -15803790.23423
  20746404.520   -18034563.058 7 -10291750.33822
  21197523.981     2108191.461 6   1642734.81822
 91  4 23 22 20 59.9960000  0  3G 2G 6G19
  19795399.191   -20295672.819 8 -15814770.33023
  20739508.145   -18070803.214 7 -10319989.37222
  21201282.856     2127934.362 6   1658118.85322
 91  4 23 22 21 14.9960000  0  3G 2G 6G19
  19792729.434   -20309704.137 8 -15825703.80023
  20732615.863   -18107021.291 7 -10348211.20622
  21205049.543     2147740.447 6   1673552.12322
 91  4 23 22 21 29.9960000  0  3G 2G 6G19
  19790070.887   -20323674.742 8 -15836589.96223
  20725727.488   -18143216.116 7 -10376414.91922
  21208836.746     2167610.688 6   1689035.38022
 91  4 23 22 21 44.9960000  0  3G 2G 6G19
  19787423.691   -20337584.005 8 -15847428.32523
  20718845.043   -18179386.759 7 -10404599.79022
  21212622.145     2187545.920 6   1704569.28122
 91  4 23 22 21 59.9960000  0  3G 2G 6G19
  19784788.512   -20351431.849 8 -15858218.82623
  20711964.449   -18215533.095 7 -10432765.72122
  21216430.410     2207546.095 6   1720153.78622
 91  4 23 22 22 14.9960000  0  3G 2G 6G19
  19782165.965   -20365220.587 8 -15868963.27523
  20705091.1914  -18251657.42347 -10460914.50762
  21220249.348     2227608.835 6   1735787.04722
 91  4 23 22 22 29.9960000  0  3G 2G 6G19
  19779551.527   -20378948.978 8 -15879660.69823
  20698222.957   -18287757.980 7 -10489044.76522
  21224077.176     2247735.568 6   1751470.16122
 91  4 23 22 22 44.9960000  0  3G 2G 6G19
  19776950.520   -20392616.542 8 -15890310.72723
  20691356.106   -18323833.947 7 -10517155.86622
  21227919.160     2267927.007 6   1767203.70622
 91  4 23 22 22 59.9960000  0  3G 2G 6G19
  19774360.832   -20406227.784 8 -15900916.86623
  20684496.043   -18359889.687 7 -10545251.20222
  21231776.340     2288178.555 6   1782984.09122
 91  4 23 22 23 14.9960000  0  3G 2G 6G19
  19771781.691   -20419780.838 8 -15911477.66623
  20677638.3794  -18395923.08247 -10573329.12962
  21235640.512     2308492.313 6   1798812.94422
 91  4 23 22 23 29.9960000  0  3G 2G 6G19
  19769215.4884  -20433274.36948 -15921992.07763
  20670786.301   -18431932.354 7 -10601388.26022
  21239518.809     2328869.952 6   1814691.57022
 91  4 23 22 23 44.9960000  0  3G 2G 6G19
  19766660.504   -20446696.366 8 -15932450.75123
  20663941.371   -18467905.344 7 -10629419.10622
  21243408.254     2349323.372 6   1830629.25322
 91  4 23 22 23 59.9960000  0  3G 2G 6G19
  19764117.1914  -20460061.06648 -15942864.77963
  20657100.4964  -18503856.03747 -10657432.59662
  21247312.3634    2369838.33746   1846614.88862
 91  4 23 22 24 14.9960000  0  3G 2G 6G19
  19761584.738   -20473363.627 8 -15953230.38323
  20650264.660   -18539779.439 7 -10685424.81622
  21251229.731     2390419.800 6   1862652.34222
 91  4 23 22 24 29.9960000  0  3G 2G 6G19
  19759064.856   -20486604.823 8 -15963548.17623
  20643433.215   -18575676.029 7 -10713396.14222
  21255158.457     2411067.134 6   1878741.12422
 91  4 23 22 24 44.9960000  0  3G 2G 6G19
  19756557.691   -20499786.761 8 -15973819.79423
  20636606.207   -18611547.472 7 -10741347.87222
  21259101.8164    2431778.51446   1894879.80462
 91  4 23 22 24 59.9960000  0  3G 2G 6G19
  19754059.574   -20512908.997 8 -15984044.88423
  20629784.348   -18647393.246 7 -10769279.59922
  21263055.832     2452554.253 6   1911068.63722
 91  4 23 22 25 14.9960000  0  3G 2G 6G19
  19751573.613   -20525972.572 8 -15994224.27523
  20622967.801   -18683214.160 7 -10797191.96022
  21267020.2074    2473393.42946   1927306.89462
 91  4 23 22 25 29.9960000  0  3G 2G 6G19
  19749098.793   -20538981.691 8 -16004361.22723
  20616157.207   -18719014.234 7 -10825088.07522
  21270996.770     2494291.628 6   1943591.15222
 91  4 23 22 25 44.9960000  0  3G 2G 6G19
  19746634.176   -20551931.347 8 -16014451.84523
  20609347.973   -18754788.144 7 -10852963.80722
  21274984.801     2515254.029 6   1959925.43622
 91  4 23 22 25 59.9960000  0  3G 2G 6G19
  19744181.582   -20564824.402 8 -16024498.36123
  20602546.387   -18790538.326 7 -10880821.04222
  21278985.770     2536278.205 6   1976307.85821
 91  4 23 22 26 14.9960000  0  3G 2G 6G19
  19741739.652   -20577652.436 8 -16034494.20723
  20595749.2774  -18826256.20747 -10908653.11862
  21283002.7464    2557372.44546   1992744.87261
 91  4 23 22 26 29.9960000  0  3G 2G 6G19
  19739309.168   -20590422.735 8 -16044445.06423
  20588956.270   -18861948.815 7 -10936465.49922
  21287029.5044    2578529.68246   2009230.96961
 91  4 23 22 26 44.9960000  0  3G 2G 6G19
  19736889.449   -20603135.048 8 -16054350.74123
  20582170.293   -18897615.788 7 -10964257.89622
  21291065.441     2599750.081 6   2025766.29121
 91  4 23 22 26 59.9960000  0  2G 6G19
  20575386.676   -18933257.770 7 -10992030.81822
  21295116.0514    2621032.82746   2042350.19161
 91  4 23 22 27 14.9960000  0  3G 2G 6G19
  19732084.9264         -0.83158
  20568610.910   -18968871.682 7 -11019781.87522
  21299176.512     2642380.441 6   2058984.64321
 91  4 23 22 27 29.9960000  0  3G 2G 6G19
  19729699.910      -12533.412 8
  20561838.645   -19004454.023 7 -11047508.32422
  21303251.7624    2663796.40246   2075672.34862
 91  4 23 22 27 44.9960000  0  3G 2G 6G19
  19727325.543      -25012.119 8        -0.39433
  20555072.676   -19040013.793 7 -11075217.19722
  21307340.082     2685271.743 6   2092406.33022
 91  4 23 22 27 59.9960000  0  3G 2G 6G19
  19724961.176      -37436.681 8     -9681.84823
  20548308.231   -19075550.525 7 -11102908.10422
  21311437.4414    2706806.94346   2109186.94261
 91  4 23 22 28 14.9960000  0  3G 2G 6G19
  19722609.184      -49802.431 8    -19317.47923
  20541550.488   -19111059.123 7 -11130577.09222
  21315547.5434    2728406.71946   2126017.87861
 91  4 23 22 28 29.9960000  0  3G 2G 6G19
  19720264.910      -62109.592 8    -28907.45223
  20534800.152   -19146539.485 7 -11158224.07922
  21319668.113     2750070.836 6   2142898.94921
 91  4 23 22 28 44.9960000  0  3G 2G 6G19
  19717936.481      -74356.257 8    -38450.28723
  20528054.254   -19181989.555 7 -11185847.46022
  21323806.8714    2771801.31546   2159831.73061
 91  4 23 22 28 59.9960000  0  3G 2G 6G19
  19715617.371      -86547.476 8    -47949.91923
  20521314.160   -19217414.181 7 -11213451.02022
  21327952.4024    2793593.22646   2176812.37861
 91  4 23 22 29 14.9960000  0  3G 2G 6G19
  19713307.441      -98681.063 8    -57404.64623
  20514577.551   -19252810.827 7 -11241032.77422
  21332111.5664    2815448.63046   2193842.49861
 91  4 23 22 29 29.9960000  0  3G 2G 6G19
  19711010.504     -110750.331 8    -66809.24523
  20507848.082   -19288172.418 7 -11268587.20822
  21336283.363     2837374.492 6   2210927.52721
 91  4 23 22 29 44.9960000  0  3G 2G 6G19
  19708724.613     -122759.729 8    -76167.19523
  20501126.176   -19323503.368 7 -11296117.77422
  21340468.191     2859366.444 6   2228064.05621
 91  4 23 22 29 59.9960000  0  3G 2G 6G19
  19706449.059     -134715.472 8    -85483.34223
  20494406.645   -19358809.542 7 -11323629.02522
  21344667.2624    2881418.17046   2245247.16361
 91  4 23 22 30 14.9960000  0  3G 2G 6G19
  19704184.715     -146615.301 8    -94755.91823
  20487693.699   -19394088.324 7 -11351118.92922
  21348874.0984    2903532.15746   2262478.77661
 91  4 23 22 30 29.9960000  0  4G13G 2G 6G19
  22954567.5434         -0.41954
  19701932.121     -158456.424 8   -103982.74923
  20480984.574   -19429336.761 7 -11378585.19922
  21353096.2074    2925711.24046   2279761.12761
 91  4 23 22 30 44.9960000  0  4G13G 2G 6G19
  22941314.5274     -69636.20544
  19699689.777     -170240.173 8   -113164.87223
  20474284.129   -19464555.892 7 -11406028.63022
  21357325.3164    2947954.13246   2297093.18161
 91  4 23 22 30 59.9960000  0  4G13G 2G 6G19
  22928066.0204    -139247.39144
  19697459.012     -181965.813 8   -122301.71623
  20467588.574   -19499744.636 7 -11433448.38022
  21361572.707     2970261.576 6   2314475.55321
 91  4 23 22 31 14.9960000  0  4G13G 2G 6G19
  22914825.8874    -208839.12744
  19695237.434     -193638.897 8   -131397.60823
  20460896.754   -19534908.465 7 -11460848.71722
  21365828.309     2992628.144 6   2331903.99421
 91  4 23 22 31 29.9960000  0  4G13G 2G 6G19
  22901588.051     -278408.076 4
  19693026.074     -205256.410 8   -140450.19723
  20454210.223   -19570043.925 7 -11488226.94422
  21370096.6454    3015057.13746   2349381.06461
 91  4 23 22 31 44.9960000  0  4G13G 2G 6G19
  22888348.7234    -347955.01144
  19690827.395     -216819.640 8   -149460.48423
  20447529.621   -19605151.899 7 -11515583.75722
  21374375.7934    3037547.29546   2366905.80161
 91  4 23 22 31 59.9960000  0  4G13G 2G 6G19
  22875118.731     -417480.334 4        -0.39131
  19688635.395     -228329.507 8   -158429.19223
  20440854.426   -19640233.103 7 -11542919.70922
  21378669.4574    3060097.72546   2384477.50361
 91  4 23 22 32 14.9960000  0  4G13G 2G 6G19
  22861895.6374    -486980.85444    -54156.29661
  19686455.106     -239783.315 8   -167354.22023
  20434182.504   -19675284.847 7 -11570232.71122
  21382971.2234    3082711.04246   2402098.20861
 91  4 23 22 32 29.9960000  0  4G13G 2G 6G19
  22848672.441     -556460.145 4   -108295.69721
  19684285.785     -251185.185 8   -176238.77723
  20427516.754   -19710310.859 7 -11597525.65922
  21387289.402     3105383.138 6   2419764.71721
 91  4 23 22 32 44.9960000  0  4G13G 2G 6G19
  22835458.9964    -625918.36344   -162418.66861
  19682125.606     -262535.613 8   -185083.24623
  20420858.762   -19745311.244 7 -11624798.64022
  21391611.7314    3128113.65846   2437476.75061
 91  4 23 22 32 59.9960000  0  4G13G 2G 6G19
  22822245.027     -695347.906 3   -216519.29521
  19679977.918     -273827.354 8   -193881.98423
  20414203.738   -19780278.506 7 -11652045.80622
  21395948.809     3150909.851 6   2455239.96521
 91  4 23 22 33 14.9960000  0  4G13G 2G 6G19
  22809034.840     -764746.271 4   -270595.63421
  19677840.160     -285058.472 8   -202633.48723
  20407556.082   -19815210.537 7 -11679265.52322
  21400298.8794    3173773.74246   2473055.92861
 91  4 23 22 33 29.9960000  0  4G13G 2G 6G19
  22795834.5044    -834116.66444   -324650.17161
  19675713.613     -296232.760 8   -211340.70523
  20400914.496   -19850110.916 7 -11706460.57322
  21404664.7704    3196701.54246   2490921.68861
 91  4 23 22 33 44.9960000  0  4G13G 2G 6G19
  22782641.9494    -903457.48244   -378681.69161
  19673598.301     -307349.201 8   -220002.85023
  20394278.606   -19884978.277 7 -11733629.90322
  21409036.004     3219694.524 6   2508838.23621
 91  4 23 22 33 59.9960000  0  4G13G 2G 6G19
  22769451.246     -972771.558 4   -432692.38821
  19671493.645     -318410.851 8   -228622.29623
  20387650.098   -19919815.440 7 -11760775.69722
  21413430.801     3242749.502 6   2526803.10221
 91  4 23 22 34 14.9960000  0  4G13G 2G 6G19
  22756266.668    -1042054.247 4   -486678.58621
  19669399.777     -329413.561 8   -237195.81623
  20381026.621   -19954617.923 7 -11787894.47022
  21417825.2464    3265870.80546   2544819.64461
 91  4 23 22 34 29.9960000  0  4G13G 2G 6G19
  22743085.277    -1111307.658 4   -540641.97621
  19667316.863     -340359.829 8   -245725.35923
  20374410.387   -19989388.082 7 -11814988.05122
  21422235.223     3289055.934 6   2562885.90621
 91  4 23 22 34 44.9960000  0  4G13G 2G 6G19
  22729912.0354   -1180534.32744   -594584.52661
  19665243.949     -351252.788 8   -254213.35823
  20367799.0904  -20024128.59047 -11842058.53562
  21426660.4884    3312301.92946   2580999.61261
 91  4 23 22 34 59.9960000  0  4G13G 2G 6G19
  22716744.5354   -1249736.04745   -648507.63261
  19663180.731     -362094.742 8   -262661.61423
  20361194.7774  -20058841.50347 -11869107.52462
  21431093.9654    3335606.45846   2599158.91661
 91  4 23 22 35 14.9960000  0  5G13G 2G15G 6G19
  22703583.9574   -1318911.93145   -702410.65361
  19661128.215     -372885.254 8   -271069.78523
  23096878.8404         -0.79955
  20354594.762   -20093526.251 7 -11896134.55122
  21435540.0514    3358970.05346   2617364.25161
 91  4 23 22 35 29.9960000  0  5G13G 2G15G 6G19
  22690426.356    -1388055.609 5   -756288.54721
  19659085.106     -383618.316 8   -279433.19623
  23090631.3094     -32836.55845
  20347999.129   -20128176.638 7 -11923134.80822
  21440000.5204    3382398.72146   2635620.29861
 91  4 23 22 35 44.9960000  0  5G13G 2G15G 6G19
  22677271.4654   -1457174.50845   -810147.16761
  19657051.231     -394301.882 8   -287758.03623
  23084399.6064     -65589.66745
  20341411.176   -20162800.021 7 -11950114.02922
  21444467.9654    3405884.79646   2653921.06961
 91  4 23 22 35 59.9960000  0  5G13G 2G15G 6G19
  22664126.5514   -1526259.41245   -863979.26861
  19655029.106     -404927.203 8   -296037.48523
  23078190.020      -98250.856 5
  20334830.652   -20197387.313 7 -11977065.12122
  21448949.9884    3429437.06046   2672273.42061
 91  4 23 22 36 14.9960000  0  5G13G 2G15G 6G19
  22650987.895    -1595313.739 5   -917787.52821
  19653018.473     -415498.127 8   -304274.55023
  23071987.0434    -130823.62945
  20328254.5984  -20231942.24447 -12003991.00462
  21453443.4024    3453051.50746   2690674.22161
 91  4 23 22 36 29.9960000  0  5G13G 2G15G 6G19
  22637850.9884   -1664335.47845   -971570.39561
  19651017.527     -426013.225 8   -312468.11323
  23065807.238     -163306.390 5        -0.05831
  20321684.652   -20266463.170 7 -12030890.38522
  21457951.0744    3476729.63246   2709124.64061
 91  4 23 22 36 44.9960000  0  5G13G 2G15G 6G19
  22624720.777    -1733326.299 5  -1025329.21321
  19649026.043     -436474.474 8   -320619.71823
  23059644.238     -195700.715 5    -25242.22721
  20315121.9344  -20300952.00847 -12057764.76162
  21462468.8404    3500469.39046   2727623.09561
 91  4 23 22 36 59.9960000  0  5G13G 2G15G 6G19
  22611594.465    -1802291.428 5  -1079068.00121
  19647045.106     -446887.638 8   -328733.85623
  23053494.356     -228011.733 5    -50419.49121
  20308562.4884  -20335413.93147 -12084618.17762
  21466998.2854    3524265.23446   2746165.25361
 91  4 23 22 37 14.9960000  0  5G13G 2G15G 6G19
  22598478.1214   -1871230.98545  -1132786.86661
  19645072.9884    -457253.31948   -336810.99763
  23047360.0904    -260239.52645    -75531.89461
  20302012.1214  -20369849.30747 -12111450.90162
  21471532.9884    3548116.76846   2764750.79361
 91  4 23 22 37 29.9960000  0  5G13G 2G15G 6G19
  22585367.371    -1940134.810 5  -1186477.90121
  19643110.137     -467561.783 8   -344843.54823
  23041244.0594    -292374.01645   -100571.62261
  20295465.2074  -20404248.10547 -12138255.12062
  21476085.1134    3572033.66246   2783387.27161
 91  4 23 22 37 44.9960000  0  5G13G 2G15G 6G19
  22572261.426    -2009004.882 5  -1240142.56621
  19641158.527     -477815.561 8   -352833.48123
  23035148.379     -324417.438 5   -125540.34421
  20288925.6064  -20438612.56847 -12165032.58462
  21480646.9344    3596013.44046   2802072.75161
 91  4 23 22 37 59.9960000  0  5G13G 2G15G 6G19
  22559162.137    -2077845.703 5  -1293784.44021
  19639217.613     -488019.728 8   -360784.76323
  23029059.059     -356374.440 5   -150441.77421
  20282393.121   -20472947.465 7 -12191787.00222
  21485221.738     3620051.169 6   2820803.38921
 91  4 23 22 38 14.9960000  0  5G13G 2G15G 6G19
  22546069.1764   -2146649.24945  -1347397.35661
  19637286.668     -498166.722 8   -368691.49423
  23023000.0434    -388237.12845   -175269.70961
  20275864.9414  -20507244.99947 -12218512.31762
  21489811.1604    3644154.26946   2839584.95961
 91  4 23 22 38 29.9960000  0  5G13G 2G15G 6G19
  22532984.2384   -2215415.05145  -1400980.75261
  19635366.785     -508256.423 8   -376553.58223
  23016954.8874    -420004.90345   -200023.68261
  20269345.9964  -20541504.81147 -12245208.24262
  21494409.7464    3668322.89146   2858417.58361
 91  4 23 22 38 44.9960000  0  5G13G 2G15G 6G19
  22519900.684    -2284143.780 5  -1454535.35221
  19633458.426     -518289.857 8   -384371.82523
  23010929.5744    -451678.53945   -224704.28461
  20262833.809   -20575727.880 7 -12271875.52122
  21499022.4964    3692556.01246   2877300.46661
 91  4 23 22 38 59.9960000  0  5G13G 2G15G 6G19
  22506828.8714   -2352835.12945  -1508060.79961
  19631557.988     -528267.271 8   -392146.41623
  23004922.9184    -483257.71345   -249311.31261
  20256328.012   -20609913.884 7 -12298513.92422
  21503648.4964    3716853.61046   2896233.60061
 91  4 23 22 39 14.9960000  0  5G13G 2G15G 6G19
  22493766.7854   -2421486.08745  -1561554.71461
  19629671.145     -538186.171 8   -399875.40823
  22998929.535     -514739.654 5   -273842.56921
  20249831.6294  -20644059.90347 -12325121.16962
  21508280.7074    3741218.31546   2915219.01561
 91  4 23 22 39 29.9960000  0  5G13G 2G15G 6G19
  22480706.168    -2490106.576 5  -1615024.90121
  19627792.457     -548057.072 8   -407567.00523
  22992953.1134    -546134.35945   -298305.84161
  20243337.4964  -20678176.25647 -12351705.30762
  21512928.9414    3765639.67146   2934248.57661
 91  4 23 22 39 44.9960000  0  5G13G 2G15G 6G19
  22467654.3094   -2558691.48945  -1668467.39261
  19625925.801     -557875.176 8   -415217.45823
  22987000.5354    -577436.77445   -322697.21861
  20236850.887   -20712258.052 7 -12378262.50722
  21517588.7074    3790122.48846   2953326.02461
 91  4 23 22 39 59.9960000  0  5G13G 2G15G 6G19
  22454608.379    -2627238.145 5  -1721880.04221
  19624067.363     -567638.324 8   -422825.08423
  22981065.809     -608644.113 5   -347014.48521
  20230374.527   -20746302.603 7 -12404790.68522
  21522260.9264    3814669.11446   2972453.19761
 91  4 23 22 40 14.9960000  0  5G13G 2G15G 6G19
  22441576.7074   -2695739.22445  -1775257.18261
  19622221.832     -577339.706 8   -430384.58423
  22975144.176     -639749.358 5   -371252.22221
  20223903.7384  -20780302.94247 -12431284.41562
  21526942.543     3839286.257 6   2991635.30921
 91  4 23 22 40 29.9960000  0  5G13G 2G15G 6G19
  22428550.012    -2764197.825 5  -1828601.24321
  19620385.895     -586982.676 8   -437898.56823
  22969238.215     -670755.368 5   -395412.61221
  20217440.9654  -20814262.20547 -12457746.14062
  21531639.9414    3863970.57546   3010869.76961
 91  4 23 22 40 44.9960000  0  5G13G 2G15G 6G19
  22415531.1604   -2832613.51645  -1881911.84761
  19618560.465     -596567.346 8   -445367.12623
  22963363.426     -701661.953 5   -419495.53021
  20210985.5904  -20848180.16247 -12484175.68262
  21536351.9964    3888721.92346   3030156.46861
 91  4 23 22 40 59.9960000  0  5G13G 2G15G 6G19
  22402514.0594   -2900998.81145  -1935198.74961
  19616746.770     -606106.770 8   -452800.42823
  22957497.9654    -732481.92345   -443510.97861
  20204539.3404  -20882069.84647 -12510583.19062
  21541073.863     3913527.240 6   3049485.20421
 91  4 23 22 41 14.9960000  0  5G13G 2G15G 6G19
  22389510.0434   -2969341.03045  -1988452.10961
  19614942.457     -615588.823 8   -460189.02223
  22951648.6454    -763202.38845   -467448.88661
  20198096.4734  -20915918.35747 -12536958.60962
  21545803.035     3938398.904 6   3068865.64221
 91  4 23 22 41 29.9960000  0  5G13G 2G15G 6G19
  22376516.6994   -3037636.73745  -2041669.22461
  19613149.934     -625010.548 8   -467530.60923
  22945826.2704    -793820.23545   -491306.83361
  20191663.7234  -20949722.76347 -12563299.66662
  21550550.1064    3963339.77446   3088300.01561
 91  4 23 22 41 44.9960000  0  5G13G 2G15G 6G19
  22363527.371    -3105889.309 5  -2094852.74621
  19611367.324     -634375.732 8   -474828.13323
  22940017.934     -824338.739 5   -515087.35921
  20185240.2464  -20983486.44947 -12589608.99262
  21555307.004     3988346.178 6   3107785.44821
 91  4 23 22 41 59.9960000  0  5G13G 2G15G 6G19
  22350545.856    -3174091.778 5  -2147997.18921
  19609597.168     -643677.922 8   -482076.57723
  22934228.4024    -854750.95345   -538785.07761
  20178823.6764  -21017202.58347 -12615881.26462
  21560080.684     4013424.757 6   3127327.12821
 91  4 23 22 42 14.9960000  0  5G13G 2G15G 6G19
  22337577.2934   -3242247.28945  -2201105.01561
  19607838.856     -652920.681 8   -489278.71423
  22928461.707     -885060.176 5   -562402.53321
  20172415.7774  -21050874.52347 -12642119.10162
  21564862.949     4038571.873 6   3146922.20821
 91  4 23 22 42 29.9960000  0  5G13G 2G15G 6G19
  22324619.715    -3310349.532 5  -2254171.38721
  19606090.824     -662098.037 8   -496429.88323
  22922711.1064    -915259.85345   -585934.64161
  20166018.4574  -21084496.06147 -12668317.66662
  21569664.9264    4063793.54846   3166575.38761
 91  4 23 22 42 44.9960000  0  5G13G 2G15G 6G19
  22311669.051    -3378402.787 5  -2307199.54721
  19604356.113     -671214.711 8   -503533.76423
  22916990.660     -945354.640 5   -609384.99321
  20159628.4654  -21118071.52447 -12694480.32862
  21574476.5824    4089085.01746   3186282.96261
 91  4 23 22 42 59.9960000  0  5G13G 2G15G 6G19
  22298725.707    -3446405.829 5  -2360188.58521
  19602632.332     -680269.901 8   -510589.73723
  22911279.9814    -975343.13545   -632752.53061
  20153247.3014  -21151599.96747 -12720606.34463
  21579306.8484    4114447.14446   3206045.58861
 91  4 23 22 43 14.9960000  0  5G13G 2G15G 6G19
  22285795.082    -3514363.058 5  -2413141.92721
  19600922.121     -689268.383 8   -517601.52523
  22905589.981    -1005229.972 5   -656040.83821
  20146876.5514  -21185085.87747 -12746699.23162
  21584142.441     4139875.113 6   3225859.50521
 91  4 23 22 43 29.9960000  0  5G13G 2G15G 6G19
  22272872.660    -3582274.477 5  -2466059.58521
  19599219.871     -698210.987 8   -524569.77023
  22899924.785    -1035015.479 5   -679250.21521
  20140511.1914  -21218529.72247 -12772759.32963
  21588996.652     4165368.293 6   3245724.24321
 91  4 23 22 43 44.9960000  0  5G13G 2G15G 6G19
  22259957.613    -3650137.751 5  -2518939.68521
  19597529.012     -707095.874 8   -531493.03523
  22894275.481    -1064697.617 5   -702379.01121
  20134155.7234  -21251929.39747 -12798785.01663
  21593860.402     4190928.469 6   3265641.19321
 91  4 23 22 43 59.9960000  0  5G13G 2G15G 6G19
  22247048.2774   -3717958.86045  -2571787.00761
  19595848.520     -715929.394 8   -538376.27823
  22888643.9494   -1094282.09945   -725431.74461
  20127806.8014  -21285291.03947 -12824781.06463
  21598734.613     4216549.407 6   3285605.47921
 91  4 23 22 44 14.9960000  0  5G13G 2G15G 6G19
  22234153.059    -3785731.374 5  -2624596.42221
  19594177.981     -724705.511 8   -545214.79423
  22883033.7154   -1123762.39345   -748403.26461
  20121467.5204  -21318608.14947 -12850742.40963
  21603623.520     4242237.226 6   3305621.87921
 91  4 23 22 44 29.9960000  0  5G13G 2G15G 6G19
  22221267.3324   -3853454.26345  -2677367.19861
  19592518.496     -733423.893 8   -552008.32023
  22877442.324    -1153138.079 5   -771293.29621
  20115135.9654  -21351879.88047 -12876668.39263
  21608531.043     4267992.293 6   3325690.68621
 91  4 23 22 44 44.9960000  0  5G13G 2G15G 6G19
  22208387.0514   -3921128.89545  -2730100.30661
  19590870.832     -742086.051 8   -558758.03723
  22871875.5514   -1182410.17345   -794102.62761
  20108811.3244  -21385107.96047 -12902560.36363
  21613438.582     4293812.981 6   3345810.63121
 91  4 23 22 44 59.9960000  0  5G13G 2G15G 6G19
  22195518.9024   -3988749.99945  -2782791.76461
  19589232.738     -750687.228 8   -565460.23923
  22866328.395    -1211573.534 5   -816827.15421
  20102496.9104  -21418287.23447 -12928414.30863
  21618365.7314    4319704.19846   3365985.52961
 91  4 23 22 45 14.9960000  0  5G13G 2G15G 6G19
  22182664.926    -4056313.234 5  -2835438.10421
  19587608.387     -759223.408 8   -572111.78723
  22860795.379    -1240623.853 5   -839463.65721
  20096197.598   -21451413.111 7 -12954226.63523
  21623305.285     4345669.994 6   3386218.54621
 91  4 23 22 45 29.9960000  0  5G13G 2G15G 6G19
  22169816.465    -4123821.930 5  -2888041.97621
  19585996.027     -767698.542 8   -578715.76623
  22855288.809    -1269564.731 5   -862014.87421
  20089900.7154  -21484489.48547 -12980000.40163
  21628262.082     4371706.375 6   3406506.55921
 91  4 23 22 45 44.9960000  0  5G13G 2G15G 6G19
  22156979.7704   -4191283.20545  -2940608.88161
  19584394.496     -776120.225 8   -585278.09923
  22849806.512    -1298403.129 5   -884486.21821
  20083614.3634  -21517523.64547 -13005741.26663
  21633228.9964    4397805.84246   3426843.72661
 91  4 23 22 45 59.9960000  0  5G13G 2G15G 6G19
  22144153.090    -4258692.585 5  -2993135.33821
  19582802.613     -784484.405 8   -591795.62423
  22844335.793    -1327134.765 5   -906874.37621
  20077336.9344  -21550511.15047 -13031445.77563
  21638206.309     4423972.389 6   3447233.17421
 91  4 23 22 46 14.9960000  0  5G13G 2G15G 6G19
  22131333.0984   -4326044.95345  -3045617.36361
  19581221.082     -792786.360 8   -598264.66023
  22838888.1844   -1355754.59645   -929175.43061
  20071071.8794  -21583446.99147 -13057110.03163
  21643199.746     4450210.911 6   3467678.69221
 91  4 23 22 46 29.9960000  0  5G13G 2G15G 6G19
  22118525.3404   -4393340.70745  -3098055.28461
  19579653.324     -801026.940 8   -604685.87423
  22833462.309    -1384263.030 5   -951389.66021
  20064812.3404  -21616331.94547 -13082734.63463
  21648212.809     4476520.322 6   3488179.46021
 91  4 23 22 46 44.9960000  0  5G13G 2G15G 6G19
  22105732.066    -4460580.607 5  -3150449.70121
  19578096.473     -809207.434 8   -611060.27323
  22828058.137    -1412661.252 5   -973518.02821
  20058562.9494  -21649166.93547 -13108320.30563
  21653224.520     4502899.481 6   3508734.56321
 91  4 23 22 46 59.9960000  0  5G13G 2G15G 6G19
  22092950.7384   -4527762.35145  -3202798.79261
  19576552.848     -817326.076 8   -617386.46223
  22822677.1134   -1440947.05245   -995558.77161
  20052326.395   -21681949.758 7 -13133865.32123
  21658257.270     4529350.254 6   3529345.48021
 91  4 23 22 47 14.9960000  0  5G13G 2G15G 6G19
  22080172.2074   -4594894.09245  -3255108.90761
  19575018.387     -825391.621 8   -623671.27823
  22817319.1524   -1469128.61645  -1017518.31461
  20046094.7854  -21714688.77247 -13159376.20063
  21663301.004     4555864.044 6   3550005.50221
 91  4 23 22 47 29.9960000  0  5G13G 2G15G 6G19
  22067407.3634   -4661972.33745  -3307377.38761
  19573493.020     -833400.861 8   -629912.23023
  22811977.816    -1497202.384 6  -1039393.84221
  20039872.9104  -21747380.73147 -13184850.42063
  21668362.8244    4582443.88346   3570716.98161
 91  4 23 22 47 44.9960000  0  5G13G 2G15G 6G19
  22054655.1604   -4728995.16145  -3359602.62061
  19571979.7624    -841352.21748   -636108.08163
  22806652.5904   -1525166.63245  -1061184.04861
  20033663.629   -21780023.719 7 -13210286.46923
  21673433.402     4609091.148 6   3591481.00621
 91  4 23 22 47 59.9960000  0  5G13G 2G15G 6G19
  22041914.6914   -4795962.08545  -3411784.31161
  19570477.574     -849245.652 8   -642258.79423
  22801347.918    -1553020.914 5  -1082888.57121
  20027460.6374  -21812617.31547 -13235684.03663
  21678519.629     4635806.106 6   3612297.78421
 91  4 23 22 48 14.9960000  0  5G13G 2G15G 6G19
  22029172.2314   -4862875.49145  -3463924.31561
  19568985.707     -857084.320 8   -648366.82823
  22796068.902    -1580767.779 5  -1104509.39321
  20021267.8954  -21845164.13847 -13261045.15563
  21683612.0204    4662586.07346   3633165.22161
 91  4 23 22 48 29.9960000  0  5G13G 2G15G 6G19
  22016450.4494   -4929733.08245  -3516020.83761
  19567506.481     -864866.395 8   -654430.76423
  22790808.9344   -1608404.98945  -1126044.78161
  20015082.8794  -21877662.32147 -13286368.38163
  21688723.473     4689432.596 6   3654084.51421
 91  4 23 22 48 44.9960000  0  5G13G 2G15G 6G19
  22003743.5984   -4996534.78145  -3568073.83661
  19566035.074     -872591.924 8   -660450.63923
  22785574.457    -1635932.638 5  -1147494.77821
  20008907.707   -21910111.734 7 -13311653.60123
  21693843.481     4716345.526 6   3675055.55421
 91  4 23 22 48 59.9960000  0  5G13G 2G15G 6G19
  21991034.699    -5063288.417 5  -3620089.32021
  19564574.5044    -880269.03547   -666432.79363
  22780352.4344   -1663358.44745  -1168865.43761
  20002740.2704  -21942520.09547 -13336906.83163
  21698977.949     4743316.836 6   3696072.08221
 91  4 23 22 49 14.9960000  0  5G13G 2G15G 6G19
  21978343.3164   -5129979.78845  -3672056.32161
  19563126.434     -887884.333 8   -672366.77623
  22775153.8954   -1690668.41445  -1190145.82961
  19996583.8484  -21974873.72147 -13362117.41363
  21704122.457     4770360.043 6   3717144.62921
 91  4 23 22 49 29.9960000  0  5G13G 2G15G 6G19
  21965669.2704   -5196616.72545  -3723980.90361
  19561686.0434    -895445.98348   -678258.96563
  22769978.598    -1717870.630 5  -1211342.26621
  19990436.6524  -22007180.58647 -13387291.55863
  21709281.020     4797466.676 6   3738266.60721
 91  4 23 22 49 44.9960000  0  5G13G 2G15G 6G19
  21953000.559    -5263200.021 5  -3775863.67921
  19560257.426     -902955.388 8   -684110.43423
  22764828.168    -1744966.064 6  -1232455.47121
  19984298.309   -22039441.761 7 -13412430.09222
  21714450.574     4824635.539 6   3759437.07121
 91  4 23 22 49 59.9960000  0  5G13G 2G15G 6G19
  21940335.043    -5329729.872 5  -3827704.83221
  19558838.106     -910413.071 8   -689921.60323
  22759689.6994   -1771954.92546  -1253485.66561
  19978166.9884  -22071657.43047 -13437533.17562
  21719633.168     4851866.144 5   3780655.64421
 91  4 23 22 50 14.9960000  0  5G13G 2G15G 6G19
  21927687.598    -5396199.414 5  -3879498.97921
  19557430.0744    -917812.84148   -695687.64663
  22754571.082    -1798830.362 5  -1274427.45521
  19972044.6604  -22103820.89647 -13462595.58062
  21724825.856     4879164.803 6   3801927.24021
 91  4 23 22 50 29.9960000  0  5G13G 2G15G 6G19
  21915049.926    -5462610.750 5  -3931247.77721
  19556031.8564    -925157.17748   -701410.49663
  22749480.4184   -1825594.54045  -1295282.57761
  19965934.0904  -22135934.45747 -13487619.09362
  21730033.324     4906528.981 5   3823249.90121
 91  4 23 22 50 44.9960000  0  5G13G 2G15G 6G19
  21902418.2464   -5528966.67245  -3982953.40361
  19554644.0744    -932449.21947   -707092.60063
  22744405.8094   -1852250.25645  -1316053.17261
  19959834.731   -22168000.985 7 -13512605.95922
  21735254.621     4933955.764 6   3844621.34321
 91  4 23 22 50 59.9960000  0  5G13G 2G15G 6G19
  21889803.621    -5595265.835 5  -4034614.79521
  19553267.6064    -939688.00148   -712733.20063
  22739354.840    -1878796.211 5  -1336738.23821
  19953740.4024  -22200019.12947 -13537555.12362
  21740487.934     4961445.924 6   3866042.16521
 91  4 23 22 51 14.9960000  0  5G13G 2G15G 6G19
  21877201.5984   -5661498.13045  -4086224.09861
  19551902.7544    -946864.06948   -718324.93663
  22734329.8874   -1905222.93545  -1357330.40961
  19947657.1294  -22231979.30947 -13562459.12762
  21745732.848     4989008.752 6   3887519.61421
 91  4 23 22 51 29.9960000  0  5G13G 2G15G 6G19
  21864610.7704   -5727673.69745  -4137789.15561
  19550545.9104    -953988.17248   -723876.17563
  22729315.129    -1931540.215 5  -1377837.29421
  19941585.090   -22263891.620 7 -13587325.82122
  21750989.465     5016633.892 6   3909045.61421
 91  4 23 22 51 44.9960000  0  5G13G 2G15G 6G19
  21852023.293    -5793784.575 5  -4189303.84421
  19549200.5664    -961052.49747   -729380.82963
  22724328.535    -1957740.324 5  -1398252.86121
  19935524.1844  -22295748.31547 -13612149.17662
  21756259.996     5044328.877 6   3930626.03721
 91  4 23 22 51 59.9960000  0  5G13G 2G15G 6G19
  21839458.8164   -5859832.75045  -4240769.65761
  19547868.3324    -968059.53947   -734840.85563
  22719371.5204   -1983825.57746  -1418578.95161
  19929470.7074  -22327551.50947 -13636930.85462
  21761540.606     5072091.275 6   3952259.00621
 91  4 23 22 52 14.9960000  0  5G13G 2G15G 6G19
  21826904.1684   -5925818.87345  -4292187.13261
  19546545.1524    -975010.50947   -740257.19063
  22714425.113    -2009796.476 5  -1438815.92021
  19923428.8324  -22359302.06347 -13661671.50762
  21766837.176     5099920.209 6   3973943.80621
 91  4 23 22 52 29.9960000  0  5G13G 2G15G 6G19
  21814357.691    -5991745.237 5  -4343558.04321
  19545233.2314    -981907.98847   -745631.84463
  22709506.238    -2035655.483 5  -1458965.69421
  19917397.691   -22391002.314 7 -13686372.95222
  21772144.3324    5127812.88346   3995678.27261
 91  4 23 22 52 44.9960000  0  5G13G 2G15G 6G19
  21801823.9814   -6057605.32945  -4394877.28961
  19543933.121     -988745.904 8   -750960.07523
  22704607.4654   -2061396.18945  -1479023.26961
  19911376.441   -22422645.790 7 -13711030.16522
  21777464.676     5155775.322 5   4017467.10021
 91  4 23 22 52 59.9960000  0  5G13G 2G15G 6G19
  21789303.4024   -6123396.83345  -4446143.12761
  19542643.6844    -995522.55048   -756240.56863
  22699730.051    -2087016.438 5  -1498987.02221
  19905364.8014  -22454230.58947 -13735641.66762
  21782797.7384    5183809.36645   4039311.72561
 91  4 23 22 53 14.9950000  0  5G13G 2G15G 6G19
  21776793.835    -6189119.964 5  -4497355.64921
  19541362.7654   -1002242.36447   -761476.78263
  22694880.6634   -2112519.00645  -1518859.06961
  19899365.1714  -22485759.13747 -13760209.33662
  21788147.4294    5211908.22345   4061206.85161
 91  4 23 22 53 29.9950000  0  5G13G 2G15G 6G19
  21764300.179    -6254789.797 5  -4548526.67221
  19540093.163    -1008913.152 7   -766674.78723
  22690049.304    -2137913.847 5  -1538647.16321
  19893374.030   -22517242.193 7 -13784741.53823
  21793506.9524    5240068.78145   4083150.04561
 91  4 23 22 53 44.9950000  0  5G13G 2G15G 6G19
  21751814.0304   -6320395.63345  -4599647.82461
  19538835.8044   -1015528.41947   -771829.53263
  22685238.1484   -2163193.12145  -1558345.21761
  19887392.2574  -22548671.41547 -13809231.80463
  21798873.0384    5268295.18845   4105144.56461
 91  4 23 22 53 59.9950000  0  5G13G 2G15G 6G19
  21739345.452    -6385933.540 5  -4650716.03521
  19537588.5464   -1022084.90547   -776938.47463
  22680449.671    -2188353.029 5  -1577950.23121
  19881423.4994  -22580043.23247 -13833677.33963
  21804263.1164    5296590.60045   4127192.84061
 91  4 23 22 54 14.9950000  0  5G13G 2G15G 6G19
  21726882.4294   -6451412.95945  -4701738.66961
  19536350.1484   -1028592.35848   -782009.21563
  22675682.991    -2213403.206 5  -1597469.76321
  19875463.4054  -22611366.92947 -13858085.37962
  21809657.421     5324945.310 5   4149287.33921
 91  4 23 22 54 29.9950000  0  5G13G 2G15G 6G19
  21714432.358    -6516827.290 5  -4752710.60521
  19535121.398    -1035044.533 7   -787036.86523
  22670936.8904   -2238337.26845  -1616898.81961
  19869512.8584  -22642636.29847 -13882451.07763
  21815068.4994    5353365.37545   4171432.75161
 91  4 23 22 54 44.9950000  0  5G13G 2G15G 6G19
  21701997.171    -6582185.161 5  -4803638.53521
  19533902.8194   -1041450.37347   -792028.41663
  22666211.3584   -2263163.52745  -1636243.86161
  19863572.4374  -22673859.85547 -13906781.09263
  21820485.0694    5381842.03346   4193622.26361
 91  4 23 22 54 59.9950000  0  5G13G 2G15G 6G19
  21689572.413    -6647476.711 6  -4854514.76321
  19532693.6634   -1047800.59147   -796976.62863
  22661508.7574   -2287872.31645  -1655497.36961
  19857639.6404  -22705027.97847 -13931067.90763
  21825919.1634    5410384.64545   4215863.17061
 91  4 23 22 55 14.9950000  0  5G13G 2G15G 6G19
  21677161.210    -6712698.502 6  -4905336.66221
  19531495.585    -1054092.537 7   -801879.42823
  22656830.702    -2312460.635 5  -1674657.00521
  19851721.2574  -22736137.58047 -13955309.11463
  21831363.030     5438995.908 5   4238157.55721
 91  4 23 22 55 29.9950000  0  5G13G 2G15G 6G19
  21664763.312    -6777854.671 6  -4956107.43821
  19530309.0464   -1060330.48148   -806740.15163
  22652176.218    -2336932.263 5  -1693725.71021
  19845810.1634  -22767192.78547 -13979507.94463
  21836819.7414    5467671.48445   4260502.07661
 91  4 23 22 55 44.9950000  0  5G13G 2G15G 6G19
  21652376.116    -6842940.622 6  -5006823.49621
  19529133.9764   -1066510.56448   -811555.79663
  22647536.5544   -2361283.16745  -1712700.34061
  19839911.4214  -22798189.21447 -14003660.97663
  21842285.780     5496415.291 5   4282899.76421
 91  4 23 22 55 59.9950000  0  5G13G 2G15G 6G19
  21640005.3744   -6907952.12946  -5057481.52661
  19527969.898    -1072628.816 8   -816323.25123
  22642931.663    -2385509.056 5  -1731577.55421
  19834025.3044  -22829122.71247 -14027764.96963
  21847769.7964    5525231.29845   4305353.71161
 91  4 23 22 56 14.9950000  0  5G13G 2G15G 6G19
  21627644.749    -6972897.959 6  -5108088.41521
  19526815.788    -1078694.605 8   -821049.82023
  22638341.132    -2409619.111 5  -1750364.53121
  19828148.7964  -22860002.36347 -14051826.99663
  21853262.1874    5554110.10645   4327856.58661
 91  4 23 22 56 29.9950000  0  5G13G 2G15G 6G19
  21615298.898    -7037773.894 6  -5158640.85821
  19525671.288    -1084704.007 8   -825732.46123
  22633777.351    -2433609.299 5  -1769058.07221
  19822284.1554  -22890824.02547 -14075843.83863
  21858775.2264    5583055.68745   4350411.49561
 91  4 23 22 56 44.9950000  0  5G13G 2G15G 6G19
  21602968.3984   -7102581.87146  -5209140.28961
  19524537.0624   -1090659.12048   -830372.79863
  22629234.4054   -2457481.39445  -1787659.61861
  19816429.2334  -22921589.48347 -14099816.89463
  21864295.218     5612065.629 5   4373016.55121
 91  4 23 22 56 59.9950000  0  5G13G 2G15G 6G19
  21590647.866    -7167319.800 6  -5259585.16321
  19523414.898    -1096558.548 8   -834969.74223
  22624712.3194   -2481233.64545  -1806167.76661
  19810583.7734  -22952297.04247 -14123744.83563
  21869827.9214    5641141.61845   4395673.07361
 91  4 23 22 57 14.9950000  0  5G13G 2G15G 6G19
  21578342.569    -7231992.090 6  -5309978.90121
  19522302.890    -1102407.297 8   -839527.19323
  22620215.632    -2504870.393 5  -1824585.91221
  19804751.4914  -22982951.24447 -14147631.18863
  21875370.8044    5670278.71645   4418377.20761
 91  4 23 22 57 29.9950000  0  5G13G 2G15G 6G19
  21566049.4294   -7296600.09346  -5360322.53061
  19521198.530    -1108206.919 8   -844046.36423
  22615741.4444   -2528392.69445  -1842914.89061
  19798928.7264  -23013553.30947 -14171476.91963
  21880935.3744    5699475.35345   4441127.75061
 91  4 23 22 57 44.9950000  0  5G13G 2G15G 6G19
  21553764.499    -7361138.926 6  -5410612.27221
  19520105.991    -1113953.163 8   -848523.94123
  22611285.9374   -2551796.19645  -1861151.30261
  19793114.648   -23044098.743 7 -14195278.51223
  21886499.577     5728735.797 5   4463927.99621
 91  4 23 22 57 59.9950000  0  5G13G 2G15G 6G19
  21541497.1484   -7425609.19746  -5460848.61861
  19519021.8514   -1119647.05548   -852960.72663
  22606857.1944   -2575081.47045  -1879295.59361
  19787312.0694  -23074588.31347 -14219036.58263
  21892079.812     5758058.969 5   4486777.12421
 91  4 23 22 58 14.9950000  0  5G13G 2G15G 6G19
  21529239.8274   -7490014.34546  -5511034.17361
  19517948.0074   -1125292.22448   -857359.54763
  22602444.124    -2598252.199 5  -1897350.59921
  19781521.835   -23105025.361 7 -14242753.73623
  21897669.7494    5787441.02645   4509672.13161
 91  4 23 22 58 29.9950000  0  5G13G 2G15G 6G19
  21516994.8274   -7554356.90646  -5561170.99161
  19516882.148    -1130891.785 8   -861722.83223
  22598054.5464   -2621311.20045  -1915318.56361
  19775738.9294  -23135412.80647 -14266432.23463
  21903270.546     5816878.996 5   4532610.72421
 91  4 23 22 58 44.9950000  0  5G13G 2G15G 6G19
  21504763.562    -7618632.239 6  -5611255.42321
  19515827.069    -1136441.689 8   -866047.42023
  22593693.554    -2644254.064 5  -1933196.05321
  19769967.3514  -23165745.99447 -14290068.45063
  21908882.9914    5846376.97645   4555596.07361
 91  4 23 22 58 59.9950000  0  5G13G 2G15G 6G19
  21492546.585    -7682841.116 6  -5661288.06221
  19514780.780    -1141942.981 8   -870334.12723
  22589353.0464   -2667081.50846  -1950983.56161
  19764206.7734  -23196025.97947 -14313663.21463
  21914511.8124    5875933.72145   4578627.20961
 91  4 23 22 59 14.9950000  0  5G13G 2G15G 6G19
  21480339.163    -7746984.952 6  -5711270.02421
  19513741.405    -1147397.572 8   -874584.44423
  22585025.788    -2689795.073 5  -1968682.35121
  19758453.6874  -23226254.38047 -14337217.77963
  21920144.6874    5905547.42645   4601702.73661
 91  4 23 22 59 29.9950000  0  5G13G 2G15G 6G19
  21468145.405    -7811062.486 6  -5761200.33021
  19512711.593    -1152804.726 8   -878797.79823
  22580723.273    -2712393.849 5  -1986291.69621
  19752709.8514  -23256429.89547 -14360731.13663
  21925788.9054    5935218.84845   4624823.21561
 91  4 23 22 59 44.9950000  0  5G13G 2G15G 6G19
  21455965.5074   -7875078.29946  -5811082.54661
  19511692.3584   -1158169.47548   -882978.11063
  22576444.991    -2734882.454 5  -2003815.19421
  19746978.5234  -23286557.38547 -14384207.06763
  21931446.538     5964942.877 5   4647984.70321
 91  4 23 22 59 59.9950000  0  5G13G 2G15G 6G19
  21443791.6634   -7939029.98446  -5860914.78861
  19510679.6244   -1163489.80648   -887123.81263
  22572184.4604   -2757258.58145  -2021251.06661
  19741254.2414  -23316634.37847 -14407643.65863
  21937113.648     5994721.600 5   4671188.79321
 91  4 23 23  0 14.9950000  0  5G13G 2G15G 6G19
  21431637.546    -8002917.475 6  -5910697.00021
  19509676.0384   -1168765.91848   -891235.06163
  22567951.0234   -2779522.12845  -2038599.19461
  19735539.6324  -23346660.92547 -14431040.93563
  21942791.976     6024554.813 5   4694435.35021
 91  4 23 23  0 29.9950000  0  5G13G 2G15G 6G19
  21419491.8584   -8066742.01746  -5960430.18161
  19508679.2184   -1173999.64848   -895313.27763
  22563737.5234   -2801674.55145  -2055860.73261
  19729836.0624  -23376638.52247 -14454400.06663
  21948476.327     6054440.624 5   4717722.90921
 91  4 23 23  0 44.9950000  0  5G13G 2G15G 6G19
  21407358.218    -8130501.802 6  -6010112.89821
  19507691.944    -1179189.554 8   -899357.34823
  22559540.327    -2823714.149 5  -2073034.36321
  19724140.4914  -23406565.47747 -14477719.74063
  21954173.8904    6084380.45445   4741052.54761
 91  4 23 23  0 59.9950000  0  5G13G 2G15G 6G19
  21395240.335    -8194186.992 6  -6059737.48621
  19506715.382    -1184326.273 8   -903359.97723
  22555365.6164   -2845631.20745  -2090112.50261
  19718458.148   -23436432.066 7 -14500992.38623
  21959887.0074    6114383.63045   4764431.53761
 91  4 23 23  1 14.9950000  0  5G13G 2G15G 6G19
  21383133.1164   -8257800.76946  -6109306.43461
  19505745.671    -1189413.542 8   -907324.06823
  22551220.616    -2867429.302 5  -2107097.94221
  19712785.7734  -23466241.75647 -14524220.68263
  21965604.1014    6144446.42245   4787856.99761
 91  4 23 23  1 29.9950000  0  5G13G 2G15G 6G19
  21371043.155    -8321347.659 6  -6158823.26021
  19504787.4054   -1194455.97148   -911253.22663
  22547095.101    -2889112.619 5  -2123993.96621
  19707120.6324  -23495998.77947 -14547407.93963
  21971337.4294    6174564.27945   4811325.35761
 91  4 23 23  1 44.9950000  0  5G13G 2G15G 6G19
  21358962.296    -8384825.622 6  -6208286.38121
  19503834.9684   -1199452.25748   -915146.42863
  22542991.999    -2910679.676 5  -2140799.37221
  19701471.4684  -23525701.58347 -14570552.95363
  21977082.194     6204738.594 5   4834837.69821
 91  4 23 23  1 59.9950000  0  5G13G 2G15G 6G19
  21346897.2264   -8448233.47546  -6257694.86061
  19502893.4604   -1204401.62448   -919003.07063
  22538909.7654   -2932129.27845  -2157513.24661
  19695828.6484  -23555348.92147 -14593654.74463
  21982834.6084    6234970.22345   4858394.72761
 91  4 23 23  2 14.9950000  0  5G13G 2G15G 6G19
  21334841.491    -8511575.187 6  -6307051.79221
  19501960.8274   -1209308.23848   -922826.39863
  22534848.1554   -2953465.58945  -2174138.86661
  19690195.8514  -23584944.86547 -14616716.48463
  21988593.358     6265254.645 5   4881992.86621
 91  4 23 23  2 29.9950000  0  5G13G 2G15G 6G19
  21322800.616    -8574845.076 6  -6356352.78621
  19501035.9374   -1214167.03348   -926612.46363
  22530808.7414   -2974683.07345  -2190671.89461
  19684574.179   -23614484.054 7 -14639734.00923
  21994373.4374    6295596.90045   4905636.10161
 91  4 23 23  2 44.9950000  0  5G13G 2G15G 6G19
  21310775.726    -8638037.230 6  -6405593.19221
  19500120.038    -1218972.492 8   -930356.96323
  22526798.7804   -2995776.12845  -2207107.97361
  19678966.7184  -23643960.61647 -14662702.72163
  22000154.273     6326002.421 5   4929328.60921
 91  4 23 23  2 59.9950000  0  5G13G 2G15G 6G19
  21298764.882    -8701149.088 6  -6454771.03621
  19499218.280    -1223722.448 8   -934058.21523
  22522809.1944   -3016741.97445  -2223444.91061
  19673367.9294  -23673372.03847 -14685620.68663
  22005953.648     6356473.498 5   4953072.20621
 91  4 23 23  3 14.9950000  0  5G13G 2G15G 6G19
  21286770.3434   -8764177.20846  -6503883.61161
  19498326.0384   -1228413.92648   -937713.90263
  22518844.5774   -3037577.49345  -2239680.28261
  19667784.5694  -23702715.01747 -14708485.31663
  22011768.429     6387013.155 5   4976869.22221
 91  4 23 23  3 29.9950000  0  5G13G 2G15G 6G19
  21274792.7184   -8827122.60346  -6552931.76061
  19497441.2334   -1233048.55948   -941325.29763
  22514902.7104   -3058284.09345  -2255815.21161
  19662213.2884  -23731990.91647 -14731297.67363
  22017590.960     6417619.771 5   5000718.43621
 91  4 23 23  3 44.9950000  0  5G13G 2G15G 6G19
  21262829.1324   -8889988.66946  -6601918.07261
  19496570.6084   -1237629.95148   -944895.20163
  22510983.1794   -3078865.26245  -2271852.41261
  19656655.5384  -23761203.07847 -14754060.36563
  22023429.616     6448289.621 5   5024616.90321
 91  4 23 23  3 59.9950000  0  5G13G 2G15G 6G19
  21250883.5384   -8952773.90146  -6650841.41861
  19495708.7574   -1242156.94948   -948422.72563
  22507094.8984   -3099319.44745  -2287790.68261
  19651109.483   -23790349.922 7 -14776772.16823
  22029278.874     6479024.018 5   5048565.67921
 91  4 23 23  4 14.9950000  0  5G13G 2G15G 6G19
  21238951.312    -9015484.015 6  -6699706.19021
  19494855.9994   -1246635.74648   -951912.68363
  22503227.4994   -3119652.40045  -2303634.45361
  19645572.9684  -23819437.53347 -14799437.80663
  22035137.952     6509816.534 5   5072559.72721
 91  4 23 23  4 29.9950000  0  5G13G 2G15G 6G19
  21227030.366    -9078121.647 6  -6748514.51621
  19494012.9834   -1251069.28848   -955367.37963
  22499375.741    -3139866.650 5  -2319385.73421
  19640048.7804  -23848468.27547 -14822059.12963
  22041005.976     6540664.338 5   5096596.87321
 91  4 23 23  4 44.9950000  0  5G13G 2G15G 6G19
  21215124.546    -9140684.978 6  -6797264.93321
  19493179.1404   -1255456.53848   -958786.00763
  22495555.210    -3159961.063 5  -2335043.64021
  19634535.9214  -23877440.96047 -14844635.21863
  22046887.530     6571568.291 5   5120677.76221
 91  4 23 23  4 59.9950000  0  5G13G 2G15G 6G19
  21203228.319    -9203182.897 6  -6845964.38421
  19492349.7964   -1259806.80448   -962175.81463
  22491748.749    -3179944.719 6  -2350615.27021
  19629031.9294  -23906364.45847 -14867172.97963
  22052776.827     6602519.345 5   5144795.35721
 91  4 23 23  5 14.9950000  0  5G13G 2G15G 6G19
  21191351.148    -9265606.335 6  -6894605.80521
  19491530.8984   -1264111.17648   -965529.86363
  22487970.257    -3199808.649 5  -2366093.57121
  19623539.601   -23935229.663 7 -14889665.31823
  22058671.257     6633526.036 5   5168956.31121
 91  4 23 23  5 29.9950000  0  5G13G 2G15G 6G19
  21179486.257    -9327957.015 6  -6943190.52821
  19490720.7964   -1268371.81148   -968849.83163
  22484215.624    -3219554.499 5  -2381479.86421
  19618056.812   -23964038.485 7 -14912113.73023
  22064584.507     6664586.188 5   5193158.92621
 91  4 23 23  5 44.9950000  0  5G13G 2G15G 6G19
  21167638.054    -9390226.848 6  -6991712.24821
  19489919.6084   -1272581.08348   -972129.77263
  22480479.476    -3239174.267 5  -2396767.92921
  19612588.4374  -23992782.89347 -14934511.93563
  22070509.765     6695707.389 5   5217409.10521
 91  4 23 23  5 59.9950000  0  5G13G 2G15G 6G19
  21155801.210    -9452418.147 6  -7040172.79121
  19489127.3514   -1276741.65148   -975371.76463
  22476768.3584   -3258670.57045  -2411959.77861
  19607128.358   -24021465.324 7 -14956861.85023
  22076442.405     6726887.093 5   5241704.87421
 91  4 23 23  6 14.9950000  0  5G13G 2G15G 6G19
  21143981.9134   -9514539.41346  -7088578.74861
  19488344.4604   -1280862.57548   -978582.86163
  22473081.226    -3278052.240 5  -2427062.31321
  19601682.905   -24050094.444 7 -14979170.23923
  22082385.491     6758116.221 5   5266039.15321
 91  4 23 23  6 29.9950000  0  5G13G 2G15G 6G19
  21132176.6484   -9576576.26046  -7136918.93761
  19487571.1714   -1284930.03548   -981752.30063
  22469416.7884   -3297305.11145  -2442064.48761
  19596245.0624  -24078656.27247 -15001426.17963
  22088338.765     6789408.442 5   5290422.59121
 91  4 23 23  6 44.9950000  0  5G13G 2G15G 6G19
  21120385.921    -9638534.024 6  -7185197.51021
  19486805.569    -1288949.673 8   -984884.47123
  22465777.194    -3316434.621 5  -2456970.51221
  19590822.6084  -24107156.11047 -15023633.80963
  22094305.2024    6820758.25745   5314850.90661
 91  4 23 23  6 59.9950000  0  5G13G 2G15G 6G19
  21108611.054    -9700408.489 6  -7233411.15821
  19486047.5544   -1292917.57048   -987976.32763
  22462168.1714   -3335436.61246  -2471777.20461
  19585413.1874  -24135589.66747 -15045789.79963
  22100284.468     6852169.553 5   5339327.12621
 91  4 23 23  7 14.9950000  0  5G13G 2G15G 6G19
  21096852.358    -9762204.615 6  -7281563.75921
  19485303.9914   -1296839.19848   -991032.13364
  22458568.6554   -3354316.04845  -2486488.37861
  19580012.491   -24163962.039 7 -15067898.12323
  22106271.9294    6883636.84545   5363846.99761
 91  4 23 23  7 29.9950000  0  5G13G 2G15G 6G19
  21085106.6324   -9823923.46846  -7329656.18661
  19484564.843    -1300716.036 8   -994053.03224
  22455000.3194   -3373074.35145  -2501105.17561
  19574623.9054  -24192274.38747 -15089959.66563
  22112272.273     6915158.590 5   5388409.28421
 91  4 23 23  7 44.9950000  0  5G13G 2G15G 6G19
  21073375.593    -9885565.411 6  -7377688.66421
  19483836.0464   -1304548.74548   -997039.54664
  22451456.3664   -3391712.09645  -2515628.03861
  19569248.9054  -24220527.27047 -15111974.86063
  22118279.429     6946733.993 5   5413013.38021
 91  4 23 23  7 59.9950000  0  5G13G 2G15G 6G19
  21061662.2414   -9947122.51146  -7425655.02861
  19483115.6244   -1308329.89448   -999985.88764
  22447929.515    -3410221.346 5  -2530050.76321
  19563884.913   -24248712.708 7 -15133937.51923
  22124302.8514    6978370.40645   5437665.02961
 91  4 23 23  8 14.9950000  0  5G13G 2G15G 6G19
  21049964.976   -10008596.521 6  -7473556.64221
  19482406.538    -1312061.599 8  -1002893.69824
  22444431.8584   -3428603.98045  -2544374.84661
  19558534.1244  -24276832.74047 -15155849.20063
  22130326.374     7010065.679 5   5462362.52921
 91  4 23 23  8 29.9950000  0  5G13G 2G15G 6G19
  21038282.374   -10069982.974 6  -7521390.04421
  19481706.624    -1315739.589 8  -1005759.65024
  22440962.530    -3446855.893 5  -2558597.03821
  19553195.0934  -24304882.78647 -15177706.35163
  22136372.483     7041823.785 5   5487109.00321
 91  4 23 23  8 44.9950000  0  5G13G 2G15G 6G19
  21026616.483   -10131281.981 6  -7569155.30021
  19481018.3354   -1319364.37848  -1008584.15364
  22437511.085    -3464976.960 5  -2572717.29721
  19547872.452   -24332862.929 7 -15199509.03123
  22142427.108     7073644.390 5   5511904.16721
 91  4 23 23  8 59.9950000  0  5G13G 2G15G 6G19
  21014968.6244  -10192491.26446  -7616850.64761
  19480338.8514   -1322934.49248  -1011366.05164
  22434084.702    -3482965.411 5  -2586734.20921
  19542560.6324  -24360771.51347 -15221255.95763
  22148490.9604    7105529.17545   5536749.33661
 91  4 23 23  9 14.9950000  0  5G13G 2G15G 6G19
  21003336.530   -10253612.600 6  -7664477.47721
  19479667.765    -1326452.107 8  -1014107.04024
  22430690.4214   -3500823.05745  -2600649.21261
  19537263.1324  -24388610.12647 -15242948.34963
  22154574.960     7137475.984 5   5561642.84821
 91  4 23 23  9 29.9950000  0  5G13G 2G15G 6G19
  20991720.726   -10314646.966 6  -7712036.53621
  19479008.9214   -1329918.46348  -1016808.08964
  22427316.6244   -3518551.08945  -2614463.19561
  19531980.0384  -24416379.76447 -15264587.00163
  22160670.898     7169483.393 5   5586583.58321
 91  4 23 23  9 44.9950000  0  5G13G 2G15G 6G19
  20980126.007   -10375592.963 6  -7759526.72721
  19478357.2334   -1333332.59648  -1019468.44364
  22423967.0544   -3536148.20745  -2628175.17561
  19526708.0624  -24444079.07147 -15286170.84663
  22166767.366     7201552.387 5   5611572.29821
 91  4 23 23  9 59.9950000  0  5G13G 2G15G 6G19
  20968545.210   -10436448.024 6  -7806946.07121
  19477720.851    -1336692.410 8  -1022086.46324
  22420644.0234   -3553612.12845  -2641783.36861
  19521449.991   -24471705.943 7 -15307698.25223
  22172888.1164    7233684.85145   5636610.45661
 91  4 23 23 10 14.9950000  0  5G13G 2G15G 6G19
  20956982.335   -10497209.065 6  -7854292.13821
  19477090.8044   -1339995.15548  -1024660.01764
  22417346.030    -3570940.017 5  -2655285.56821
  19516208.3194  -24499257.17347 -15329166.71463
  22179011.0544    7265883.66545   5661700.33961
 91  4 23 23 10 29.9950000  0  5G13G 2G15G 6G19
  20945435.530   -10557881.724 6  -7901569.34921
  19476473.2184   -1343247.03648  -1027193.94364
  22414073.702    -3588137.677 5  -2668686.29621
  19510978.9604  -24526738.66747 -15350580.83363
  22185149.757     7298142.431 5   5686836.92221
 91  4 23 23 10 44.9950000  0  5G13G 2G15G 6G19
  20933908.444   -10618461.273 6  -7948774.01021
  19475863.2574   -1346443.42148  -1029684.62564
  22410830.265    -3605200.509 5  -2681981.95921
  19505762.3434  -24554145.63747 -15371936.88763
  22191303.0154    7330465.47445   5712023.59361
 91  4 23 23 10 59.9950000  0  5G13G 2G15G 6G19
  20922398.2964  -10678956.51546  -7995912.97661
  19475263.085    -1349593.517 8  -1032139.23124
  22407601.202    -3622137.268 5  -2695179.38421
  19500559.210   -24581486.975 7 -15393241.79823
  22197464.476     7362843.742 4   5737253.29221
 91  4 23 23 11 14.9950000  0  5G13G 2G15G 6G19
  20910903.616   -10739358.852 6  -8042979.54921
  19474675.843    -1352689.349 8  -1034551.55624
  22404406.655    -3638939.662 5  -2708272.10721
  19495370.4764  -24608754.20447 -15414488.96163
  22203639.6164    7395285.25745   5762532.27161
 91  4 23 23 11 29.9950000  0  5G13G 2G15G 6G19
  20899426.6554  -10799670.27946  -8089975.28661
  19474096.5304   -1355733.51548  -1036923.62564
  22401234.1794   -3655610.21046  -2721262.11461
  19490197.5934  -24635949.66447 -15435680.19863
  22209827.858     7427787.512 5   5787858.59621
 91  4 23 23 11 44.9950000  0  5G13G 2G15G 6G19
  20887966.4834  -10859889.80146  -8136899.40561
  19473527.8744   -1358725.01148  -1039254.65164
  22398085.4444   -3672147.76145  -2734148.47161
  19485034.304   -24663072.152 7 -15456814.58023
  22216017.2964    7460351.43745   5813232.96361
 91  4 23 23 11 59.9950000  0  5G13G 2G15G 6G19
  20876521.991   -10920021.002 6  -8183754.71621
  19472965.2734   -1361667.93748  -1041547.83564
  22394963.351    -3688556.157 5  -2746934.17721
  19479886.8514  -24690125.40147 -15477895.00663
  22222223.077     7492972.472 5   5838651.83421
 91  4 23 23 12 14.9950000  0  5G13G 2G15G 6G19
  20865099.593   -10980060.938 6  -8230538.90621
  19472416.483    -1364559.905 8  -1043801.30424
  22391869.265    -3704832.685 6  -2759617.13121
  19474753.1554  -24717106.72947 -15498919.37863
  22228441.608     7525653.319 5   5864117.30821
 91  4 23 23 12 29.9950000  0  5G13G 2G15G 6G19
  20853691.3044  -11039999.95446  -8277244.45261
  19471878.288    -1367391.634 8  -1046007.83024
  22388797.843    -3720967.729 5  -2772189.84221
  19469632.7024  -24744006.47347 -15519880.19563
  22234675.952     7558403.223 5   5889636.59921
 91  4 23 23 12 44.9950000  0  5G13G 2G15G 6G19
  20842304.288   -11099852.170 6  -8323882.38421
  19471347.1714   -1370177.44248  -1048178.58264
  22385748.265    -3736975.683 5  -2784663.53021
  19464527.2024  -24770838.73347 -15540788.41763
  22240914.5304    7591207.76244   5915198.45361
 91  4 23 23 12 59.9950000  0  5G13G 2G15G 6G19
  20830929.2654  -11159612.32146  -8370448.55761
  19470827.382    -1372912.391 8  -1050309.69824
  22382728.983    -3752851.113 5  -2797033.94621
  19459435.648   -24797598.291 7 -15561639.99523
  22247173.0304    7624071.60245   5940806.52061
 91  4 23 23 13 14.9950000  0  5G13G 2G15G 6G19
  20819574.210   -11219279.852 6  -8416942.57121
  19470315.7734   -1375596.44748  -1052401.16164
  22379735.3434   -3768593.97746  -2809301.06261
  19454354.8514  -24824284.92047 -15582434.74363
  22253436.491     7656994.857 5   5966460.85921
 91  4 23 23 13 29.9950000  0  5G13G 2G15G 6G19
  20808239.6084  -11278855.24846  -8463364.78461
  19469814.7574   -1378230.48648  -1054453.65464
  22376760.226    -3784205.019 5  -2821465.45521
  19449291.3744  -24850898.97447 -15603172.93463
  22259716.4834    7689976.71745   5992160.88961
 91  4 23 23 13 44.9950000  0  5G13G 2G15G 6G19
  20796919.0624  -11338336.66146  -8509713.77961
  19469323.015    -1380813.055 8  -1056466.03224
  22373817.366    -3799682.298 5  -2833525.61821
  19444240.5694  -24877438.85047 -15623853.33663
  22266003.6714    7723018.41445   6017907.54361
 91  4 23 23 13 59.9950000  0  5G13G 2G15G 6G19
  20785620.1794  -11397721.62246  -8555987.58961
  19468843.1404   -1383341.97048  -1058436.60164
  22370896.757    -3815023.651 5  -2845479.87421
  19439206.5464  -24903902.13147 -15644474.03963
  22272301.218     7756122.094 5   6043702.47821
 91  4 23 23 14 14.9950000  0  5G13G 2G15G 6G19
  20774336.398   -11457012.518 6  -8602188.12021
  19468370.5694   -1385820.37648  -1060367.82364
  22368006.3194   -3830231.70746  -2857330.24661
  19434184.0074  -24930291.29747 -15665036.99763
  22278609.757     7789284.920 5   6069543.52521
 91  4 23 23 14 29.9950000  0  5G13G 2G15G 6G19
  20763069.5934  -11516213.71846  -8648318.77061
  19467907.6014   -1388252.70848  -1062263.14364
  22365134.9994   -3845310.84946  -2869080.16861
  19429175.7414  -24956610.70447 -15685545.59863
  22284931.398     7822502.064 4   6095426.86721
 91  4 23 23 14 44.9950000  0  5G13G 2G15G 6G19
  20751821.023   -11575319.976 6  -8694375.42521
  19467453.382    -1390634.101 8  -1064118.76024
  22362292.030    -3860256.005 5  -2880725.69421
  19424180.2264  -24982855.07947 -15705995.72963
  22291264.2964    7855778.37345   6121356.35061
 91  4 23 23 14 59.9950000  0  5G13G 2G15G 6G19
  20740593.069   -11634328.440 6  -8740355.89021
  19467012.1634   -1392962.38048  -1065932.99764
  22359472.085    -3875064.785 5  -2892264.96321
  19419202.8984  -25009022.04547 -15726385.54563
  22297608.491     7889115.897 5   6147333.52921
 91  4 23 23 15 14.9950000  0  5G13G 2G15G 6G19
  20729383.460   -11693240.330 6  -8786261.08921
  19466578.1484   -1395239.05648  -1067707.02464
  22356682.085    -3889738.569 6  -2903699.03521
  19414237.913   -25035112.799 7 -15746715.97423
  22303965.3584    7922513.04445   6173357.15161
 91  4 23 23 15 29.9950000  0  5G13G 2G15G 6G19
  20718190.655   -11752056.469 6  -8832091.68621
  19466154.6714   -1397465.21848  -1069441.69064
  22353917.530    -3904278.090 6  -2915028.47421
  19409286.6324  -25061128.02047 -15766987.54663
  22310330.608     7955968.922 5   6199426.55121
 91  4 23 23 15 44.9950000  0  5G13G 2G15G 6G19
  20707016.062   -11810778.165 6  -8877848.69221
  19465740.6164   -1399642.61648  -1071138.35564
  22351171.1404   -3918684.98745  -2926254.56861
  19404348.5074  -25087069.25347 -15787201.46263
  22316707.3984    7989481.74545   6225540.32361
 91  4 23 23 15 59.9950000  0  5G13G 2G15G 6G19
  20695859.6244  -11869403.39146  -8923530.52661
  19465334.8434   -1401769.28048  -1072795.48864
  22348452.788    -3932957.475 5  -2937375.93821
  19399428.6874  -25112934.24547 -15807355.97363
  22323095.5854    8023053.12545   6251699.70061
 91  4 23 23 16 14.9950000  0  5G13G 2G15G 6G19
  20684722.874   -11927927.501 6  -8969133.56021
  19464941.7884   -1403841.10548  -1074409.88864
  22345763.9054   -3947091.09445  -2948389.11061
  19394521.8434  -25138718.73147 -15827447.75263
  22329497.4294    8056687.04245   6277907.82261
 91  4 23 23 16 29.9950000  0  5G13G 2G15G 6G19
  20673603.1554  -11986353.71146  -9014660.31561
  19464558.6244   -1405861.84348  -1075984.48164
  22343102.905    -3961089.156 5  -2959296.64321
  19389629.6014  -25164425.99247 -15847479.35263
  22335908.210     8090379.881 5   6304161.84621
 91  4 23 23 16 44.9950000  0  5G13G 2G15G 6G19
  20662504.913   -12044681.479 6  -9060110.36221
  19464182.1164   -1407831.44948  -1077519.23564
  22340463.9134   -3974951.64945  -2970098.53461
  19384752.288   -25190055.731 7 -15867450.55323
  22342333.3124    8124131.51445   6330461.69861
 91  4 23 23 16 59.9950000  0  5G13G 2G15G 6G19
  20651422.6634  -12102914.08746  -9105486.26561
  19463816.8744   -1409753.33748  -1079016.80464
  22337851.046    -3988681.701 6  -2980797.22021
  19379889.8354  -25215611.09747 -15887363.79563
  22348763.9054    8157938.31445   6356804.53161
 91  4 23 23 17 14.9950000  0  5G13G 2G15G 6G19
  20640360.6324  -12161045.62846  -9150783.42061
  19463461.3194   -1411621.96248  -1080472.87364
  22335265.0464   -4002273.58246  -2991388.25461
  19375041.3124  -25241086.27047 -15907214.55563
  22355210.702     8191806.015 5   6383194.81621
 91  4 23 23 17 29.9950000  0  5G13G 2G15G 6G19
  20629317.835   -12219075.245 6  -9196001.13821
  19463115.5694   -1413437.23248  -1081887.36364
  22332703.8514   -4015726.72946  -3001871.17461
  19370210.569   -25266480.512 7 -15927002.24823
  22361669.382     8225734.846 5   6409632.71821
 91  4 23 23 17 44.9950000  0  5G13G 2G15G 6G19
  20618294.2734  -12277005.73746  -9241141.62461
  19462778.5934   -1415202.15548  -1083262.62064
  22330171.460    -4029044.136 6  -3012248.32121
  19365391.710   -25291796.749 7 -15946729.16123
  22368132.7574    8259721.45845   6436115.66061
 91  4 23 23 17 59.9950000  0  5G13G 2G15G 6G19
  20607290.0694  -12334833.87246  -9286202.34861
  19462455.0074   -1416913.82648  -1084596.39163
  22327664.835    -4042222.704 6  -3022517.29221
  19360589.241   -25317031.729 7 -15966392.76023
  22374611.601     8293768.824 4   6462645.95021
 91  4 23 23 18 14.9950000  0  5G13G 2G15G 6G19
  20596305.077   -12392558.020 6  -9331182.06421
  19462138.1014   -1418571.16548  -1085887.82264
  22325187.0774   -4055261.18746  -3032677.09861
  19355802.983   -25342184.245 7 -15985992.09723
  22381102.913     8327877.910 4   6489224.33521
 91  4 23 23 18 29.9950000  0  5G13G 2G15G 6G19
  20585337.7264  -12450184.28846  -9376085.49361
  19461831.8824   -1420180.42748  -1087141.79264
  22322727.319    -4068165.751 5  -3042732.56421
  19351031.202   -25367260.079 7 -16005531.68823
  22387604.3744    8362042.43244   6515845.91661
 91  4 23 23 18 44.9950000  0  5G13G 2G15G 6G19
  20574393.569   -12507708.585 6  -9420909.46521
  19461536.0934   -1421737.90648  -1088355.41064
  22320297.265    -4080932.393 5  -3052680.54521
  19346276.210   -25392255.302 7 -16025008.45923
  22394116.390     8396265.832 5   6542513.35321
 91  4 23 23 18 59.9950000  0  5G13G 2G15G 6G19
  20563465.6794  -12565131.14946  -9465654.16961
  19461248.2884   -1423243.97648  -1089528.97364
  22317896.6014   -4093561.27745  -3062521.19761
  19341533.648   -25417169.966 7 -16044422.46323
  22400643.9994    8430547.71545   6569226.38861
 91  4 23 23 19 14.9950000  0  5G13G 2G15G 6G19
  20552557.4914  -12622452.83846  -9510320.27361
  19460972.1484   -1424700.28848  -1090663.75964
  22315514.694    -4106053.874 5  -3072255.63821
  19336805.835   -25442005.386 7 -16063774.72223
  22407179.515     8464886.434 5   6595983.68921
 91  4 23 23 19 29.9950000  0  5G13G 2G15G 6G19
  20541669.515   -12679667.736 6  -9554903.15421
  19460705.5384   -1426101.21348  -1091755.38863
  22313165.4294   -4118404.58346  -3081879.52461
  19332097.468   -25466755.745 7 -16083060.70523
  22413726.3904    8499287.37644   6622789.47561
 91  4 23 23 19 44.9950000  0  5G13G 2G15G 6G19
  20530803.327   -12736774.226 6  -9599401.57221
  19460449.6164   -1427445.21348  -1092802.66564
  22310841.202    -4130611.749 5  -3091391.55721
  19327405.296   -25491419.156 7 -16102278.92623
  22420283.6014    8533752.08145   6649644.96361
 91  4 23 23 19 59.9950000  0  5G13G 2G15G 6G19
  20519955.694   -12793780.712 6  -9643822.06721
  19460202.6244   -1428741.25448  -1093812.56663
  22308540.491    -4142683.971 5  -3100798.44421
  19322726.265   -25516004.277 7 -16121436.14823
  22426852.194     8568271.632 4   6676543.18421
 91  4 23 23 20 14.9950000  0  5G13G 2G15G 6G19
  20509125.5154  -12850682.46746  -9688160.95961
  19459966.7024   -1429985.06348  -1094781.77563
  22306271.749    -4154616.685 5  -3110096.61821
  19318062.507   -25540506.413 7 -16140528.70623
  22433429.765     8602850.262 4   6703487.42621
 91  4 23 23 20 29.9950000  0  5G13G 2G15G 6G19
  20498316.7884  -12907479.63246  -9732418.33961
  19459738.6554   -1431177.04348  -1095710.59463
  22304029.4994   -4166410.30445  -3119286.41561
  19313415.202   -25564925.873 7 -16159556.83923
  22440023.585     8637487.285 4   6730477.18621
 91  4 23 23 20 44.9950000  0  5G13G 2G15G 6G19
  20487532.015   -12964169.254 6  -9776591.92621
  19459522.7414   -1432314.60948  -1096597.00564
  22301809.8354   -4178062.27045  -3128365.83161
  19308787.140   -25589259.769 7 -16178518.29623
  22446625.2414    8672185.15444   6757514.33761
 91  4 23 23 20 59.9950000  0  5G13G 2G15G 6G19
  20476759.7964  -13020761.95246  -9820689.98861
  19459313.6794   -1433408.85248  -1097449.66663
  22299618.2264   -4189583.26745  -3137343.19461
  19304169.546   -25613518.820 7 -16197421.44323
  22453242.702     8706932.651 5   6784590.18721
 91  4 23 23 21 14.9950000  0  5G13G 2G15G 6G19
  20466013.1944  -13077250.25446  -9864706.70361
  19459115.9994   -1434452.56548  -1098262.94863
  22297454.616    -4200966.080 5  -3146212.88421
  19299569.358   -25637695.616 7 -16216260.48323
  22459864.6484    8741737.07345   6811710.38361
 91  4 23 23 21 29.9950000  0  5G13G 2G15G 6G19
  20455282.819   -13133629.630 6  -9908638.54421
  19458927.9684   -1435441.53248  -1099033.57263
  22295314.819    -4212206.202 5  -3154971.36921
  19294985.3044  -25661785.35647 -16235031.69963
  22466500.710     8776602.809 5   6838878.34521
 91  4 23 23 21 44.9950000  0  5G13G 2G15G 6G19
  20444574.7334  -13189905.60146  -9952489.81161
  19458748.4994   -1436381.85648  -1099766.29363
  22293207.3984   -4223309.48245  -3163623.24161
  19290417.179   -25685793.967 7 -16253739.69323
  22473142.257     8811523.702 4   6866089.29221
 91  4 23 23 21 59.9950000  0  5G13G 2G15G 6G19
  20433885.023   -13246070.982 6  -9996254.90321
  19458578.2574   -1437266.42748  -1100455.57363
  22291114.3664   -4234268.94145  -3172163.05161
  19285864.773   -25709714.117 7 -16272378.75623
  22479801.124     8846506.418 4   6893348.39321
 91  4 23 23 22 14.9950000  0  5G13G 2G15G 6G19
  20423217.968   -13302132.073 6 -10039938.73121
  19458421.9524   -1438101.93548  -1101106.61863
  22289059.093    -4245091.255 5  -3180595.98821
  19281328.632   -25733552.486 7 -16290954.09423
  22486459.476     8881544.117 5   6920650.36721
 91  4 23 23 22 29.9950000  0  5G13G 2G15G 6G19
  20412570.4134  -13358085.32846 -10083538.54161
  19458272.9134   -1438885.58248  -1101717.25563
  22287024.007    -4255773.038 5  -3188919.41821
  19276808.968   -25757305.484 7 -16309462.90123
  22493146.6084    8916639.82644   6947997.53461
 91  4 23 23 22 44.9950000  0  5G13G 2G15G 6G19
  20401943.437   -13413933.487 6 -10127056.45021
  19458132.2654   -1439620.24448  -1102289.71963
  22285019.5304   -4266317.26445  -3197135.65461
  19272304.6324  -25780975.86547 -16327907.34863
  22499833.921     8951790.566 5   6975387.58121
 91  4 23 23 22 59.9950000  0  5G13G 2G15G 6G19
  20391335.616   -13469671.542 6 -10170488.56421
  19458004.4054   -1440301.18748  -1102820.32263
  22283039.1164   -4276718.86346  -3205240.75961
  19267816.491   -25804558.595 7 -16346283.48023
  22506532.030     8987000.956 5   7002824.11821
 91  4 23 23 23 14.9950000  0  5G13G 2G15G 6G19
  20380749.780   -13525303.485 6 -10213837.98421
  19457882.6484   -1440932.63348  -1103312.35663
  22281084.3274   -4286981.83045  -3213237.84561
  19263344.069   -25828057.729 7 -16364594.47423
  22513244.733     9022266.505 5   7030303.62221
 91  4 23 23 23 29.9950000  0  5G13G 2G15G 6G19
  20370182.608   -13580832.642 6 -10257107.32021
  19457770.0154   -1441518.43048  -1103768.82163
  22279158.304    -4297110.076 5  -3221129.94421
  19258887.140   -25851476.715 7 -16382843.01623
  22519966.077     9057583.335 4   7057823.09721
 91  4 23 23 23 44.9950000  0  5G13G 2G15G 6G19
  20359636.093   -13636250.027 6 -10300289.57021
  19457669.6794   -1442049.90048  -1104182.95463
  22277261.0544   -4307094.87446  -3228910.27261
  19254450.069   -25874806.610 7 -16401022.13423
  22526696.7184    9092960.12744   7085389.25761
 91  4 23 23 23 59.9950000  0  5G13G 2G15G 6G19
  20349111.804   -13691559.615 6 -10343387.81021
  19457578.6084   -1442531.15548  -1104557.95763
  22275386.1874   -4316940.15446  -3236581.87861
  19250025.694   -25898051.347 7 -16419134.90123
  22533445.2024    9128392.41144   7112998.70761
 91  4 23 23 24 14.9950000  0  5G13G 2G15G 6G19
  20338605.983   -13746762.754 6 -10386403.11021
  19457498.9444   -1442964.12148  -1104895.34063
  22273539.843    -4326647.391 5  -3244145.92321
  19245617.398   -25921212.455 7 -16437182.49623
  22540193.8744    9163878.38744   7140649.96061
 91  4 23 23 24 29.9950000  0  5G13G 2G15G 6G19
  20328121.358   -13801858.218 6 -10429334.50621
  19457425.4054   -1443347.96048  -1105194.43163
  22271717.405    -4336215.948 5  -3251601.90721
  19241226.046   -25944288.794 7 -16455164.04323
  22546956.6324    9199418.86144   7168343.68461
 91  4 23 23 24 44.9950000  0  5G13G 2G15G 6G19
  20317656.1084  -13856845.19846 -10472181.36761
  19457358.7414   -1443682.16848  -1105454.84963
  22269922.944    -4345645.102 5  -3258949.27121
  19236850.8354  -25967279.54147 -16473078.88663
  22553730.8664    9235014.04844   7196080.05161
 91  4 23 23 24 59.9950000  0  5G13G 2G15G 6G19
  20307216.3274  -13911720.65746 -10514941.33061
  19457308.1084   -1443963.95548  -1105674.42663
  22268152.593    -4354932.102 5  -3266185.85421
  19232492.819   -25990181.811 7 -16490924.78823
  22560515.8124    9270666.73444   7223861.21061
 91  4 23 23 25 14.9950000  0  5G13G 2G15G 6G19
  20296795.2804  -13966483.65446 -10557613.65361
  19457260.4294   -1444192.84248  -1105852.77563
  22266414.8434   -4364075.93445  -3273310.88061
  19228150.788   -26012994.480 7 -16508700.87423
  22567308.5074    9306377.59544   7251687.70561
 91  4 23 23 25 29.9950000  0  5G13G 2G15G 6G19
  20286395.155   -14021135.744 7 -10600199.56421
  19457227.8514   -1444370.40748  -1105991.13563
  22264705.6244   -4373078.52745  -3280325.85561
  19223827.546   -26035719.161 7 -16526408.39823
  22574117.7574    9342144.60644   7279557.96161
 91  4 23 23 25 44.9950000  0  5G13G 2G15G 6G19
  20276016.491   -14075677.005 6 -10642699.11521
  19457205.2494   -1444497.63848
  22263015.898    -4381940.372 5  -3287231.15521
  19219520.101   -26058356.356 7 -16544047.74523
  22580937.1554    9377966.76144   7307471.19161
 91  4 23 23 25 59.9950000  0  5G13G 2G15G 6G19
  20265657.7104  -14130104.17046 -10685109.76661
  19457189.4134   -1444571.44548
  22261356.9374   -4390658.35745  -3294024.36061
  19215227.577   -26080902.677 7 -16561616.28623
  22587766.077     9413847.079 4   7335429.72121
 91  4 23 23 26 14.9950000  0  5G13G 2G15G 6G19
  20255322.999   -14184419.803 6 -10727433.50221
  19457184.3274   -1444594.45648
  22259726.601    -4399234.865 6  -3300707.31121
  19210956.601   -26103360.515 7 -16579115.87423
  22594599.483     9449782.841 4   7363431.46821
 91  4 23 23 26 29.9950000  0  5G13G 2G15G 6G19
  20245006.202   -14238622.952 6 -10769669.58221
  19457192.0694   -1444566.05448
  22258119.4444   -4407669.38746  -3307279.63561
  19206698.007   -26125729.087 7 -16596545.91223
  22601448.7574    9485774.36944   7391476.66061
 91  4 23 23 26 44.9950000  0  5G13G 2G15G 6G19
  20234715.6714  -14292714.84747 -10811818.98961
  19457207.7884   -1444487.98748
  22256540.218    -4415963.485 5  -3313742.53421
  19202459.421   -26148009.842 7 -16613907.51123
  22608308.4374    9521819.97844   7419564.00161
 91  4 23 23 26 59.9950000  0  5G13G 2G15G 6G19
  20224440.7654  -14346701.84446 -10853886.65461
  19457228.4214   -1444366.81548
  22254989.6164   -4424123.74046  -3320101.14461
  19198233.882   -26170208.908 7 -16631205.46423
  22615180.8044    9557913.10944   7447688.36061
 91  4 23 23 27 14.9950000  0  5G13G 2G15G 6G19
  20214190.9134  -14400571.68647 -10895863.02961
  19457261.3044   -1444190.84548
  22253462.437    -4432138.118 5  -3326346.06621
  19194028.374   -26192314.275 7 -16648430.40023
  22622052.4764    9594065.32944   7475858.77061
 91  4 23 23 27 29.9950000  0  5G13G 2G15G 6G19
  20203959.7964  -14454331.54746 -10937753.69861
  19457306.0154   -1443967.53848
  22251962.601    -4440013.915 5  -3332483.01721
  19189837.312   -26214333.107 7 -16665587.90923
  22628948.351     9630269.096 4   7504069.35421
 91  4 23 23 27 44.9950000  0  5G13G 2G15G 6G19
  20193749.3664  -14507982.97246 -10979559.87961
  19457357.0304   -1443698.80148  -1105467.77463
  22250494.999    -4447752.883 5  -3338513.37221
  19185665.171   -26236267.061 7 -16682679.27523
  22635844.530     9666522.546 4   7532318.63621
 91  4 23 23 27 59.9950000  0  5G13G 2G15G 6G19
  20183562.6484  -14561520.27546 -11021277.14461
  19457418.9834   -1443379.25548  -1105218.77063
  22249045.507    -4455349.472 5  -3344432.76521
  19181507.882   -26258110.430 7 -16699700.05923
  22642748.9444    9702830.82843   7560610.64761
 91  4 23 23 28 14.9950000  0  5G13G 2G15G 6G19
  20173394.3744  -14614945.13546 -11062906.77461
  19457488.0234   -1443010.90048  -1104931.73563
  22247625.3664   -4462805.87946  -3350242.91661
  19177368.179   -26279865.051 7 -16716651.69023
  22649671.2184    9739191.63644   7588943.60561
 91  4 23 23 28 29.9950000  0  5G13G 2G15G 6G19
  20163250.4684  -14668261.34947 -11104451.75661
  19457566.1014   -1442597.77148  -1104609.81163
  22246232.2884   -4470126.05446  -3355946.91461
  19173244.749   -26301534.525 7 -16733536.97123
  22656606.7414    9775601.09844   7617314.44961
 91  4 23 23 28 44.9950000  0  5G13G 2G15G 6G19
  20153122.2734  -14721469.20846 -11145912.31461
  19457653.4444   -1442140.57648  -1104253.55063
  22244869.4374   -4477310.29046  -3361544.98961
  19169137.444   -26323119.407 7 -16750356.34623
  22663541.2734    9812058.28944   7645722.49861
 91  4 23 23 28 59.9950000  0  5G13G 2G15G 6G19
  20143022.5624  -14774559.77147 -11187281.46561
  19457751.7024   -1441630.69548  -1103856.23763
  22243528.2024   -4484350.08045  -3367030.51761
  19165046.327   -26344610.690 7 -16767102.77723
  22670491.351     9848571.874 4   7674174.48721
 91  4 23 23 29 14.9950000  0  5G13G 2G15G 6G19
  20132938.273   -14827540.408 6 -11228564.96821
  19457855.6164   -1441075.81548  -1103423.85963
  22242214.4524   -4491252.95546  -3372409.36861
  19160973.023   -26366015.811 7 -16783782.07323
  22677446.4134    9885133.95244   7702664.26861
 91  4 23 23 29 29.9950000  0  5G13G 2G15G 6G19
  20122877.2414  -14880410.10746 -11269762.02561
  19457969.0694   -1440475.26748  -1102955.88963
  22240927.374    -4498018.136 6  -3377680.90221
  19156916.741   -26387333.848 7 -16800393.51423
  22684415.1944    9921744.99244   7731192.20661
 91  4 23 23 29 44.9950000  0  5G13G 2G15G 6G19
  20112838.085   -14933161.241 7 -11310866.68721
  19458092.866    -1439821.507 8  -1102446.45823
  22239666.6874   -4504638.12846  -3382839.31961
  19152878.702   -26408557.111 7 -16816931.10223
  22691390.648     9958412.354 4   7759764.01621
 91  4 23 23 29 59.9950000  0  5G13G 2G15G 6G19
  20102824.327   -14985800.211 7 -11351883.96521
  19458228.3824   -1439121.45348  -1101900.95563
  22238436.796    -4511119.586 6  -3387889.78021
  19148856.968   -26429692.021 7 -16833399.84523
  22698375.6014    9995129.15744   7788374.35861
 91  4 23 23 30 14.9950000  0  5G13G 2G15G 6G19
  20092827.6944  -15038329.02647 -11392815.39561
  19458368.6324   -1438377.40048  -1101321.17063
  22237223.6484   -4517464.53645  -3392833.87561
  19144852.421   -26450740.767 7 -16849801.45323
  22705376.265    10031892.990 4   7817021.34721
 91  4 23 23 30 29.9950000  0  5G13G 2G15G 6G19
  20082854.218   -15090747.662 7 -11433660.98021
  19458520.9764   -1437589.66848  -1100707.35163
  22236042.687    -4523673.621 6  -3397672.10621
  19140860.390   -26471703.257 7 -16866135.83823
  22712380.515    10068703.330 4   7845704.56021
 91  4 23 23 30 44.9950000  0  5G13G 2G15G 6G19
  20072898.905   -15143055.159 7 -11474419.96221
  19458677.5774   -1436757.57448  -1100058.96163
  22234891.007    -4529746.129 6  -3402403.92221
  19136890.491   -26492578.638 7 -16882402.35323
  22719393.233    10105560.760 4   7874424.49521
 91  4 23 23 30 59.9950000  0  5G13G 2G15G 6G19
  20062965.882   -15195248.249 7 -11515089.79821
  19458843.4444   -1435877.99348  -1099373.57263
  22233761.4524   -4535678.68846  -3407026.65661
  19132933.991   -26513363.575 7 -16898598.39423
  22726412.4834   10142468.03744   7903183.26061
 91  4 23 23 31 14.9950000  0  5G13G 2G15G 6G19
  20053057.710   -15247325.215 7 -11555669.15121
  19459019.2884   -1434949.79948  -1098650.30263
  22232655.3044   -4541469.81346  -3411539.21461
  19128996.3274  -26534056.56347 -16914722.78763
  22733439.5154   10179426.51243   7931981.91861
 91  4 23 23 31 29.9950000  0  5G13G 2G15G 6G19
  20043167.7494  -15299287.57947 -11596159.21061
  19459206.8514   -1433974.62648  -1097890.42863
  22231584.7334   -4547121.27746  -3415942.93861
  19125076.640   -26554658.790 7 -16930776.45723
  22740489.851    10216434.584 3   7960819.22221
 91  4 23 23 31 44.9950000  0  5G13G 2G15G 6G19
  20033302.374   -15351128.909 7 -11636554.94321
  19459403.5074   -1432946.52548  -1097089.30763
  22230535.8904   -4552627.23546  -3420233.28261
  19121174.327   -26575164.275 7 -16946754.74423
  22747540.1084   10253497.90943   7989699.58361
 91  4 23 23 31 59.9950000  0  5G13G 2G15G 6G19
  20023460.351   -15402856.401 7 -11676861.97621
  19459606.5934   -1431873.37248  -1096253.08063
  22229512.327    -4557995.129 6  -3424416.02321
  19117288.507   -26595580.221 7 -16962663.25323
  22754600.898    10290608.712 3   8018616.92221
 91  4 23 23 32 14.9950000  0  5G13G 2G15G 6G19
  20013638.0154  -15454470.30647 -11717080.50461
  19459818.5694   -1430755.46248  -1095381.98363
  22228520.148    -4563225.217 6  -3428491.39521
  19113421.1794  -26615906.88647 -16978502.20463
  22761674.6714   10327766.45643   8047570.86461
 91  4 23 23 32 29.9950000  0  4G13G 2G15G 6
  20003836.999   -15505971.518 7 -11757211.21621
  19460039.2334   -1429593.63148  -1094476.65663
  22227546.6404   -4568318.29645  -3432460.01061
  19109570.288   -26636144.869 7 -16994272.04523
 91  4 23 23 32 44.9950000  0  4G13G 2G15G 6
  19994059.015   -15557354.458 7 -11797249.76421
  19460269.9914   -1428382.77648  -1093533.13263
  22226603.429    -4573269.092 6  -3436317.75721
  19105735.655   -26656288.719 7 -17009968.53923
 91  4 23 23 32 59.9950000  0  4G13G 2G15G 6
  19984302.7884  -15608624.06547 -11837200.01861
  19460510.6794   -1427128.17448  -1092555.52163
  22225690.765    -4578083.231 6  -3440069.01021
  19101919.007   -26676343.542 7 -17025595.65423
 91  4 23 23 33 14.9950000  0  4G13G 2G15G 6
  19974567.4994  -15659783.59647 -11877064.47261
  19460756.8984   -1425833.32148  -1091546.54263
  22224798.7414   -4582764.01046  -3443716.34161
  19098119.7734  -26696312.52347 -17041155.89363
 91  4 23 23 33 29.9950000  0  4G13G 2G15G 6
  19964852.968   -15710830.364 7 -11916841.07721
  19461010.8664   -1424495.89648  -1090504.39163
  22223932.8434   -4587308.80045  -3447257.70961
  19094337.577   -26716193.058 7 -17056647.20023
 91  4 23 23 33 44.9950000  0  4G13G 2G15G 6
  19955160.6634  -15761761.85647 -11956527.85761
  19461273.1714   -1423113.59448  -1089427.27963
  22223096.546    -4591714.994 6  -3450691.10621
  19090570.210   -26735982.489 7 -17072067.52523
 91  4 23 23 33 59.9950000  0  4G13G 2G15G 6
  19945491.421   -15812575.172 7 -11996122.54821
  19461546.3124   -1421683.85148  -1088313.19563
  22222282.9604   -4595980.22446  -3454014.64761
  19086822.601   -26755678.034 7 -17087414.68223
 91  4 23 23 34 14.9950000  0  4G13G 2G15G 6
  19935845.976   -15863273.653 7 -12035627.74821
  19461826.5074   -1420210.35248  -1087165.01963
  22221499.546    -4600108.319 6  -3457231.32521
  19083093.015   -26775283.207 7 -17102691.42423
 91  4 23 23 34 29.9950000  0  4G13G 2G15G 6
  19926216.265   -15913860.525 7 -12075045.97921
  19462114.7654   -1418696.55548  -1085985.44663
  22220740.9914   -4604102.70646  -3460343.80461
  19079377.952   -26794801.105 7 -17117900.16323
 91  4 23 23 34 44.9950000  0  4G13G 2G15G 6
  19916612.726   -15964330.464 7 -12114373.10621
  19462410.6714   -1417137.50848  -1084770.60163
  22220002.194    -4607958.241 5  -3463348.10421
  19075681.937   -26814226.511 7 -17133036.82823
 91  4 23 23 34 59.9950000  0  4G13G 2G15G 6
  19907031.4444  -16014682.65447 -12153608.48261
  19462714.3824   -1415532.71148  -1083520.11163
  22219297.6164   -4611674.15846  -3466243.61161
  19072003.655   -26833558.671 7 -17148100.83123
 91  4 23 23 35 14.9950000  0  4G13G 2G15G 6
  19897473.843   -16064912.054 7 -12192748.17521
  19463029.7574   -1413877.43848  -1082230.28963
  22218621.1014   -4615245.58446  -3469026.52961
  19068341.757   -26852792.506 7 -17163088.22223
 91  4 23 23 35 29.9950000  0  4G13G 2G15G 6
  19887937.405   -16115021.794 7 -12231794.62021
  19463353.5234   -1412175.06648  -1080903.76963
  22217961.6634   -4618676.04446  -3471699.57261
  19064702.140   -26871931.065 7 -17178001.36523
 91  4 23 23 35 44.9950000  0  4G13G 2G15G 6
  19878423.4374  -16165020.34247 -12270754.44261
  19463686.0934   -1410434.36948  -1079547.38563
  22217339.194    -4621974.363 5  -3474269.67521
  19061075.132   -26890982.970 7 -17192846.98623
 91  4 23 23 35 59.9950000  0  4G13G 2G15G 6
  19868931.2804  -16214899.06847 -12309620.88561
  19464025.6554   -1408646.82148  -1078154.49863
  22216741.023    -4625132.019 6  -3476730.16821
  19057469.249   -26909939.610 7 -17207618.37823
 91  4 23 23 36 14.9950000  0  4G13G 2G15G 6
  19859463.226   -16264656.344 7 -12348392.69421
  19464376.4994   -1406811.42648  -1076724.31663
  22216163.5544   -4628147.83645  -3479080.15661
  19053877.710   -26928799.425 7 -17222314.32423
 91  4 23 23 36 29.9940000  0  4G13G 2G15G 6
  19850018.1664  -16314293.85347 -12387071.18761
  19464735.2054   -1404933.54048  -1075261.03163
  22215615.424    -4631026.921 6  -3481323.57021
  19050309.174   -26947566.206 7 -17236937.77023
 91  4 23 23 36 44.9940000  0  4G13G 2G15G 6
  19840593.5654  -16363811.09647 -12425655.96061
  19465100.6744   -1403006.03548  -1073759.08863
  22215096.2754   -4633762.48946  -3483455.14261
  19046754.119   -26966235.176 7 -17251485.00923
 91  4 23 23 36 59.9940000  0  4G13G 2G15G 6
  19831192.9944  -16413214.26747 -12464151.83661
  19465474.0334   -1401038.78248  -1072226.16663
  22214601.0184   -4636364.25946  -3485482.48561
  19043218.986   -26984814.713 7 -17265962.55623
 91  4 23 23 37 14.9940000  0  4G13G 2G15G 6
  19821816.3304  -16462495.47947 -12502552.69261
  19465857.1114   -1399024.05548  -1070656.25364
  22214130.7054   -4638824.57945  -3487399.61361
  19039704.854   -27003297.068 7 -17280364.36723
 91  4 23 23 37 29.9940000  0  4G13G 2G15G 6
  19812458.0334  -16511660.46947 -12540862.98061
  19466248.0654   -1396967.88348  -1069054.04263
  22213690.088    -4641149.395 6  -3489211.14421
  19036203.658   -27021687.855 7 -17294694.83823
 91  4 23 23 37 44.9940000  0  4G13G 2G15G 6
  19803125.877   -16560704.470 7 -12579078.99221
  19466649.3154   -1394865.68348  -1067415.96263
  22213274.4554   -4643333.84346  -3490913.30761
  19032722.596   -27039982.156 7 -17308950.12023
 91  4 23 23 37 59.9940000  0  4G13G 2G15G 6
  19793817.3854  -16609620.47347 -12617195.27261
  19467058.7914   -1392710.78448  -1065736.83363
  22212884.7214   -4645371.35646  -3492500.93561
  19029261.447   -27058173.034 7 -17323124.81523
 91  4 23 23 38 14.9940000  0  4G13G 2G15G 6
  19784532.5884  -16658412.54247 -12655214.98061
  19467476.5654   -1390507.78148  -1064020.21863
  22212525.385    -4647266.457 6  -3493977.63521
  19025818.479   -27076264.736 7 -17337222.23123
 91  4 23 23 38 29.9940000  0  4G13G 2G15G 6
  19775271.4324  -16707083.78647 -12693140.53561
  19467905.0964   -1388260.06448  -1062268.75063
  22212189.5254   -4649022.51546  -3495346.00061
  19022392.565   -27094260.452 7 -17351244.85323
 91  4 23 23 38 44.9940000  0  4G13G 2G15G 6
  19766032.9714  -16755633.18947 -12730971.14561
  19468342.3384   -1385966.57548  -1060481.62663
  22211883.1354   -4650638.59045  -3496605.25661
  19018987.658   -27112158.976 7 -17365191.73423
 91  4 23 23 38 59.9940000  0  4G13G 2G15G 6
  19756818.190   -16804058.045 7 -12768704.71921
  19468787.2914   -1383624.97148  -1058656.99763
  22211606.5334   -4652112.31946  -3497753.60261
  19015599.807   -27129957.656 7 -17379060.81723
 91  4 23 23 39 14.9940000  0  4G13G 2G15G 6
  19747626.3854  -16852359.75447 -12806342.32461
  19469242.9714   -1381237.22048  -1056796.41964
  22211352.127    -4653445.209 6  -3498792.18521
  19012230.924   -27147658.007 7 -17392853.28723
 91  4 23 23 39 29.9940000  0  4G13G 2G15G 6
  19738457.4324  -16900540.79047 -12843885.90261
  19469704.2604   -1378805.88848  -1054901.87964
  22211118.5884   -4654640.17845  -3499723.33161
  19008882.299   -27165262.468 7 -17406571.02923
 91  4 23 23 39 44.9940000  0  4G13G 2G15G 6
  19729311.5254  -16948601.12347 -12881335.42961
  19470176.0334   -1376331.11348  -1052973.48564
  22210921.7134   -4655697.32246  -3500547.08461
  19005550.221   -27182771.005 7 -17420214.03323
 91  4 23 23 39 59.9940000  0  4G13G 2G15G 6
  19720188.275   -16996540.251 7 -12918690.50821
  19470654.3614   -1373812.67948  -1051011.07264
  22210750.2994   -4656616.46546  -3501263.27661
  19002236.619   -27200183.127 7 -17433781.90023
 91  4 23 23 40 14.9940000  0  4G13G 2G15G 6
  19711090.440   -17044353.920 7 -12955947.83521
  19471143.5804   -1371246.63748  -1049011.56363
  22210598.5184   -4657393.33146  -3501868.59861
  18998943.916   -27217494.460 7 -17447271.23423
 91  4 23 23 40 29.9940000  0  4G13G 2G15G 6
  19702016.6904  -17092034.70847 -12993101.60861
  19471642.1434   -1368625.68248  -1046969.26463
  22210475.611    -4658020.976 6  -3502357.66921
  18995670.104   -27234697.619 7 -17460676.27323
 91  4 23 23 40 44.9940000  0  4G13G 2G15G 6
  19692966.260   -17139591.829 7 -13030159.02421
  19472148.0724   -1365959.33448  -1044891.59363
  22210386.2994   -4658508.73146  -3502737.73961
  18992414.283   -27251801.723 7 -17474004.12723
 91  4 23 23 40 59.9940000  0  4G13G 2G15G 6
  19683940.721   -17187021.942 7 -13067117.48121
  19472666.2054   -1363244.67148  -1042776.27163
  22210320.229    -4658853.462 6  -3503006.33721
  18989179.065   -27268803.601 7 -17487252.32723
 91  4 23 23 41 14.9940000  0  4G13G 2G15G 6
  19674940.744   -17234323.737 7 -13103975.94321
  19473193.0574   -1360480.57648  -1040622.42463
  22210278.510    -4659054.143 5
  18985962.471   -27285701.963 7 -17500419.86823
 91  4 23 23 41 29.9940000  0  4G13G 2G15G 6
  19665960.979   -17281507.622 7 -13140742.52321
  19473725.4554   -1357677.73148  -1038438.39863
  22210269.6274   -4659121.50645
  18982764.869   -27302507.241 7 -17513514.87323
 91  4 23 23 41 44.9940000  0  4G13G 2G15G 6
  19657005.236   -17328567.316 7 -13177412.32521
  19474266.4244   -1354829.84448  -1036219.26563
  22210284.6664   -4659049.51845
  18979586.729   -27319212.875 7 -17526532.23223
 91  4 23 23 41 59.9940000  0  4G13G 2G15G 6
  19648073.002   -17375506.667 7 -13213988.37421
  19474817.6354   -1351941.19148  -1033968.36363
  22210322.7294   -4658842.35046
  18976424.682   -27335823.040 7 -17539475.20723
 91  4 23 23 42 14.9940000  0  4G13G 2G15G 6
  19639165.572   -17422321.055 7 -13250467.04221
  19475376.2294   -1349007.32448  -1031682.23063
  22210384.971    -4658495.365 5
  18973282.494   -27352332.887 7 -17552340.00523
 91  4 23 23 42 29.9940000  0  4G13G 2G15G 6
  19630281.033   -17469008.472 7 -13286846.76521
  19475943.9004   -1346026.76148  -1029359.70563
  22210482.9864   -4658007.15146  -3502346.81961
  18970160.682   -27368740.602 7 -17565125.22022
 91  4 23 23 42 44.9940000  0  4G13G 2G15G 6
  19621419.471   -17515567.375 7 -13323126.35321
  19476519.6904   -1342997.94348  -1026999.59264
  22210599.2994   -4657376.31846  -3501855.24061
  18967058.7914  -27385044.51247 -17577829.55963
 91  4 23 23 42 59.9940000  0  4G13G 2G15G 6
  19612583.393   -17562003.320 7 -13359310.12321
  19477104.4324   -1339926.85148  -1024606.53763
  22210751.6194   -4656608.53146  -3501256.95961
  18963973.541   -27401250.308 7 -17590457.43623
 91  4 23 23 43 14.9940000  0  4G13G 2G15G 6
  19603770.072   -17608316.213 7 -13395398.01421
  19477696.0574   -1336813.55648  -1022180.58463
  22210916.604    -4655703.779 6  -3500551.95221
  18960911.299   -27417357.780 7 -17603008.69623
 91  4 23 23 43 29.9940000  0  4G13G 2G15G 6
  19594982.377   -17654502.892 7 -13431387.55221
  19478297.6194   -1333654.88248  -1019719.27363
  22211117.861    -4654659.324 5  -3499738.08021
  18957863.291   -27433363.521 7 -17615480.69223
 91  4 23 23 43 44.9940000  0  4G13G 2G15G 6
  19586216.9794  -17700560.33947 -13467276.39761
  19478907.0024   -1330448.33648  -1017220.66463
  22211345.7684   -4653472.32445  -3498813.13161
  18954839.549   -27449264.708 7 -17627871.20823
 91  4 23 23 43 59.9940000  0  4G13G 2G15G 6
  19577478.940   -17746484.140 7 -13503061.10421
  19479529.8304   -1327189.91448  -1014681.63463
  22211592.057    -4652138.733 5  -3497773.95421
  18951832.6584  -27465057.04547 -17640176.91263
 91  4 23 23 44 14.9940000  0  4G13G 2G15G 6
  19568762.721   -17792282.452 7 -13538748.01821
  19480156.9164   -1323887.89348  -1012108.63063
  22211876.8854   -4650666.96245  -3496627.11661
  18948846.111   -27480748.687 7 -17652404.15623
 91  4 23 23 44 29.9940000  0  4G13G 2G15G 6
  19560071.041   -17837954.725 7 -13574336.72921
  19480792.4554   -1320541.93848  -1009501.38963
  22212181.658    -4649057.017 5  -3495372.60521
  18945879.846   -27496339.046 7 -17664552.46923
 91  4 23 23 44 44.9940000  0  4G13G 2G15G 6
  19551407.4324  -17883497.88247 -13609824.83761
  19481438.3464   -1317149.04348  -1006857.56863
  22212518.393    -4647305.882 5  -3494008.06721
  18942930.705   -27511824.945 7 -17676619.39223
 91  4 23 23 44 59.9940000  0  4G13G 2G15G 6
  19542763.291   -17928909.188 7 -13645210.19921
  19482092.7134   -1313706.87348  -1004175.35963
  22212880.3074   -4645410.96345  -3492531.51061
  18940004.4004  -27527203.73247 -17688602.85462
 91  4 23 23 45 14.9940000  0  4G13G 2G15G 6
  19534146.463   -17974189.426 7 -13680493.42321
  19482757.0804   -1310216.55748  -1001455.63463
  22213265.9554   -4643373.26645  -3490943.67661
  18937099.5724  -27542476.18047 -17700503.45163
 91  4 23 23 45 29.9940000  0  4G13G 2G15G 6
  19525555.244   -18019340.647 7 -13715676.11621
  19483429.4164   -1306680.26048   -998700.07763
  22213679.8854   -4641195.24045  -3489246.50461
  18934213.994   -27557644.526 7 -17712322.92822
 91  4 23 23 45 44.9940000  0  4G13G 2G15G 6
  19516985.291   -18064367.732 7 -13750762.09521
  19484110.4244   -1303102.94648   -995912.56364
  22214116.432    -4638881.865 5  -3487443.85221
  18931347.1274  -27572713.37947 -17724064.88162
 91  4 23 23 45 59.9940000  0  4G13G 2G15G 6
  19508442.908   -18109265.011 7 -13785746.91121
  19484800.4404   -1299479.25848   -993088.90363
  22214586.3154   -4636427.40345  -3485531.31061
  18928498.3464  -27587677.07147 -17735724.89163
 91  4 23 23 46 14.9940000  0  4G13G 2G15G 6
  19499922.877   -18154035.796 7 -13820633.16621
  19485498.0494   -1295812.96248   -990232.05263
  22215085.3074   -4633836.04946  -3483512.05861
  18925670.971   -27602538.953 7 -17747305.56423
 91  4 23 23 46 29.9940000  0  4G13G 2G15G 6
  19491427.768   -18198675.434 7 -13855417.22621
  19486205.0104   -1292099.45648   -987338.41463
  22215599.260    -4631103.111 6  -3481382.47021
  18922862.2054  -27617294.25347 -17758803.19263
 91  4 23 23 46 44.9940000  0  4G13G 2G15G 6
  19482958.494   -18243188.367 7 -13890102.55521
  19486918.2444   -1288343.24148   -984411.49363
  22216145.830    -4628233.079 5  -3479146.07821
  18920074.4944  -27631947.31247 -17770221.14763
 91  4 23 23 46 59.9940000  0  4G13G 2G15G 6
  19474513.596   -18287569.703 7 -13924685.34421
  19487643.1044   -1284539.75348   -981447.73863
  22216720.111    -4625221.566 5  -3476799.44921
  18917306.111   -27646493.536 7 -17781555.85623
 91  4 23 23 47 14.9940000  0  4G13G 2G15G 6
  19466092.893   -18331818.009 7 -13959164.46321
  19488375.0414   -1280687.98248   -978446.36163
  22217321.635    -4622067.545 6  -3474341.75521
  18914558.479   -27660931.429 7 -17792806.14923
 91  4 23 23 47 29.9940000  0  4G13G 2G15G 6
  19457698.260   -18375934.781 7 -13993541.09621
  19489118.8694   -1276789.73248   -975408.76763
  22217947.9554   -4618773.12246  -3471774.65461
  18911830.2684  -27675262.63447 -17803973.31163
 91  4 23 23 47 44.9940000  0  4G13G 2G15G 6
  19449327.158   -18419920.741 7 -14027815.79321
  19489868.4714   -1272845.65348   -972335.46763
  22218600.8854   -4615338.67045  -3469098.44761
  18909124.0254  -27689487.57747 -17815057.67463
 91  4 23 23 47 59.9940000  0  4G13G 2G15G 6
  19440982.385   -18463772.743 7 -14061986.11221
  19490628.2134   -1268852.69448   -969224.06763
  22219282.8694   -4611761.18745  -3466310.78461
  18906438.3304  -27703602.98247 -17826056.68463
 91  4 23 23 48 14.9940000  0  4G13G 2G15G 6
  19432661.432   -18507493.050 7 -14096053.81221
  19491395.4714   -1264813.35348   -966076.53363
  22219985.275    -4608043.142 5  -3463413.61721
  18903774.4634  -27717610.98847 -17836972.00363
 91  4 23 23 48 29.9940000  0  4G13G 2G15G 6
  19424367.104   -18551083.432 7 -14130020.27121
  19492175.8464   -1260729.89848   -962894.62863
  22220719.5804   -4604186.84245  -3460408.68861
  18901127.2524  -27731513.65347 -17847805.23963
 91  4 23 23 48 44.9940000  0  4G13G 2G15G 6
  19416098.315   -18594539.195 7 -14163881.83021
  19492960.6354   -1256597.63948
  22221477.2914   -4600187.80545
  18898501.8304  -27745306.20647 -17858552.67463
 91  4 23 23 48 59.9940000  0  4G13G 2G15G 6
  19407853.080   -18637862.895 7 -14197640.48221
  19493755.6274   -1252419.31248
  22222265.3464   -4596048.81045
  18895898.9944  -27758991.10147 -17869216.22563
 91  4 23 23 49 14.9940000  0  4G13G 2G15G 6
  19399633.588   -18681048.815 7 -14231291.77421
  19494561.3384   -1248189.68448   -953123.04763
  22223083.2294   -4591764.73245  -3450729.03961
  18893315.463   -27772562.854 7 -17879791.60523
 91  4 23 23 49 29.9940000  0  4G13G 2G15G 6
  19391442.768   -18724100.114 7 -14264838.17321
  19495373.8614   -1243911.98048   -949789.77163
  22223923.9404   -4587338.66945  -3447280.22061
  18890755.0724  -27786024.31347 -17890281.04863
 91  4 23 23 49 44.9940000  0  4G13G 2G15G 6
  19383275.736   -18767019.154 7 -14298281.50621
  19496197.3384   -1239588.56348   -946420.88663
  22224792.3384   -4582772.99945  -3443722.54461
  18888210.4554  -27799377.94947 -17900686.46963
 91  4 23 23 49 59.9940000  0  4G13G 2G15G 6
  19375132.150   -18809810.836 7 -14331625.60721
  19497027.5254   -1235224.38148   -943020.23363
  22225692.447    -4578072.907 5  -3440060.13121
  18885691.9084  -27812628.27147 -17911011.38463
 91  4 23 23 50 14.9940000  0  4G13G 2G15G 6
  19367015.385   -18852466.931 7 -14364864.05021
  19497867.6194   -1230811.66748   -939581.76063
  22226616.088    -4573230.362 5  -3436286.70621
  18883189.955   -27825767.389 7 -17921249.64823
 91  4 23 23 50 29.9940000  0  4G13G 2G15G 6
  19358924.479   -18894986.342 7 -14397995.98721
  19498717.4864   -1226349.58748   -936104.81963
  22227557.3774   -4568244.92545  -3432401.94061
  18880712.4944  -27838794.10847 -17931400.32763
 91  4 23 23 50 44.9940000  0  4G13G 2G15G 6
  19350857.650   -18937373.914 7 -14431025.19121
  19499572.9404   -1221843.22348   -932593.36763
  22228536.002    -4563121.507 5  -3428409.69721
  18878254.8224  -27851713.28247 -17941467.20663
 91  4 23 23 50 59.9940000  0  4G13G 2G15G 6
  19342817.432   -18979626.889 7 -14463949.51221
  19500440.6744   -1217289.91448   -929045.34663
  22229537.018    -4557857.825 6  -3424308.12021
  18875816.7834  -27864522.05547 -17951448.06363
 91  4 23 23 51 14.9940000  0  4G13G 2G15G 6
  19334802.244   -19021745.048 7 -14496768.78821
  19501315.1974   -1212689.86347   -925460.89363
  22230566.885    -4552453.890 5  -3420097.26321
  18873399.8074  -27877220.36347 -17961342.83362
 91  4 23 23 51 29.9940000  0  4G13G 2G15G 6
  19326812.3224  -19063727.29047 -14529482.15161
  19502199.5254   -1208042.32247   -921839.43763
  22231617.4474   -4546908.78745  -3415776.39961
  18871005.6664  -27889807.07547 -17971150.65562
 91  4 23 23 51 44.9940000  0  4G13G 2G15G 6
  19318850.127   -19105575.307 7 -14562090.92421
  19503093.7994   -1203348.78948   -918182.13763
  22232703.080    -4541224.301 5  -3411346.90321
  18868631.9164  -27902283.67247 -17980872.67562
 91  4 23 23 51 59.9940000  0  4G13G 2G15G 6
  19310913.190   -19147288.451 7 -14594594.59821
  19503996.1114   -1198608.58148   -914488.47863
  22233812.369    -4535400.094 5  -3406808.58021
  18866279.158   -27914649.435 7 -17990508.32022
 91  4 23 23 52 14.9940000  0  4G13G 2G15G 6
  19303000.611   -19188869.586 7 -14626995.40921
  19504904.9004   -1193825.04948   -910761.05563
  22234945.2994   -4529439.35346  -3402163.86361
  18863944.4714  -27926907.43647 -18000060.00063
 91  4 23 23 52 29.9940000  0  4G13G 2G15G 6
  19295113.565   -19230310.057 7 -14659286.61621
  19505826.4474   -1188989.74248   -906993.28763
  22236105.3074   -4523333.87145  -3397406.32561
  18861634.1504  -27939048.81147 -18009520.80163
 91  4 23 23 52 44.9940000  0  4G13G 2G15G 6
  19287253.3694  -19271618.69047 -14691475.09661
  19506753.1044   -1184111.59848   -903192.13563
  22237293.4084   -4517092.49245  -3392542.91961
  18859345.455   -27951082.420 7 -18018897.62623
 91  4 23 23 52 59.9940000  0  4G13G 2G15G 6
  19279418.463   -19312787.894 7 -14723554.92621
  19507693.7134   -1179183.26548   -899351.88063
  22238510.8384   -4510708.00345  -3387567.98961
  18857076.1274  -27963000.81347 -18028184.67763
 91  4 23 23 53 14.9940000  0  4G13G 2G15G 6
  19271610.0104  -19353821.63147 -14755529.19361
  19508639.0964   -1174208.82248   -895475.70163
  22239753.932    -4504184.504 5  -3382484.73321
  18854831.0104  -27974807.71247 -18037384.84962
 91  4 23 23 53 29.9940000  0  4G13G 2G15G 6
  19263828.7294  -19394714.95647 -14787394.05361
  19509597.3934   -1169183.65448   -891559.98463
  22241019.682    -4497517.465 6  -3377289.63221
  18852603.815   -27986498.214 7 -18046494.31722
 91  4 23 23 53 44.9940000  0  4G13G 2G15G 6
  19256074.8154  -19435467.84547 -14819149.48461
  19510561.5184   -1164107.67648   -887604.67863
  22242313.5964   -4490706.86145  -3371982.67061
  18850402.9634  -27998072.16147 -18055512.96863
 91  4 23 23 53 59.9940000  0  4G13G 2G15G 6
  19248345.3224  -19476080.70847 -14850795.80761
  19511535.7524   -1158981.44348   -883610.21563
  22243637.0024   -4483753.50045  -3366564.45961
  18848223.0574  -28009529.77147 -18064440.97262
 91  4 23 23 54 14.9940000  0  4G13G 2G15G 6
  19240642.6744  -19516555.21147 -14882334.31161
  19512521.7994   -1153807.02948   -879578.20763
  22244988.2444   -4476659.53745  -3361036.70561
  18846064.619   -28020872.947 7 -18073279.79922
 91  4 23 23 54 29.9940000  0  4G13G 2G15G 6
  19232966.7684  -19556892.45147 -14913765.86161
  19513513.3464   -1148585.52048   -875509.50563
  22246368.7214   -4469425.97045  -3355400.16061
  18843925.447   -28032102.713 7 -18082030.25323
 91  4 23 23 54 44.9940000  0  4G13G 2G15G 6
  19225317.8224  -19597088.68647 -14945087.53861
  19514518.0334   -1143313.30848   -871401.29363
  22247768.5024   -4462049.21645  -3349652.03161
  18841811.6274  -28043215.11947 -18090689.26162
 91  4 23 23 54 59.9940000  0  4G13G 2G15G 6
  19217694.2604  -19637144.89347 -14976300.09661
  19515529.1904   -1137991.40648   -867254.35663
  22249201.713    -4454530.577 5  -3343793.33221
  18839720.1504  -28054211.09347 -18099257.54362
 91  4 23 23 55 14.9940000  0  4G13G 2G15G 6
  19210099.0884  -19677060.27147 -15007402.92161
  19516554.8854   -1132619.63248   -863068.56563
  22250656.4164   -4446869.67745  -3337823.80861
  18837649.7214  -28065090.08947 -18107734.67362
 91  4 23 23 55 29.9940000  0  4G13G 2G15G 6
  19202531.1744  -19716835.62647 -15038396.63961
  19517582.2444   -1127198.81648   -858844.56363
  22252147.455    -4439067.855 5  -3331744.48421
  18835601.9794  -28075852.71647 -18116121.12862
 91  4 23 23 55 44.9940000  0  4G13G 2G15G 6
  19194987.3694  -19756475.17147 -15069284.53661
  19518625.6904   -1121733.44548   -854585.83663
  22253652.400    -4431129.512 5  -3325558.75121
  18833574.4944  -28086503.48947 -18124420.42162
 91  4 23 23 55 59.9940000  0  4G13G 2G15G 6
  19187470.3614  -19795978.10347 -15100065.97061
  19519672.4554   -1116222.72048   -850291.77263
  22255188.7054   -4423053.92145  -3319266.06061
  18831569.8384  -28097041.16447 -18132631.58962
 91  4 23 23 56 14.9940000  0  4G13G 2G15G 6
  19179979.6434  -19835343.29547 -15130740.07261
  19520731.0254   -1110665.84648   -845961.74563
  22256757.361    -4414840.185 5  -3312865.72021
  18829586.0184  -28107464.67447 -18140753.79362
 91  4 23 23 56 29.9940000  0  4G13G 2G15G 6
  19172513.5104  -19874567.90947 -15161304.64461
  19521799.221    -1105059.913 8   -841593.49523
  22258344.986    -4406485.745 5  -3306355.78721
  18827622.5804  -28117771.17647 -18148784.82462
 91  4 23 23 56 44.9940000  0  4G13G 2G15G 6
  19165078.6434  -19913649.83947 -15191758.03461
  19522872.9794   -1099402.69648   -837185.28663
  22259961.541    -4397988.585 5  -3299734.62421
  18825684.2914  -28127958.17547 -18156722.74162
 91  4 23 23 56 59.9940000  0  4G13G 2G15G 6
  19157665.5184  -19952593.48547 -15222103.66561
  19523958.8154   -1093699.25448   -832741.05663
  22261600.5964   -4389353.45945  -3293005.95361
  18823769.3774  -28138030.26847 -18164571.11562
 91  4 23 23 57 14.9940000  0  4G13G 2G15G 6
  19150284.0254  -19991393.05747 -15252337.03261
  19525054.6354   -1087943.72848   -828256.23763
  22263269.6584   -4380574.86045  -3286165.48061
  18821875.4714  -28147981.54647 -18172325.34962
 91  4 23 23 57 29.9940000  0  4G13G 2G15G 6
  19142926.9634  -20030050.59147 -15282459.72161
  19526159.1744   -1082138.13448   -823732.40463
  22264970.4864   -4371654.97645  -3279214.91061
  18820004.1044  -28157814.04647 -18179987.03062
 91  4 23 23 57 44.9940000  0  4G13G 2G15G 6
  19135596.7364  -20068571.66847 -15312476.07661
  19527273.5574   -1076288.46548   -819174.22663
  22266693.244    -4362599.714 5  -3272158.84421
  18818154.8614  -28167533.40647 -18187560.55262
 91  4 23 23 57 59.9940000  0  4G13G 2G15G 6
  19128291.9794  -20106955.84947 -15342385.76361
  19528395.690    -1070394.298 8   -814581.38423
  22268444.697    -4353409.111 5  -3264997.35821
  18816326.9164  -28177139.11447 -18195045.51262
 91  4 23 23 58 14.9940000  0  4G13G 2G15G 6
  19121015.0334  -20145201.34847 -15372187.39061
  19529523.1974   -1064454.08548   -809952.64963
  22270221.0104   -4344081.68045  -3257729.22361
  18814520.6274  -28186629.43347 -18202440.55862
 91  4 23 23 58 29.9940000  0  4G13G 2G15G 6
  19113762.7914  -20183311.00147 -15401883.15361
  19530664.3774   -1058470.94048   -805290.46763
  22272018.9004   -4334620.42145  -3250356.80661
  18812736.0964  -28196007.09847 -18209747.82362
 91  4 23 23 58 44.9940000  0  4G13G 2G15G 6
  19106536.0884  -20221279.56747 -15431468.98461
  19531812.9714   -1052439.57848   -800590.70963
  22273845.2684   -4325020.07345  -3242876.01361
  18810974.2914  -28205266.75847 -18216963.13762
 91  4 23 23 58 59.9940000  0  4G13G 2G15G 6
  19099337.2214  -20259108.60747 -15460946.08861
  19532966.0574   -1046361.82348   -795854.80263
  22275701.4634   -4315282.65045  -3235288.40761
  18809234.5494  -28214409.94747 -18224087.69162
 91  4 23 23 59 14.9940000  0  4G13G 2G15G 6
  19092164.5184  -20296800.46147 -15490316.30461
  19534131.0184   -1040240.20148   -791084.71263
  22277577.9634   -4305410.92945  -3227596.17061
  18807516.7914  -28223439.10347 -18231123.39062
 91  4 23 23 59 29.9940000  0  4G13G 2G15G 6
  19085021.3544  -20334351.30347 -15519576.63461
  19535304.8694   -1034070.93748   -786277.50263
  22279482.8074   -4295401.13545  -3219796.31361
  18805822.3934  -28232350.00347 -18238066.94662
 91  4 23 23 59 44.9940000  0  4G13G 2G15G 6
  19077900.5654  -20371763.81947 -15548729.18061
  19536490.5804   -1027856.77048   -781435.30063
  22281409.432    -4285256.031 5  -3211891.04121
  18804145.9004  -28241145.45547 -18244920.53962
 91  4 23 23 59 59.9940000  0  4G13G 2G15G 6
  19070808.1044  -20409033.66347 -15577770.55061
  19537681.9864   -1021593.49348   -776554.83463
  22283372.6434   -4274971.63845  -3203877.24061
  18802494.5724  -28249821.01447 -18251680.71262
 91  4 24  0  0 14.9940000  0  4G13G 2G15G 6
  19063742.4164  -20446163.52147 -15606702.84161
  19538880.205    -1015283.967 8   -771638.32523
  22285349.2994   -4264551.18645  -3195757.41461
  18800867.8854  -28258379.34447 -18258349.53762
 91  4 24  0  0 29.9940000  0  4G13G 2G15G 6
  19056701.0574  -20483159.43947 -15635530.75861
  19540088.6904   -1008934.38248   -766690.61063
  22287359.1044   -4254000.86845  -3187536.37461
  18799259.8694  -28266826.61647 -18264931.82262
 91  4 24  0  0 44.9940000  0  4G13G 2G15G 6
  19049688.0884  -20520016.63747 -15664250.58961
  19541306.4554   -1002540.30148   -761708.21463
  22289396.986    -4243316.104 5  -3179210.58621
  18797674.0024  -28275157.89047 -18271423.72362
 91  4 24  0  0 59.9940000  0  4G13G 2G15G 6
  19042701.8614  -20556732.43147 -15692860.23761
  19542532.1044    -996098.81248   -756688.88063
  22291453.5104   -4232494.35345  -3170778.05461
  18796110.5884  -28283370.27047 -18277822.97862
 91  4 24  0  1 14.9940000  0  4G13G 2G15G 6
  19035742.4004  -20593311.27647 -15721363.16261
  19543764.5884    -989614.55648   -751636.22163
  22293541.893    -4221540.413 5  -3162242.52121
  18794570.8934  -28291468.26747 -18284133.10462
 91  4 24  0  1 29.9940000  0  4G13G 2G15G 6
  19028807.4554  -20629746.23247 -15749753.97661
  19545010.1274    -983080.74748   -746544.95263
  22295651.0494   -4210447.66445  -3153598.81161
  18793053.0024  -28299444.84247 -18290348.61862
 91  4 24  0  1 44.9940000  0  4G13G 2G15G 6
  19021901.1824  -20666044.81547 -15778038.52161
  19546258.7214    -976504.99848   -741420.99963
  22297784.7684   -4199224.03845  -3144853.14461
  18791556.9164  -28307307.60747 -18296475.45162
 91  4 24  0  1 59.9940000  0  4G13G 2G15G 6
  19015020.0254  -20702200.26947 -15806211.54161
  19547520.7294    -969880.94648   -736259.40563
  22299947.9084   -4187862.76845  -3136000.21061
  18790082.6434  -28315049.67447 -18302508.22862
 91  4 24  0  2 14.9940000  0  4G13G 2G15G 6
  19008167.1194  -20738214.91747 -15834274.83461
  19548791.6274    -963210.68348   -731061.81063
  22302136.5024   -4176366.17645  -3127041.85361
  18788632.6664  -28322673.23847 -18308448.66862
 91  4 24  0  2 29.9940000  0  4G13G 2G15G 6
  19001339.7754  -20774094.89547 -15862233.20261
  19550067.3224    -956500.54148   -725833.13763
  22304344.447    -4164740.866 5  -3117983.14221
  18787205.0804  -28330184.24647 -18314301.40262
 91  4 24  0  2 44.9940000  0  4G13G 2G15G 6
  18994539.0184  -20809834.91147 -15890082.50161
  19551352.5254    -949745.42348   -720569.41663
  22306579.900    -4152981.973 5  -3108820.38821
  18785795.6584  -28337577.47447 -18320062.36362
 91  4 24  0  2 59.9940000  0  4G13G 2G15G 6
  18987763.6274  -20845433.81047 -15917821.84061
  19552648.7364    -942944.04148   -715269.64163
  22308849.143    -4141088.486 5  -3099552.75421
  18784412.2684  -28344851.62647 -18325730.53462
 91  4 24  0  3 14.9940000  0  4G13G 2G15G 6
  18981016.8074  -20880892.70247 -15945452.08361
  19553948.4554    -936097.90548   -709935.00563
  22311139.088    -4129061.818 5  -3090181.32121
  18783050.9004  -28352007.84447 -18331306.81262
 91  4 24  0  3 29.9940000  0  4G13G 2G15G 6
  18974294.8074  -20916213.63747 -15972974.82561
  19555260.3854    -929209.00148   -704567.03863
  22313450.8544   -4116904.08445  -3080707.76861
  18781707.8464  -28359048.11847 -18336792.73962
 91  4 24  0  3 44.9940000  0  4G13G 2G15G 6
  18967600.6974  -20951392.69047 -16000387.01561
  19556582.049     -922273.638 8   -699162.87023
  22315785.666    -4104611.933 5  -3071129.49921
  18780395.6824  -28365968.51047 -18342185.25262
 91  4 24  0  3 59.9940000  0  4G13G 2G15G 6
  18960933.0254  -20986432.54547 -16027690.74262
  19557909.3224    -915294.66148   -693724.71563
  22318149.432    -4092188.453 5  -3061448.86921
  18779099.1904  -28372771.66847 -18347486.41762
 91  4 24  0  4 14.9940000  0  4G13G 2G15G 6
  18954292.4794  -21021326.71647 -16054880.94361
  19559245.9714    -908265.66048   -688247.57463
  22320542.5574   -4079626.96245  -3051660.69161
  18777827.6354  -28379451.11647 -18352691.18162
 91  4 24  0  4 29.9940000  0  3G13G 2G 6
  18947677.2994  -21056082.02547 -16081962.94361
  19560592.791     -901193.392 8   -682736.73123
  18776579.7914  -28386013.41747 -18357804.66662
 91  4 24  0  4 44.9940000  0  3G13G 2G 6
  18941091.2364  -21090699.68547 -16108937.68861
  19561945.4004    -894079.44848   -677193.41163
  18775352.5654  -28392459.89347 -18362827.89062
 91  4 24  0  4 59.9940000  0  3G13G 2G 6
  18934531.463   -21125175.670 7 -16135802.03221
  19563308.5254    -886919.83448   -671614.49263
  18774150.1584  -28398786.37147 -18367757.61662
 91  4 24  0  5 14.9940000  0  3G13G 2G 6
  18927997.6824  -21159511.24247 -16162556.96961
  19564681.1504    -879715.88048   -666001.03063
  18772965.7754  -28404994.09747 -18372594.80862
 91  4 24  0  5 29.9940000  0  3G13G 2G 6
  18921491.627   -21193702.081 7 -16189199.12221
  19566059.2364    -872463.36548   -660349.73063
  18771811.8614  -28411078.60847 -18377335.98362
 91  4 24  0  5 44.9940000  0  3G13G 2G 6
  18915010.8694  -21227750.63647 -16215730.40761
  19567447.3224    -865164.75848   -654662.51463
  18770673.7214  -28417042.20647 -18381982.95062
 91  4 24  0  5 59.9940000  0  3G13G 2G 6
  18908558.721   -21261653.033 7 -16242147.80721
  19568846.6824    -857816.07548   -648936.27863
  18769564.0724  -28422880.93447 -18386532.60962
 91  4 24  0  6 14.9940000  0  3G13G 2G 6
  18902133.7134  -21295413.35947 -16268454.49861
  19570253.9004    -850421.66248   -643174.40363
  18768475.9864  -28428598.85847 -18390988.12762
 91  4 24  0  6 29.9940000  0  3G13G 2G 6
  18895736.7604  -21329034.94347 -16294653.08161
  19571669.635     -842985.260 8   -637379.81723
  18767409.4084  -28434199.48847 -18395352.25562
 91  4 24  0  6 44.9940000  0  3G13G 2G 6
  18889366.0724  -21362516.41447 -16320742.48161
  19573091.322     -835505.193 8   -631551.21623
  18766368.8154  -28439681.28647 -18399623.78162
 91  4 24  0  6 59.9940000  0  3G13G 2G 6
  18883021.971   -21395852.335 7 -16346718.47021
  19574525.7684    -827976.14048   -625684.42463
  18765347.5804  -28445038.53647 -18403798.25662
 91  4 24  0  7 14.9940000  0  3G13G 2G 6
  18876704.572   -21429051.678 7 -16372588.03521
  19575964.7754    -820407.29448   -619786.63163
  18764349.1584  -28450280.21847 -18407882.68762
 91  4 24  0  7 29.9940000  0  3G13G 2G 6
  18870413.205   -21462111.365 7 -16398348.77621
  19577414.6434    -812795.65048   -613855.49263
  18763374.6354  -28455403.14847 -18411874.57562
 91  4 24  0  7 44.9940000  0  3G13G 2G 6
  18864146.783   -21495033.921 7 -16424002.66221
  19578869.5414    -805143.87748   -607893.08363
  18762422.4554  -28460409.87247 -18415775.92362
 91  4 24  0  7 59.9940000  0  3G13G 2G 6
  18857909.713   -21527810.607 7 -16449542.88721
  19580335.838     -797443.198 8   -601892.56823
  18761493.9474  -28465291.51447 -18419579.79862
 91  4 24  0  8 14.9940000  0  3G13G 2G 6
  18851701.205   -21560446.936 7 -16474973.74221
  19581808.2214    -789699.10148   -595858.21363
  18760586.6114  -28470053.55247 -18423290.47862
 91  4 24  0  8 29.9940000  0  3G13G 2G 6
  18845516.713   -21592940.161 7 -16500293.08721
  19583291.9164    -781908.83248   -589787.88363
  18759705.4164  -28474693.07647 -18426905.69862
 91  4 24  0  8 44.9940000  0  3G13G 2G 6
  18839359.447   -21625291.031 7 -16525501.50421
  19584783.1274    -774073.38948   -583682.35463
  18758844.5104  -28479211.01147 -18430426.16862
 91  4 24  0  8 59.9940000  0  3G13G 2G 6
  18833229.627   -21657508.101 7 -16550605.66521
  19586281.018     -766201.493 8   -577548.42223
  18758006.3464  -28483615.68647 -18433858.38562
 91  4 24  0  9 14.9940000  0  3G13G 2G 6
  18827126.127   -21689580.509 7 -16575597.10521
  19587786.8544    -758282.45248   -571377.75463
  18757191.2684  -28487896.32947 -18437193.95762
 91  4 24  0  9 29.9940000  0  3G13G 2G 6
  18821048.3464  -21721514.90847 -16600480.99261
  19589302.0804    -750322.86048   -565175.48563
  18756400.5654  -28492059.36247 -18440437.88162
 91  4 24  0  9 44.9940000  0  3G13G 2G 6
  18814997.244   -21753314.232 7 -16625259.63721
  19590824.4554    -742325.70848   -558943.95063
  18755628.0494  -28496107.83147 -18443592.53462
 91  4 24  0  9 59.9940000  0  3G13G 2G 6
  18808975.979   -21784970.845 7 -16649927.08021
  19592353.8224    -734283.48148   -552677.29163
  18754882.9084  -28500033.87947 -18446651.79662
 91  4 24  0 10 14.9940000  0  3G13G 2G 6
  18802976.619   -21816489.390 7 -16674486.93821
  19593893.5184    -726200.54848   -546378.91363
  18754157.8544  -28503841.88247 -18449619.07362
 91  4 24  0 10 29.9940000  0  3G13G 2G 6
  18797004.322   -21847873.013 7 -16698941.65221
  19595437.440     -718080.447 8   -540051.57223
  18753454.6744  -28507535.09447 -18452496.90862
 91  4 24  0 10 44.9940000  0  3G13G 2G 6
  18791058.705   -21879115.592 7 -16723286.47121
  19596989.135     -709917.170 8   -533690.59323
  18752775.1584  -28511107.51847 -18455280.61962
 91  4 24  0 10 59.9940000  0  3G13G 2G 6
  18785139.260   -21910220.269 7 -16747523.83821
  19598551.2214    -701713.95348   -527298.48763
  18752116.3464  -28514562.04547 -18457972.46362
 91  4 24  0 11 14.9940000  0  3G13G 2G 6
  18779245.7994  -21941190.27047 -16771656.25462
  19600119.666     -693473.493 8   -520877.36423
  18751482.1504  -28517901.56747 -18460574.68562
 91  4 24  0 11 29.9940000  0  3G13G 2G 6
  18773379.721   -21972023.171 7 -16795681.84122
  19601694.338     -685193.887 8   -514425.73623
  18750869.2684  -28521123.73747 -18463085.47062
 91  4 24  0 11 44.9940000  0  3G13G 2G 6
  18767539.057   -22002714.883 7 -16819597.41322
  19603278.916     -676870.928 8   -507940.32623
  18750279.5654  -28524224.36747 -18465501.54362
 91  4 24  0 11 59.9940000  0  3G13G 2G 6
  18761723.479   -22033272.115 7 -16843408.19121
  19604870.190     -668511.548 8   -501426.53923
  18749709.9404  -28527210.15847 -18467828.13262
 91  4 24  0 12 14.9940000  0  3G13G 2G 6
  18755934.580   -22063694.620 7 -16867113.99822
  19606467.8464    -660115.49448   -494884.16863
  18749166.4714  -28530080.83547 -18470065.02762
 91  4 24  0 12 29.9940000  0  3G13G 2G 6
  18750171.338   -22093982.171 7 -16890714.63622
  19608072.627     -651682.285 8   -488312.85123
  18748639.7214  -28532835.86147 -18472211.80562
 91  4 24  0 12 44.9940000  0  3G13G 2G 6
  18744434.213   -22124129.483 7 -16914205.99922
  19609686.9634    -643206.67748   -481708.49363
  18748139.6974  -28535469.85147 -18474264.26762
 91  4 24  0 12 59.9940000  0  3G13G 2G 6
  18738722.002   -22154147.356 7 -16937596.50222
  19611304.471     -634699.680 8   -475079.67423
  18747658.5654  -28537993.50147 -18476230.75562
 91  4 24  0 13 14.9940000  0  3G13G 2G 6
  18733035.924   -22184028.640 7 -16960880.57422
  19612929.346     -626154.513 7   -468421.11523
  18747199.1194  -28540399.89547 -18478105.86962
 91  4 24  0 13 29.9940000  0  3G13G 2G 6
  18727376.369   -22213773.853 7 -16984058.61922
  19614564.4944    -617571.51248   -461733.07863
  18746763.3074  -28542689.32847 -18479889.84662
 91  4 24  0 13 44.9940000  0  3G13G 2G 6
  18721742.494   -22243383.201 7 -17007130.78922
  19616204.658     -608951.019 8   -455015.82023
  18746350.6354  -28544862.26847 -18481583.04562
 91  4 24  0 13 59.9940000  0  3G13G 2G 6
  18716132.604   -22272858.543 7 -17030098.54222
  19617850.408     -600294.712 8   -448270.66023
  18745959.2994  -28546920.08547 -18483186.54862
